[[{"header":{"parameterUnit":"m.s-1","parameterCategory":1,"la1":31.0,"la2":29.5877,"lo1":-88.7671,"lo2":-86.6584,"dy":0.0162,"dx":0.0185,"nx":115,"ny":88,"refTime":"2023-04-22T00:00:00:Z","depth":0,"parameterNumber":2,"parameterNumberName":"U-component_of_WINDS"},"data":[0.0,0.0,0.0,0.0,0.0,0.0,0.0,0.0,0.0,0.0,0.0,0.0,0.0,0.0,0.0,0.0,0.0,0.0,0.0,0.0,0.0,0.0,0.0,0.0,0.0,0.0,0.0,0.0,0.0,0.0,0.0,0.0,0.0,0.0,0.0,0.0,0.0,0.0,0.0,0.0,0.0,0.0,0.0,0.0,0.0,0.0,0.0,0.0,0.0,0.0,0.0,0.0,0.0,0.0,0.0,0.0,0.0,0.0,0.0,0.0,0.0,0.0,0.0,0.0,0.0,0.0,0.0,0.0,0.0,0.0,0.0,0.0,0.0,0.0,0.0,0.0,0.0,0.0,0.0,0.0,0.0,0.0,0.0,0.0,0.0,0.0,0.0,0.0,0.0,0.0,0.0,0.0,0.0,0.0,0.0,0.0,0.0,0.0,0.0,0.0,0.0,0.0,0.0,0.0,0.0,0.0,0.0,0.0,0.0,0.0,0.0,0.0,0.0,0.0,0.0,0.0,0.0,0.0,0.0,0.0,0.0,0.0,0.0,0.0,0.0,0.0,0.0,0.0,0.0,0.0,0.0,0.0,0.0,0.0,0.0,0.0,0.0,0.0,0.0,0.0,0.0,0.0,0.0,0.0,0.0,0.0,0.0,0.0,0.0,0.0,0.0,0.0,0.0,0.0,0.0,0.0,0.0,0.0,0.0,0.0,0.0,0.0,0.0,0.0,0.0,0.0,0.0,0.0,0.0,0.0,0.0,0.0,0.0,0.0,0.0,0.0,0.0,0.0,0.0,0.0,0.0,0.0,0.0,0.0,0.0,0.0,0.0,0.0,0.0,0.0,0.0,0.0,0.0,0.0,0.0,0.0,0.0,0.0,0.0,0.0,0.0,0.0,0.0,0.0,0.0,0.0,0.0,0.0,0.0,0.0,0.0,0.0,0.0,0.0,0.0,0.0,0.0,0.0,0.0,0.0,0.0,0.0,0.0,0.0,0.0,0.0,0.0,0.0,0.0,0.0,0.0,0.0,0.0,0.0,0.0,0.0,0.0,0.0,0.0,0.0,0.0,0.0,0.0,0.0,0.0,0.0,0.0,0.0,0.0,0.0,0.0,0.0,0.0,0.0,0.0,0.0,0.0,0.0,0.0,0.0,0.0,0.0,0.0,0.0,0.0,0.0,0.0,0.0,0.0,0.0,0.0,0.0,0.0,0.0,0.0,0.0,0.0,0.0,0.0,0.0,0.0,0.0,0.0,0.0,0.0,0.0,0.0,0.0,0.0,0.0,0.0,0.0,0.0,0.0,0.0,0.0,0.0,0.0,0.0,0.0,0.0,0.0,0.0,0.0,0.0,0.0,0.0,0.0,0.0,0.0,0.0,0.0,0.0,0.0,0.0,0.0,0.0,0.0,0.0,0.0,0.0,0.0,0.0,0.0,0.0,0.0,0.0,0.0,0.0,0.0,0.0,0.0,0.0,0.0,0.0,0.0,0.0,0.0,0.0,0.0,0.0,0.0,0.0,0.0,0.0,0.0,0.0,0.0,0.0,0.0,0.0,0.0,0.0,0.0,0.0,0.0,0.0,0.0,0.0,0.0,0.0,0.0,0.0,0.0,0.0,0.0,0.0,0.0,0.0,0.0,0.0,0.0,0.0,0.0,0.0,0.0,0.0,0.0,0.0,0.0,0.0,0.0,0.0,0.0,0.0,0.0,0.0,0.0,0.0,0.0,0.0,0.0,0.0,0.0,0.0,0.0,0.0,0.0,0.0,0.0,0.0,0.0,0.0,0.0,0.0,0.0,0.0,0.0,0.0,0.0,0.0,0.0,0.0,0.0,0.0,0.0,0.0,0.0,0.0,0.0,0.0,0.0,0.0,0.0,0.0,0.0,0.0,0.0,0.0,0.0,0.0,0.0,0.0,0.0,0.0,0.0,0.0,0.0,0.0,0.0,0.0,0.0,0.0,0.0,0.0,0.0,0.0,0.0,0.0,0.0,0.0,0.0,0.0,0.0,0.0,0.0,0.0,0.0,0.0,0.0,0.0,0.0,0.0,0.0,0.0,0.0,0.0,0.0,0.0,0.0,0.0,0.0,0.0,0.0,0.0,0.0,0.0,0.0,0.0,0.0,0.0,0.0,0.0,0.0,0.0,0.0,0.0,0.0,0.0,0.0,0.0,0.0,0.0,0.0,0.0,0.0,0.0,0.0,0.0,0.0,0.0,0.0,0.0,0.0,0.0,0.0,0.0,0.0,0.0,0.0,0.0,0.0,0.0,0.0,0.0,0.0,0.0,0.0,0.0,0.0,0.0,0.0,0.0,0.0,0.0,0.0,0.0,0.0,0.0,0.0,0.0,0.0,0.0,0.0,0.0,0.0,0.0,0.0,0.0,0.0,0.0,0.0,0.0,0.0,0.0,0.0,0.0,0.0,0.0,0.0,0.0,0.0,0.0,0.0,0.0,0.0,0.0,0.0,0.0,0.0,0.0,0.0,0.0,0.0,0.0,0.0,0.0,0.0,0.0,0.0,0.0,0.0,0.0,0.0,0.0,0.0,0.0,0.0,0.0,0.0,0.0,0.0,0.0,0.0,0.0,0.0,0.0,0.0,0.0,0.0,0.0,0.0,0.0,0.0,0.0,0.0,0.0,0.0,0.0,0.0,0.0,0.0,0.0,0.0,0.0,0.0,0.0,0.0,0.0,0.0,0.0,0.0,0.0,0.0,0.0,0.0,0.0,0.0,0.0,0.0,0.0,0.0,0.0,0.0,0.0,0.0,0.0,0.0,0.0,0.0,0.0,0.0,0.0,0.0,0.0,0.0,0.0,0.0,0.0,0.0,0.0,0.0,0.0,0.0,0.0,0.0,0.0,0.0,0.0,0.0,0.0,0.0,0.0,0.0,0.0,0.0,0.0,0.0,0.0,0.0,0.0,0.0,0.0,0.0,0.0,0.0,0.0,0.0,0.0,0.0,0.0,0.0,0.0,0.0,0.0,0.0,0.0,0.0,0.0,0.0,0.0,0.0,0.0,0.0,0.0,0.0,0.0,0.0,0.0,0.0,0.0,0.0,0.0,0.0,0.0,0.0,0.0,0.0,0.0,0.0,0.0,0.0,0.0,0.0,0.0,0.0,0.0,0.0,0.0,0.0,0.0,0.0,0.0,0.0,0.0,0.0,0.0,0.0,0.0,0.0,0.0,0.0,0.0,0.0,0.0,0.0,0.0,0.0,0.0,0.0,0.0,0.0,0.0,0.0,0.0,0.0,0.0,0.0,0.0,0.0,0.0,0.0,0.0,0.0,0.0,0.0,0.0,0.0,0.0,0.0,0.0,0.0,0.0,0.0,0.0,0.0,0.0,0.0,0.0,0.0,0.0,0.0,0.0,0.0,0.0,0.0,0.0,0.0,0.0,0.0,0.0,0.0,0.0,0.0,0.0,0.0,0.0,0.0,0.0,0.0,0.0,0.0,0.0,0.0,0.0,0.0,0.0,0.0,0.0,0.0,0.0,0.0,0.0,0.0,0.0,0.0,0.0,0.0,0.0,0.0,0.0,0.0,0.0,0.0,0.0,0.0,0.0,0.0,0.0,0.0,0.0,0.0,0.0,0.0,0.0,0.0,0.0,0.0,0.0,0.0,0.0,0.0,0.0,0.0,0.0,0.0,0.0,0.0,0.0,0.0,0.0,0.0,0.0,0.0,0.0,0.0,0.0,0.0,0.0,0.0,0.0,0.0,0.0,0.0,0.0,0.0,0.0,0.0,0.0,0.0,0.0,0.0,0.0,0.0,0.0,0.0,0.0,0.0,0.0,0.0,0.0,0.0,0.0,0.0,0.0,0.0,0.0,0.0,0.0,0.0,0.0,0.0,0.0,0.0,0.0,0.0,0.0,0.0,0.0,0.0,0.0,0.0,0.0,0.0,0.0,0.0,0.0,0.0,0.0,0.0,0.0,0.0,0.0,0.0,0.0,0.0,0.0,0.0,0.0,0.0,0.0,0.0,0.0,0.0,0.0,0.0,0.0,0.0,0.0,0.0,0.0,0.0,0.0,0.0,0.0,0.0,0.0,0.0,0.0,0.0,0.0,0.0,0.0,0.0,0.0,0.0,0.0,0.0,0.0,0.0,0.0,0.0,0.0,0.0,0.0,0.0,0.0,0.0,0.0,0.0,0.0,0.0,0.0,0.0,0.0,0.0,0.0,0.0,0.0,0.0,0.0,0.0,0.0,0.0,0.0,0.0,0.0,0.0,0.0,0.0,0.0,0.0,0.0,0.0,0.0,0.0,3.8681,0.0,0.0,0.0,0.0,0.0,0.0,0.0,0.0,0.0,0.0,0.0,0.0,0.0,0.0,0.0,0.0,0.0,0.0,0.0,0.0,0.0,0.0,0.0,0.0,0.0,0.0,0.0,0.0,0.0,0.0,0.0,0.0,0.0,0.0,0.0,0.0,0.0,0.0,0.0,0.0,0.0,0.0,0.0,0.0,0.0,0.0,0.0,0.0,0.0,0.0,0.0,0.0,0.0,0.0,0.0,0.0,0.0,0.0,0.0,0.0,0.0,0.0,0.0,0.0,0.0,0.0,0.0,0.0,0.0,0.0,0.0,0.0,0.0,0.0,0.0,0.0,0.0,0.0,0.0,0.0,0.0,0.0,0.0,0.0,0.0,0.0,0.0,0.0,0.0,0.0,0.0,0.0,0.0,0.0,0.0,0.0,0.0,0.0,0.0,0.0,0.0,0.0,0.0,0.0,0.0,0.0,0.0,0.0,0.0,0.0,3.8681,3.8681,3.8681,3.8681,3.8681,0.0,0.0,0.0,0.0,0.0,0.0,0.0,0.0,0.0,0.0,0.0,0.0,0.0,0.0,0.0,0.0,0.0,0.0,0.0,0.0,0.0,0.0,0.0,0.0,0.0,0.0,0.0,0.0,0.0,0.0,0.0,0.0,0.0,0.0,0.0,0.0,0.0,0.0,0.0,0.0,0.0,0.0,0.0,0.0,0.0,0.0,0.0,0.0,0.0,0.0,0.0,0.0,0.0,0.0,0.0,0.0,0.0,0.0,0.0,0.0,0.0,0.0,0.0,0.0,0.0,0.0,0.0,0.0,0.0,0.0,0.0,0.0,0.0,0.0,0.0,0.0,0.0,0.0,0.0,0.0,0.0,0.0,0.0,0.0,0.0,0.0,0.0,0.0,0.0,0.0,0.0,0.0,0.0,0.0,0.0,0.0,0.0,0.0,0.0,0.0,0.0,0.0,0.0,0.0,0.0,0.0,0.0,0.0,0.0,0.0,0.0,0.0,3.8681,3.8673,3.8658,0.0,0.0,0.0,0.0,0.0,0.0,0.0,0.0,0.0,0.0,0.0,0.0,0.0,0.0,0.0,0.0,0.0,0.0,0.0,0.0,0.0,0.0,0.0,0.0,0.0,0.0,0.0,0.0,0.0,0.0,0.0,0.0,0.0,0.0,0.0,0.0,0.0,0.0,0.0,0.0,0.0,0.0,0.0,0.0,0.0,0.0,0.0,0.0,0.0,0.0,0.0,0.0,0.0,0.0,0.0,0.0,0.0,0.0,0.0,0.0,0.0,0.0,0.0,0.0,0.0,0.0,0.0,0.0,0.0,0.0,0.0,0.0,0.0,0.0,0.0,0.0,0.0,0.0,0.0,0.0,0.0,0.0,0.0,0.0,0.0,0.0,0.0,0.0,0.0,0.0,0.0,0.0,0.0,0.0,0.0,0.0,0.0,0.0,0.0,0.0,0.0,0.0,0.0,0.0,0.0,0.0,0.0,0.0,0.0,0.0,3.8681,3.8681,3.8681,0.0,3.8544,0.0,0.0,0.0,0.0,0.0,0.0,0.0,0.0,0.0,0.0,0.0,0.0,0.0,0.0,0.0,0.0,0.0,0.0,0.0,0.0,0.0,0.0,0.0,0.0,0.0,0.0,0.0,0.0,0.0,0.0,0.0,0.0,0.0,0.0,0.0,0.0,0.0,0.0,0.0,0.0,0.0,0.0,0.0,0.0,0.0,0.0,0.0,0.0,0.0,0.0,0.0,0.0,0.0,0.0,0.0,0.0,0.0,0.0,0.0,0.0,0.0,0.0,0.0,0.0,0.0,0.0,0.0,0.0,0.0,0.0,0.0,0.0,0.0,0.0,0.0,0.0,0.0,0.0,0.0,0.0,0.0,0.0,0.0,0.0,0.0,0.0,0.0,0.0,0.0,0.0,0.0,0.0,0.0,0.0,0.0,0.0,0.0,0.0,0.0,0.0,0.0,0.0,0.0,0.0,0.0,0.0,0.0,0.0,0.0,0.0,3.8681,3.8681,3.8635,3.8536,0.0,0.0,0.0,0.0,0.0,0.0,0.0,0.0,0.0,0.0,0.0,0.0,0.0,0.0,0.0,0.0,0.0,0.0,0.0,0.0,0.0,0.0,0.0,0.0,0.0,0.0,0.0,0.0,0.0,0.0,0.0,0.0,0.0,0.0,0.0,0.0,0.0,0.0,0.0,0.0,0.0,0.0,0.0,0.0,0.0,0.0,0.0,0.0,0.0,0.0,0.0,0.0,0.0,0.0,0.0,0.0,0.0,0.0,0.0,0.0,0.0,0.0,0.0,0.0,0.0,0.0,0.0,0.0,0.0,0.0,0.0,0.0,0.0,0.0,0.0,0.0,0.0,0.0,0.0,0.0,0.0,0.0,0.0,0.0,0.0,0.0,0.0,0.0,0.0,0.0,0.0,0.0,0.0,0.0,0.0,0.0,0.0,0.0,0.0,0.0,0.0,0.0,0.0,0.0,0.0,0.0,0.0,0.0,0.0,0.0,3.8619,3.8619,3.8619,3.8504,3.8388,3.8336,0.0,0.0,0.0,0.0,0.0,0.0,0.0,0.0,0.0,0.0,0.0,0.0,0.0,0.0,0.0,0.0,0.0,0.0,0.0,0.0,0.0,0.0,0.0,0.0,0.0,0.0,0.0,0.0,0.0,0.0,0.0,0.0,0.0,0.0,0.0,0.0,0.0,0.0,0.0,0.0,0.0,0.0,0.0,0.0,0.0,0.0,0.0,0.0,0.0,0.0,0.0,0.0,0.0,0.0,0.0,0.0,0.0,0.0,0.0,0.0,0.0,0.0,0.0,0.0,0.0,0.0,0.0,0.0,0.0,0.0,0.0,0.0,0.0,0.0,0.0,0.0,0.0,0.0,0.0,0.0,0.0,0.0,0.0,0.0,0.0,0.0,0.0,0.0,0.0,0.0,0.0,0.0,0.0,0.0,0.0,0.0,0.0,0.0,0.0,0.0,0.0,0.0,0.0,0.0,0.0,0.0,0.0,0.0,0.0,3.8425,3.8425,3.8425,3.8328,3.8274,0.0,0.0,0.0,0.0,0.0,0.0,0.0,0.0,0.0,0.0,0.0,0.0,0.0,0.0,0.0,0.0,0.0,0.0,0.0,0.0,0.0,0.0,0.0,0.0,0.0,0.0,0.0,0.0,0.0,0.0,0.0,0.0,0.0,0.0,0.0,0.0,0.0,0.0,0.0,0.0,0.0,0.0,0.0,0.0,0.0,0.0,0.0,0.0,0.0,0.0,0.0,0.0,0.0,0.0,0.0,0.0,0.0,0.0,0.0,0.0,0.0,0.0,0.0,0.0,0.0,0.0,0.0,0.0,0.0,0.0,0.0,0.0,0.0,0.0,0.0,0.0,0.0,0.0,0.0,0.0,0.0,0.0,0.0,0.0,0.0,0.0,0.0,0.0,0.0,0.0,0.0,0.0,0.0,0.0,0.0,0.0,0.0,0.0,0.0,0.0,0.0,0.0,0.0,0.0,0.0,0.0,0.0,0.0,0.0,3.9737,3.9325,3.8841,3.8238,3.8168,3.8051,0.0,0.0,0.0,0.0,0.0,0.0,0.0,0.0,0.0,0.0,0.0,0.0,0.0,0.0,0.0,0.0,0.0,0.0,0.0,0.0,0.0,0.0,0.0,0.0,0.0,0.0,0.0,0.0,0.0,0.0,0.0,0.0,0.0,0.0,0.0,0.0,0.0,0.0,0.0,0.0,0.0,0.0,0.0,0.0,0.0,0.0,0.0,0.0,0.0,0.0,0.0,0.0,0.0,0.0,0.0,0.0,0.0,0.0,0.0,0.0,0.0,0.0,0.0,0.0,0.0,0.0,0.0,0.0,0.0,0.0,0.0,0.0,0.0,0.0,0.0,0.0,0.0,0.0,0.0,0.0,0.0,0.0,0.0,0.0,0.0,0.0,0.0,0.0,0.0,0.0,0.0,0.0,0.0,0.0,0.0,0.0,0.0,0.0,0.0,0.0,0.0,0.0,0.0,0.0,0.0,0.0,0.0,0.0,0.0,4.0347,0.0,3.9381,0.0,3.8472,3.8205,0.0,0.0,0.0,0.0,0.0,0.0,0.0,0.0,0.0,0.0,0.0,0.0,0.0,0.0,0.0,0.0,0.0,0.0,0.0,0.0,0.0,0.0,0.0,0.0,0.0,0.0,0.0,0.0,0.0,0.0,0.0,0.0,0.0,0.0,0.0,0.0,0.0,0.0,0.0,0.0,0.0,0.0,0.0,0.0,0.0,0.0,0.0,0.0,0.0,0.0,0.0,0.0,0.0,0.0,0.0,0.0,0.0,0.0,0.0,0.0,0.0,0.0,0.0,0.0,0.0,0.0,0.0,0.0,0.0,0.0,0.0,0.0,0.0,0.0,0.0,0.0,0.0,0.0,0.0,0.0,0.0,0.0,0.0,0.0,0.0,0.0,0.0,0.0,0.0,0.0,0.0,0.0,0.0,0.0,0.0,0.0,0.0,0.0,0.0,0.0,0.0,0.0,0.0,0.0,0.0,0.0,0.0,0.0,4.0039,4.0119,4.0128,4.0138,4.0093,3.9266,3.8769,0.0,0.0,0.0,0.0,0.0,0.0,0.0,0.0,0.0,0.0,0.0,0.0,0.0,0.0,0.0,0.0,0.0,0.0,0.0,0.0,0.0,0.0,0.0,0.0,0.0,0.0,0.0,0.0,0.0,0.0,0.0,0.0,0.0,0.0,0.0,0.0,0.0,0.0,0.0,0.0,0.0,0.0,0.0,0.0,0.0,0.0,0.0,0.0,0.0,0.0,0.0,0.0,0.0,0.0,0.0,0.0,0.0,0.0,0.0,0.0,0.0,0.0,0.0,0.0,0.0,0.0,0.0,0.0,0.0,0.0,0.0,0.0,0.0,0.0,0.0,0.0,0.0,0.0,0.0,0.0,0.0,0.0,0.0,0.0,0.0,0.0,0.0,0.0,0.0,0.0,0.0,0.0,0.0,0.0,0.0,0.0,0.0,0.0,0.0,0.0,0.0,0.0,0.0,0.0,0.0,0.0,0.0,0.0,0.0,4.1497,4.1472,4.1223,4.0669,4.0399,3.9605,0.0,0.0,0.0,0.0,0.0,0.0,0.0,0.0,0.0,0.0,0.0,0.0,0.0,0.0,0.0,0.0,0.0,0.0,0.0,0.0,0.0,0.0,0.0,0.0,0.0,0.0,0.0,0.0,0.0,0.0,0.0,0.0,0.0,0.0,0.0,0.0,0.0,0.0,0.0,0.0,0.0,0.0,0.0,0.0,0.0,0.0,0.0,0.0,0.0,0.0,0.0,0.0,0.0,0.0,0.0,0.0,0.0,0.0,0.0,0.0,0.0,0.0,0.0,0.0,0.0,0.0,0.0,0.0,0.0,0.0,0.0,0.0,0.0,0.0,0.0,0.0,0.0,0.0,0.0,0.0,0.0,0.0,0.0,0.0,0.0,0.0,0.0,0.0,0.0,0.0,0.0,0.0,0.0,0.0,0.0,0.0,0.0,0.0,0.0,0.0,0.0,0.0,0.0,0.0,0.0,0.0,0.0,0.0,0.0,4.5117,4.4366,4.3589,4.2802,4.2249,4.1094,3.9325,0.0,0.0,0.0,0.0,0.0,0.0,0.0,0.0,0.0,0.0,0.0,0.0,0.0,0.0,0.0,0.0,0.0,0.0,0.0,0.0,0.0,0.0,0.0,0.0,0.0,0.0,0.0,0.0,0.0,0.0,0.0,0.0,0.0,0.0,0.0,0.0,0.0,0.0,0.0,0.0,0.0,0.0,0.0,0.0,0.0,0.0,0.0,0.0,0.0,0.0,0.0,0.0,0.0,0.0,0.0,0.0,0.0,0.0,0.0,0.0,0.0,0.0,0.0,0.0,0.0,0.0,0.0,0.0,0.0,0.0,0.0,0.0,0.0,0.0,0.0,0.0,0.0,0.0,0.0,0.0,0.0,0.0,0.0,0.0,0.0,0.0,0.0,0.0,0.0,0.0,0.0,0.0,0.0,0.0,0.0,0.0,0.0,0.0,0.0,0.0,0.0,0.0,0.0,0.0,0.0,0.0,0.0,0.0,5.0536,4.8698,4.7265,4.6244,4.4768,4.3102,0.0,0.0,0.0,0.0,0.0,0.0,0.0,0.0,0.0,0.0,0.0,0.0,0.0,0.0,0.0,0.0,0.0,0.0,0.0,0.0,0.0,0.0,0.0,0.0,0.0,0.0,0.0,0.0,0.0,0.0,0.0,0.0,0.0,0.0,0.0,0.0,0.0,0.0,0.0,0.0,0.0,0.0,0.0,0.0,0.0,0.0,0.0,0.0,0.0,0.0,0.0,0.0,0.0,0.0,0.0,0.0,0.0,0.0,0.0,0.0,0.0,0.0,0.0,0.0,0.0,0.0,0.0,0.0,0.0,0.0,0.0,0.0,0.0,0.0,0.0,0.0,0.0,0.0,0.0,0.0,0.0,0.0,0.0,0.0,0.0,0.0,0.0,0.0,0.0,0.0,0.0,0.0,0.0,0.0,0.0,0.0,0.0,0.0,0.0,0.0,0.0,0.0,0.0,0.0,0.0,0.0,0.0,0.0,0.0,5.2531,5.4205,5.3205,4.9409,4.7766,4.5382,0.0,0.0,0.0,0.0,0.0,0.0,0.0,0.0,0.0,0.0,0.0,0.0,0.0,0.0,0.0,0.0,0.0,0.0,0.0,0.0,0.0,0.0,0.0,0.0,0.0,0.0,0.0,0.0,0.0,0.0,0.0,0.0,0.0,0.0,0.0,0.0,0.0,0.0,0.0,0.0,0.0,0.0,0.0,0.0,0.0,0.0,0.0,0.0,0.0,0.0,0.0,0.0,0.0,0.0,0.0,0.0,0.0,0.0,0.0,0.0,0.0,0.0,0.0,0.0,0.0,0.0,0.0,0.0,0.0,0.0,0.0,0.0,0.0,0.0,0.0,0.0,0.0,0.0,0.0,0.0,0.0,0.0,0.0,0.0,0.0,0.0,0.0,0.0,0.0,0.0,0.0,0.0,0.0,0.0,0.0,0.0,0.0,0.0,0.0,0.0,0.0,0.0,0.0,0.0,0.0,0.0,0.0,0.0,5.2839,5.5701,5.8064,5.7941,5.5041,5.1612,4.8155,0.0,0.0,0.0,0.0,0.0,0.0,0.0,0.0,0.0,0.0,0.0,0.0,0.0,0.0,0.0,0.0,0.0,0.0,0.0,0.0,0.0,0.0,0.0,0.0,0.0,0.0,0.0,0.0,0.0,0.0,0.0,0.0,0.0,0.0,0.0,0.0,0.0,0.0,0.0,0.0,0.0,0.0,0.0,0.0,0.0,0.0,0.0,0.0,0.0,0.0,0.0,0.0,0.0,0.0,0.0,0.0,0.0,0.0,0.0,0.0,0.0,0.0,0.0,0.0,0.0,0.0,0.0,0.0,0.0,0.0,0.0,0.0,0.0,0.0,0.0,0.0,0.0,0.0,0.0,0.0,0.0,0.0,0.0,0.0,0.0,0.0,0.0,0.0,0.0,0.0,0.0,0.0,0.0,0.0,0.0,0.0,0.0,0.0,0.0,0.0,0.0,0.0,0.0,0.0,0.0,0.0,0.0,0.0,5.5563,5.9133,6.0823,6.1599,6.1392,5.5616,5.103,0.0,0.0,0.0,0.0,0.0,0.0,0.0,0.0,0.0,0.0,0.0,0.0,0.0,0.0,0.0,0.0,0.0,0.0,0.0,0.0,0.0,0.0,0.0,0.0,0.0,0.0,0.0,0.0,0.0,0.0,0.0,0.0,0.0,0.0,0.0,0.0,0.0,0.0,0.0,0.0,0.0,0.0,0.0,0.0,0.0,0.0,0.0,0.0,0.0,0.0,0.0,0.0,0.0,0.0,0.0,0.0,0.0,0.0,0.0,0.0,0.0,0.0,0.0,0.0,0.0,0.0,0.0,0.0,0.0,0.0,0.0,0.0,0.0,0.0,0.0,0.0,0.0,0.0,0.0,0.0,0.0,0.0,0.0,0.0,0.0,0.0,0.0,0.0,0.0,0.0,0.0,0.0,0.0,0.0,0.0,0.0,0.0,0.0,0.0,0.0,0.0,0.0,0.0,0.0,0.0,0.0,0.0,0.0,5.7598,6.0737,6.2875,6.3703,6.3082,5.7168,5.2582,0.0,0.0,0.0,0.0,0.0,0.0,0.0,0.0,0.0,0.0,0.0,0.0,0.0,0.0,0.0,0.0,0.0,0.0,0.0,0.0,0.0,0.0,0.0,0.0,0.0,0.0,0.0,0.0,0.0,0.0,0.0,0.0,0.0,0.0,0.0,0.0,0.0,0.0,0.0,0.0,0.0,0.0,0.0,0.0,0.0,0.0,0.0,0.0,3.8814,0.0,0.0,0.0,0.0,0.0,0.0,0.0,0.0,0.0,0.0,0.0,0.0,0.0,0.0,0.0,0.0,0.0,0.0,0.0,0.0,0.0,0.0,0.0,0.0,0.0,0.0,0.0,0.0,0.0,0.0,0.0,0.0,0.0,0.0,0.0,0.0,0.0,0.0,0.0,0.0,0.0,0.0,0.0,0.0,0.0,0.0,0.0,0.0,0.0,0.0,0.0,0.0,0.0,0.0,0.0,0.0,0.0,0.0,0.0,5.9323,6.2289,6.3876,6.4703,6.4481,5.9461,5.5081,0.0,0.0,0.0,0.0,0.0,0.0,0.0,0.0,0.0,0.0,0.0,0.0,0.0,0.0,0.0,0.0,0.0,0.0,0.0,0.0,0.0,0.0,0.0,0.0,0.0,0.0,0.0,0.0,0.0,0.0,0.0,0.0,0.0,0.0,0.0,0.0,0.0,0.0,0.0,0.0,0.0,0.0,0.0,0.0,0.0,0.0,0.0,0.0,0.0,0.0,0.0,0.0,0.0,0.0,0.0,0.0,0.0,0.0,0.0,0.0,0.0,0.0,0.0,0.0,0.0,0.0,0.0,0.0,0.0,0.0,0.0,0.0,0.0,0.0,0.0,0.0,0.0,0.0,0.0,0.0,0.0,0.0,0.0,0.0,0.0,0.0,0.0,0.0,0.0,0.0,0.0,0.0,0.0,0.0,0.0,0.0,0.0,0.0,0.0,0.0,0.0,0.0,0.0,0.0,0.0,0.0,0.0,5.7168,6.0909,6.3979,6.4841,6.5462,6.5826,6.1565,5.7477,5.3667,0.0,0.0,0.0,0.0,0.0,0.0,0.0,0.0,0.0,0.0,0.0,0.0,0.0,0.0,0.0,0.0,0.0,0.0,0.0,0.0,0.0,0.0,0.0,0.0,0.0,0.0,0.0,0.0,0.0,0.0,0.0,0.0,0.0,0.0,0.0,0.0,0.0,0.0,3.9577,4.013,0.0,0.0,0.0,0.0,0.0,0.0,0.0,0.0,3.9113,0.0,0.0,0.0,0.0,0.0,0.0,0.0,0.0,0.0,0.0,0.0,0.0,0.0,0.0,0.0,0.0,0.0,0.0,0.0,0.0,0.0,0.0,0.0,0.0,0.0,0.0,0.0,0.0,0.0,0.0,0.0,0.0,0.0,0.0,0.0,0.0,0.0,0.0,0.0,0.0,0.0,0.0,0.0,0.0,0.0,0.0,0.0,0.0,0.0,0.0,0.0,0.0,0.0,0.0,0.0,0.0,5.5961,5.9288,6.2703,6.6324,6.7152,6.7034,6.5861,6.2082,5.8219,5.4375,0.0,0.0,0.0,0.0,0.0,0.0,0.0,0.0,0.0,0.0,0.0,0.0,0.0,0.0,0.0,0.0,0.0,0.0,0.0,0.0,0.0,0.0,0.0,0.0,0.0,0.0,0.0,0.0,0.0,0.0,0.0,0.0,0.0,0.0,0.0,0.0,0.0,0.0,0.0,4.0108,4.0362,0.0,0.0,0.0,0.0,0.0,0.0,0.0,0.0,3.9483,0.0,0.0,0.0,0.0,0.0,0.0,0.0,0.0,0.0,0.0,0.0,0.0,0.0,0.0,0.0,0.0,0.0,0.0,0.0,0.0,0.0,0.0,0.0,0.0,0.0,0.0,0.0,0.0,0.0,0.0,0.0,0.0,0.0,0.0,0.0,0.0,0.0,0.0,0.0,0.0,0.0,0.0,0.0,0.0,0.0,0.0,0.0,0.0,0.0,0.0,0.0,0.0,0.0,0.0,0.0,5.6667,6.0185,6.3565,6.6861,6.7344,6.7034,6.5895,6.2565,5.8806,0.0,0.0,0.0,0.0,0.0,0.0,0.0,0.0,0.0,0.0,0.0,0.0,0.0,0.0,0.0,0.0,0.0,0.0,0.0,0.0,0.0,0.0,0.0,0.0,0.0,0.0,0.0,0.0,0.0,0.0,0.0,0.0,0.0,0.0,0.0,0.0,0.0,0.0,0.0,0.0,4.1496,4.1924,4.2448,0.0,0.0,0.0,0.0,0.0,0.0,4.1321,4.1012,0.0,0.0,0.0,0.0,0.0,0.0,0.0,0.0,0.0,0.0,0.0,0.0,0.0,0.0,0.0,0.0,0.0,0.0,0.0,0.0,0.0,0.0,0.0,0.0,0.0,0.0,0.0,0.0,0.0,0.0,0.0,0.0,0.0,0.0,0.0,0.0,0.0,0.0,0.0,0.0,0.0,0.0,0.0,0.0,0.0,0.0,0.0,0.0,0.0,0.0,0.0,0.0,0.0,0.0,0.0,5.7185,6.1031,6.4324,6.7068,6.7359,6.6945,6.5838,6.2892,5.9133,0.0,0.0,0.0,0.0,0.0,0.0,0.0,0.0,0.0,0.0,0.0,0.0,0.0,0.0,0.0,0.0,0.0,0.0,0.0,0.0,0.0,0.0,0.0,0.0,0.0,0.0,0.0,0.0,0.0,0.0,0.0,0.0,0.0,0.0,0.0,0.0,0.0,0.0,0.0,0.0,0.0,4.3581,4.4108,4.3304,0.0,0.0,0.0,0.0,4.2361,4.3034,0.0,0.0,0.0,0.0,0.0,0.0,0.0,0.0,0.0,0.0,0.0,0.0,0.0,0.0,0.0,0.0,0.0,0.0,0.0,0.0,0.0,0.0,0.0,0.0,0.0,0.0,0.0,0.0,0.0,0.0,0.0,0.0,0.0,0.0,0.0,0.0,0.0,0.0,0.0,0.0,0.0,0.0,0.0,0.0,0.0,0.0,0.0,0.0,0.0,0.0,0.0,0.0,0.0,0.0,0.0,0.0,5.8685,6.2496,6.56,6.7842,6.8655,6.7935,6.5695,6.2818,5.9064,0.0,0.0,0.0,0.0,0.0,0.0,0.0,0.0,0.0,0.0,0.0,0.0,0.0,0.0,0.0,0.0,0.0,0.0,0.0,0.0,0.0,0.0,0.0,0.0,0.0,0.0,0.0,0.0,0.0,0.0,0.0,0.0,0.0,0.0,0.0,0.0,0.0,0.0,0.0,0.0,0.0,4.427,4.4823,4.4859,4.46,0.0,0.0,0.0,4.4573,4.6034,0.0,0.0,0.0,0.0,0.0,0.0,0.0,0.0,0.0,0.0,0.0,0.0,0.0,0.0,0.0,0.0,0.0,0.0,0.0,0.0,0.0,0.0,0.0,0.0,0.0,0.0,0.0,0.0,0.0,0.0,0.0,0.0,0.0,0.0,0.0,0.0,0.0,0.0,0.0,0.0,0.0,0.0,0.0,0.0,0.0,0.0,0.0,0.0,0.0,0.0,0.0,0.0,0.0,0.0,0.0,5.4685,5.9564,6.2599,6.5359,6.798,6.8329,6.7581,6.583,6.2745,5.8978,0.0,0.0,0.0,0.0,0.0,0.0,0.0,0.0,0.0,0.0,0.0,0.0,0.0,0.0,0.0,0.0,0.0,0.0,0.0,0.0,0.0,0.0,0.0,0.0,0.0,0.0,0.0,0.0,0.0,0.0,0.0,0.0,0.0,0.0,0.0,0.0,0.0,0.0,0.0,0.0,0.0,0.0,4.5654,4.64,0.0,0.0,0.0,4.7067,4.6247,0.0,0.0,0.0,0.0,0.0,0.0,0.0,0.0,0.0,0.0,0.0,0.0,0.0,0.0,0.0,0.0,0.0,0.0,0.0,0.0,0.0,0.0,0.0,0.0,0.0,0.0,0.0,0.0,0.0,0.0,0.0,0.0,0.0,0.0,0.0,0.0,0.0,0.0,0.0,0.0,0.0,0.0,0.0,0.0,0.0,0.0,0.0,0.0,0.0,0.0,0.0,0.0,0.0,0.0,0.0,0.0,0.0,6.0046,6.2733,6.5333,6.7856,6.7799,6.7058,6.5645,6.2578,0.0,0.0,0.0,0.0,0.0,0.0,0.0,0.0,0.0,0.0,0.0,0.0,0.0,0.0,0.0,0.0,0.0,0.0,0.0,0.0,0.0,0.0,0.0,0.0,0.0,0.0,0.0,3.4144,0.0,0.0,0.0,0.0,0.0,0.0,0.0,0.0,0.0,0.0,0.0,0.0,0.0,0.0,4.686,4.6973,4.8041,4.8376,0.0,0.0,4.8711,4.7736,4.8945,4.8956,0.0,0.0,0.0,0.0,0.0,0.0,0.0,0.0,0.0,0.0,0.0,0.0,0.0,0.0,0.0,0.0,0.0,0.0,0.0,0.0,0.0,0.0,0.0,0.0,0.0,0.0,0.0,0.0,0.0,0.0,0.0,0.0,0.0,0.0,0.0,0.0,0.0,0.0,0.0,0.0,0.0,0.0,0.0,0.0,0.0,0.0,0.0,0.0,0.0,0.0,0.0,0.0,0.0,0.0,0.0,5.9904,6.3508,6.6039,6.7502,6.7516,6.6697,6.4983,6.2188,5.8863,0.0,0.0,0.0,0.0,0.0,0.0,0.0,0.0,0.0,0.0,0.0,0.0,0.0,0.0,0.0,0.0,0.0,0.0,0.0,0.0,0.0,0.0,0.0,0.0,0.0,0.0,0.0,0.0,0.0,0.0,0.0,0.0,0.0,0.0,0.0,0.0,0.0,0.0,0.0,0.0,0.0,4.8483,4.9081,4.9695,5.0033,0.0,0.0,5.0573,4.9083,5.1237,5.1356,4.6238,0.0,0.0,0.0,0.0,0.0,0.0,0.0,0.0,0.0,0.0,0.0,0.0,0.0,0.0,0.0,0.0,0.0,0.0,0.0,0.0,0.0,0.0,0.0,0.0,0.0,0.0,0.0,0.0,0.0,0.0,0.0,0.0,0.0,0.0,0.0,0.0,0.0,0.0,0.0,0.0,0.0,0.0,0.0,0.0,0.0,0.0,0.0,0.0,0.0,0.0,0.0,0.0,0.0,5.6676,6.052,6.3254,6.5553,6.7407,6.7387,6.661,6.5116,6.2127,5.8771,0.0,0.0,0.0,0.0,0.0,0.0,0.0,0.0,0.0,0.0,0.0,0.0,0.0,0.0,0.0,0.0,0.0,0.0,0.0,0.0,0.0,0.0,0.0,0.0,0.0,0.0,0.0,0.0,3.8454,3.9109,3.9519,0.0,0.0,0.0,0.0,0.0,0.0,0.0,0.0,0.0,0.0,4.9063,4.9269,5.0632,0.0,0.0,5.0815,5.0919,4.9894,5.063,5.0287,4.7307,4.6307,0.0,0.0,0.0,0.0,0.0,0.0,0.0,0.0,0.0,0.0,0.0,0.0,0.0,0.0,0.0,0.0,0.0,0.0,0.0,0.0,0.0,0.0,0.0,0.0,0.0,0.0,0.0,0.0,0.0,0.0,0.0,0.0,0.0,0.0,0.0,0.0,0.0,0.0,0.0,0.0,0.0,0.0,0.0,0.0,0.0,0.0,0.0,0.0,0.0,0.0,0.0,0.0,5.7227,6.1434,6.3591,6.5607,6.7598,6.7262,6.6425,6.5002,6.2212,5.905,0.0,0.0,0.0,0.0,0.0,0.0,0.0,0.0,0.0,0.0,0.0,0.0,0.0,0.0,0.0,0.0,0.0,0.0,0.0,0.0,0.0,0.0,0.0,0.0,0.0,0.0,0.0,0.0,3.9606,4.0009,3.9847,0.0,0.0,0.0,0.0,0.0,0.0,0.0,0.0,0.0,0.0,5.0001,5.0174,5.1468,5.2018,5.0965,5.1034,5.0965,5.0253,5.0048,4.9479,4.7962,0.0,0.0,0.0,0.0,0.0,0.0,0.0,0.0,0.0,0.0,0.0,0.0,0.0,0.0,0.0,0.0,0.0,0.0,0.0,0.0,0.0,0.0,0.0,0.0,0.0,0.0,0.0,0.0,0.0,0.0,0.0,0.0,0.0,0.0,0.0,0.0,0.0,0.0,0.0,0.0,0.0,0.0,0.0,0.0,0.0,0.0,0.0,0.0,0.0,0.0,0.0,0.0,0.0,0.0,6.2537,6.4781,6.6601,6.7815,6.7184,6.6102,6.4634,6.2448,5.9844,5.6783,0.0,0.0,0.0,0.0,0.0,0.0,0.0,0.0,0.0,0.0,0.0,0.0,0.0,0.0,0.0,0.0,0.0,0.0,0.0,0.0,0.0,0.0,0.0,0.0,0.0,0.0,3.9698,4.04,4.0538,0.0,0.0,0.0,0.0,0.0,0.0,0.0,0.0,0.0,0.0,4.998,5.1543,5.2265,5.2289,5.2168,5.2099,5.1563,5.0838,5.0149,5.0011,4.9479,0.0,0.0,0.0,0.0,0.0,0.0,0.0,0.0,0.0,0.0,0.0,0.0,0.0,0.0,0.0,0.0,0.0,0.0,0.0,0.0,0.0,0.0,0.0,0.0,0.0,0.0,0.0,0.0,4.5371,0.0,0.0,0.0,0.0,0.0,0.0,0.0,0.0,0.0,0.0,0.0,5.0989,5.1769,0.0,0.0,0.0,0.0,0.0,0.0,0.0,0.0,0.0,0.0,0.0,0.0,5.9465,6.2552,6.5217,6.6977,6.7861,6.7658,6.6609,6.4647,6.2922,6.0148,5.6172,0.0,0.0,0.0,0.0,0.0,0.0,0.0,0.0,0.0,0.0,0.0,0.0,0.0,0.0,0.0,0.0,0.0,0.0,0.0,0.0,0.0,0.0,0.0,0.0,0.0,4.071,0.0,0.0,0.0,0.0,0.0,0.0,0.0,0.0,0.0,0.0,0.0,4.6082,4.7798,4.9507,5.0792,5.1479,5.1523,5.1651,0.0,0.0,0.0,0.0,0.0,0.0,0.0,0.0,0.0,0.0,0.0,0.0,0.0,0.0,4.6134,4.4893,4.4665,4.4652,4.4686,0.0,0.0,0.0,0.0,0.0,0.0,0.0,0.0,0.0,0.0,0.0,0.0,0.0,0.0,0.0,0.0,4.7192,0.0,0.0,0.0,0.0,0.0,0.0,0.0,0.0,5.1877,5.3264,5.3551,5.4532,5.5141,0.0,5.4634,5.3043,0.0,0.0,0.0,0.0,0.0,0.0,0.0,0.0,6.0046,6.3235,6.5602,6.7163,6.7861,6.7658,6.6609,6.4647,6.2415,5.9607,5.6206,5.3247,5.1479,0.0,0.0,0.0,0.0,0.0,0.0,0.0,0.0,0.0,0.0,0.0,0.0,0.0,0.0,0.0,0.0,0.0,0.0,0.0,0.0,0.0,0.0,0.0,4.2263,0.0,0.0,0.0,0.0,0.0,0.0,0.0,0.0,0.0,4.4133,4.5498,4.6984,4.846,4.9968,5.0927,5.108,0.0,0.0,0.0,0.0,0.0,0.0,0.0,4.9617,4.9582,4.9203,4.9031,4.9513,4.941,4.9306,4.9548,0.0,0.0,4.7293,4.6983,4.6983,4.6996,4.7824,4.8582,4.8824,4.9686,5.0513,0.0,0.0,0.0,0.0,0.0,0.0,0.0,0.0,5.032,5.032,0.0,4.956,0.0,0.0,0.0,0.0,0.0,0.0,0.0,0.0,5.5108,5.6528,5.6003,5.734,5.7645,5.7002,5.6341,5.5936,5.58,5.4431,0.0,0.0,0.0,0.0,0.0,0.0,6.0907,6.4512,6.6149,6.7265,6.7929,6.7286,6.6149,6.458,6.1008,5.8423,5.6968,5.5378,5.3702,5.1883,5.1011,0.0,0.0,0.0,0.0,0.0,0.0,0.0,0.0,0.0,0.0,0.0,0.0,0.0,0.0,0.0,0.0,0.0,0.0,0.0,0.0,4.3884,0.0,0.0,0.0,0.0,0.0,0.0,0.0,0.0,0.0,0.0,4.5686,4.6858,4.8307,4.9838,0.0,0.0,0.0,0.0,5.2873,5.1479,5.1824,5.203,5.141,5.1237,5.1168,5.1168,0.0,0.0,5.1168,5.0651,5.0493,5.1065,5.1237,5.0996,5.0306,5.008,5.0011,5.008,5.0134,5.041,5.1065,5.1444,5.1892,5.5114,0.0,0.0,0.0,0.0,5.301,5.3619,5.4076,5.4076,5.4076,5.4059,5.3315,0.0,0.0,0.0,0.0,0.0,0.0,5.4617,5.4549,5.7153,5.8844,5.9708,6.0114,6.0757,6.1569,6.0825,6.0486,6.0419,5.9539,5.734,5.4008,0.0,0.0,0.0,0.0,6.2719,6.5358,6.7929,6.9079,6.8774,6.8571,6.7218,6.4681,6.1501,5.9573,5.9133,5.6224,5.4398,5.3904,5.2313,0.0,0.0,0.0,0.0,0.0,0.0,0.0,0.0,0.0,0.0,0.0,0.0,0.0,0.0,0.0,0.0,0.0,0.0,0.0,4.4686,4.4962,4.4872,0.0,0.0,0.0,0.0,0.0,0.0,0.0,0.0,0.0,4.9238,4.8879,4.9065,0.0,0.0,5.1513,5.1858,5.2754,5.3425,5.3529,0.0,0.0,0.0,5.346,5.2735,5.2735,5.3168,5.3341,5.2823,5.341,5.3892,5.3598,5.3513,5.3616,5.3858,5.2617,5.1858,5.2272,5.2839,5.341,5.4134,5.4736,5.5288,5.861,5.6174,5.5279,5.4767,5.4619,5.5582,5.6279,5.6677,5.643,5.6264,5.6217,5.4959,5.4309,5.4125,5.366,0.0,0.0,0.0,5.6037,5.635,5.8315,5.9831,6.0961,6.1293,6.1891,6.2689,6.2012,6.1865,6.2213,6.1508,6.0006,5.7746,0.0,0.0,5.9032,6.1839,6.4343,6.6542,6.8695,6.9383,6.8639,6.8064,6.6745,6.4647,6.1975,6.0283,5.9674,5.7257,5.5584,5.4941,5.3728,5.2317,0.0,0.0,0.0,0.0,0.0,0.0,0.0,0.0,0.0,0.0,0.0,4.331,0.0,0.0,0.0,0.0,4.5747,4.6389,4.7169,4.6962,0.0,0.0,0.0,0.0,0.0,0.0,0.0,4.6603,4.7858,4.9341,5.1237,5.103,5.1099,5.2272,5.2444,5.2617,5.3065,0.0,5.441,5.4858,5.5219,5.5563,5.6012,5.5322,5.477,5.4736,5.5099,5.5288,5.4874,5.5495,5.5892,5.5529,5.5426,5.5563,5.5996,5.4943,5.4134,5.4667,5.5081,5.5616,5.6391,5.715,5.7702,6.1202,6.0321,5.8382,5.712,5.6518,5.7829,5.8377,5.8345,5.7678,5.7388,5.7248,5.5246,5.4729,5.5354,5.5366,0.0,0.0,5.6576,5.6902,5.7517,5.8992,6.0049,6.0683,6.1375,6.1708,6.1795,6.1158,6.1314,6.2197,6.1558,6.1667,6.2514,6.1166,6.1177,6.2584,6.4072,6.5899,6.7963,6.8842,6.8876,6.7996,6.6542,6.5392,6.4613,6.2448,6.0622,5.9148,5.8254,5.7027,5.5382,5.5211,5.43,5.2433,0.0,0.0,0.0,0.0,0.0,0.0,0.0,0.0,0.0,0.0,0.0,0.0,0.0,0.0,0.0,4.8134,0.0,5.0011,4.941,0.0,0.0,0.0,4.6858,4.6858,4.6941,4.7479,4.881,0.0,0.0,0.0,0.0,5.3908,5.477,5.472,5.4632,5.4685,5.5306,5.5789,5.5823,5.6478,5.6978,5.7012,5.6874,5.6702,5.6598,5.684,5.6805,5.6702,5.6805,5.6874,5.6702,5.6771,5.6805,5.6874,5.6805,5.6909,5.6909,5.6874,5.7081,5.7805,5.8461,5.8909,6.255,6.1492,6.1441,6.0342,5.8722,5.9572,5.995,5.9918,5.9229,5.896,5.8831,5.7247,5.6914,5.7538,5.7517,5.7968,5.8744,5.9252,5.9584,5.9778,6.0673,6.1504,6.2174,6.2368,6.2747,6.3255,6.362,6.3909,6.411,6.391,6.3905,6.4136,6.3754,6.3782,6.4147,6.6102,6.7658,6.8808,7.0128,7.0161,6.8842,6.732,6.5933,6.4613,6.2482,6.0858,5.9844,5.8051,5.694,5.6625,5.6167,5.5243,5.3775,5.223,0.0,0.0,0.0,0.0,0.0,0.0,0.0,0.0,0.0,4.5872,4.6044,0.0,4.8051,0.0,4.9651,5.0617,5.0824,5.0651,0.0,0.0,4.9321,4.9183,4.9203,4.97,5.0168,5.0513,5.1237,5.2479,5.4547,5.4961,5.5789,5.7582,5.6409,5.5547,5.615,5.6874,5.7357,5.7391,5.7926,5.8461,5.8392,5.8012,5.746,5.6909,5.7253,5.746,5.6909,5.7253,5.746,5.6943,5.6805,5.7012,5.7529,5.7633,5.7858,5.8271,5.803,5.7874,5.8599,5.8892,5.903,6.4303,6.3626,6.3718,6.3001,6.1828,6.1624,6.1522,6.1459,6.0503,6.0084,5.9989,5.8574,5.8255,5.869,5.8568,5.8995,5.9745,5.9733,5.9894,6.021,6.059,6.1176,6.1841,6.2158,6.2506,6.2936,6.3608,6.415,6.4572,6.4547,6.4744,6.5207,6.5554,6.5707,6.5735,6.738,6.8808,7.0072,7.0567,7.0263,6.9113,6.759,6.5904,6.4018,6.2142,6.0488,5.9021,5.7483,5.6512,5.6217,5.5894,5.531,5.4354,5.2969,5.1479,0.0,0.0,0.0,0.0,0.0,0.0,0.0,0.0,0.0,0.0,0.0,4.9962,0.0,5.1099,0.0,5.1582,5.1582,5.141,5.103,5.0962,5.0996,5.0996,5.1341,5.1858,5.2548,5.2961,5.4065,5.6271,5.6616,5.7202,5.8788,5.7926,5.7271,5.7667,5.7909,5.8012,5.8357,5.872,5.8995,5.8995,5.8651,5.8254,5.7892,5.8099,5.8254,5.7874,5.8099,5.8237,5.7874,5.7754,5.7909,5.8306,5.8392,5.8547,5.8788,5.8685,5.872,5.9392,5.9788,5.9995,6.5998,6.5965,6.538,6.5165,6.5072,6.3749,6.3075,6.2829,6.1502,6.0886,6.0732,5.9532,5.9228,5.9513,5.9309,5.9663,6.0456,5.9588,5.947,6.0055,6.0055,6.0363,6.0948,6.1625,6.1933,6.1963,6.2583,6.3366,6.4223,6.4344,6.4805,6.5685,6.6402,6.6799,6.6942,6.7882,6.9234,7.1019,7.0434,6.977,6.9035,6.7505,6.561,6.3356,6.1634,5.9852,5.7921,5.6945,5.6101,5.5366,5.5262,5.5104,5.4741,5.3394,5.2272,0.0,5.0016,0.0,0.0,0.0,0.0,0.0,0.0,0.0,0.0,5.0824,5.1548,5.2306,5.2375,5.2375,5.2479,5.2513,5.2513,5.2513,5.2463,5.2513,5.2617,5.2651,5.3203,5.4616,5.4789,5.5632,5.7529,5.7909,5.8185,5.884,5.8892,5.8788,5.8892,5.8461,5.8306,5.8926,5.8995,5.8995,5.8995,5.8961,5.8961,5.8961,5.8926,5.8995,5.8926,5.8926,5.8961,5.8926,5.8892,5.8926,5.8995,5.8961,5.903,5.9185,5.9185,5.9357,5.9978,6.0565,6.1185,6.6706,6.6704,6.6581,6.6519,6.6429,6.5629,6.4645,6.3506,6.221,6.1317,6.0794,6.0547,6.0743,6.1268,6.1241,6.1637,6.2257,6.1549,6.1317,6.144,6.1409,6.1502,6.1656,6.2302,6.2583,6.2645,6.3318,6.3707,6.3896,6.451,6.4867,6.5056,6.5208,6.5723,6.6531,0.0,0.0,0.0,6.9637,6.922,6.8739,6.7105,6.5432,6.3781,6.1006,0.0,5.9103,5.7293,5.6322,5.6464,5.6149,0.0,0.0,0.0,0.0,0.0,0.0,0.0,0.0,0.0,0.0,0.0,5.2494,5.1892,5.0996,5.1548,5.2306,5.308,5.3168,5.3425,5.3996,5.4065,5.4065,5.4065,5.4065,5.4272,5.4858,5.4961,5.534,5.6219,5.6357,5.6736,5.7702,5.7909,5.8168,5.8857,5.8995,5.8995,5.8995,5.8892,5.8857,5.9012,5.903,5.8995,5.8995,5.8995,5.8995,5.8995,5.8995,5.8995,5.8995,5.8995,5.8995,5.903,5.8995,5.903,5.903,5.8995,5.9271,5.9875,5.9961,6.0013,6.0151,6.0323,6.0565,6.7873,0.0,6.7873,6.7904,0.0,6.7196,6.6491,6.5691,6.366,6.2425,6.1809,6.1809,6.1994,6.2302,6.2302,6.2487,6.2768,6.2429,6.2275,6.2302,6.2302,6.2302,6.2306,6.3349,6.3656,6.3322,6.4364,6.4703,6.4368,6.4734,6.5072,6.5411,6.5411,6.584,6.6671,6.6355,6.7097,6.8895,6.8773,6.828,6.7351,6.6577,6.4895,6.2201,0.0,0.0,0.0,0.0,0.0,0.0,0.0,0.0,0.0,0.0,0.0,5.4532,5.4099,5.372,5.3375,5.3341,5.3823,5.4977,5.5081,5.4598,5.341,5.403,5.4632,5.5012,5.5081,5.5219,5.5598,5.5632,5.5632,5.5632,5.5632,5.5805,5.6115,5.6168,5.6495,5.7185,5.734,5.7633,5.834,5.8444,5.8582,5.8926,5.8995,5.8995,5.903,5.9357,5.9599,5.9564,5.9202,5.8995,5.8995,5.8995,5.8995,5.8995,5.8995,5.8995,5.8995,5.8995,5.9116,5.9478,5.9599,5.9668,6.0047,6.0151,6.0289,6.0581,6.0383,6.0267,6.054,6.0624,6.0882,6.8982,6.8919,6.8919,6.8919,6.8858,6.8181,6.7814,6.7568,0.0,0.0,0.0,6.3506,6.3445,6.3349,6.3349,6.326,6.3168,6.3045,6.3071,6.3168,6.3195,6.3256,6.3414,6.4672,6.4949,6.4429,6.5506,6.578,6.5257,6.5257,6.5534,6.6027,6.6088,6.6334,6.6827,6.6365,6.6597,6.767,6.7707,6.7182,6.6088,6.5928,6.4289,6.0849,6.0489,5.9078,5.6542,5.6803,5.6685,5.5833,5.5985,5.6264,5.6474,5.6149,5.5808,5.5601,5.5865,5.5878,5.561,5.5724,5.6134,5.6943,5.7116,5.6805,5.5892,5.6426,5.6805,5.6805,5.6805,5.6805,5.6805,5.6805,5.6805,5.6805,5.6805,5.684,5.6978,5.6978,5.7288,5.7926,5.8116,5.8323,5.8857,5.8961,5.9081,5.9168,5.9271,5.9288,5.9409,5.9702,5.984,5.9806,5.9323,5.8995,5.8995,5.8995,5.903,5.9237,5.9133,5.903,5.9168,5.9219,5.9426,5.9737,6.0047,6.0322,6.0732,6.0642,6.0917,6.0996,6.0495,6.017,6.0844,6.0895,6.1004,6.9413,6.8919,6.8919,6.8919,6.8828,6.8152,6.7568,6.6983,6.6614,6.6427,6.6334,6.6306,6.6027,6.5472,6.5472,6.5165,6.458,6.3964,6.3998,0.0,6.4611,6.4918,6.5503,6.6273,6.6581,6.646,6.6645,6.6706,6.6614,6.6583,6.6673,6.6765,6.6765,6.6798,6.6888,6.6798,6.6568,6.622,6.6332,6.6425,6.6484,6.5148,6.387,6.262,6.0128,5.8722,5.8384,5.6991,5.5933,5.543,5.5966,5.6014,5.552,5.6757,5.6917,5.5639,5.678,5.6969,5.5654,5.6199,5.6943,5.7702,5.8306,5.8099,5.6771,5.6736,5.6805,5.6805,5.6874,5.6805,5.6805,5.684,5.6909,5.6874,5.684,5.7047,5.7667,5.7771,5.8081,5.8754,5.8823,5.8892,5.9099,5.9099,5.9375,5.9875,6.0013,6.022,6.053,5.9926,5.9237,5.9168,5.9064,5.8995,5.9168,5.903,5.9323,5.9944,5.9444,5.9254,5.965,5.9719,5.9615,5.9254,5.9649,5.9867,5.9531,5.9229,5.9614,5.9988,5.9931,6.0069,6.07,6.0313,6.0116,6.9505,6.8951,6.9289,6.9443,6.9443,6.9505,6.9166,6.8551,6.852,6.7904,6.6921,6.6891,6.6706,6.6429,6.6457,6.6304,6.5965,6.5657,6.566,6.5965,6.5996,6.615,6.6488,6.7135,6.726,6.6921,6.726,6.726,6.6921,6.6891,6.7075,6.7445,6.7812,6.7812,6.7445,6.7445,6.7106,6.6457,6.614,6.5704,6.5088,6.4513,6.3451,6.1828,6.0587,5.9436,5.8287,5.806,5.7489,5.6434,5.6637,5.6626,5.6316,5.6884,5.7018,5.6779,5.7823,5.7998,5.6851,5.6691,5.6808,5.7198,5.8307,5.8676,5.801,5.7981,5.8012,5.7995,5.7961,5.7978,5.8012,5.7961,5.8012,5.8012,5.7978,5.815,5.8444,5.8944,5.9288,5.9633,6.0013,6.0237,6.0237,6.0254,6.0358,6.0737,6.0806,6.0944,6.1289,6.0719,6.0237,6.0254,6.0254,6.0254,6.0254,6.0254,6.0254,6.0254,5.9909,5.9459,5.916,5.8915,5.8923,5.8878,5.8939,5.9024,5.9193,5.9441,5.9578,5.9704,5.9748,5.9898,6.0043,5.9509,5.912,6.9787,6.9294,6.9786,7.0061,7.0151,7.0675,7.0521,6.9905,6.9874,6.8951,6.7473,6.735,6.7289,6.7135,6.7106,6.7073,6.6891,6.6891,6.6952,6.7106,6.7289,6.7414,6.7627,6.8091,6.8089,6.7658,6.7937,6.7873,6.7412,6.735,6.7598,6.815,6.8643,6.8643,6.815,6.8091,6.775,6.6921,6.6521,6.566,6.4334,6.4088,6.308,6.1443,6.1052,6.0034,5.8233,5.8796,5.8605,5.7268,5.7309,5.7268,5.7,5.7041,5.7208,5.752,5.8395,5.8667,5.8062,5.7439,5.7072,5.7091,5.817,5.8833,5.8856,5.8898,5.9026,5.9202,5.9047,5.8961,5.8926,5.8926,5.8995,5.8995,5.9168,5.9254,5.9357,5.9978,6.0461,6.0496,6.0944,6.1254,6.1323,6.1323,6.1358,6.1496,6.1565,6.1565,6.1565,6.1423,6.1261,6.1262,6.1302,6.122,6.1271,6.0817,6.0608,6.0299,5.9691,5.9005,5.8241,5.801,5.7924,5.836,5.827,5.8469,5.9366,5.9527,5.9469,5.9439,5.9318,5.93,5.9234,5.8828,5.8367,7.0555,7.0282,7.0312,7.0526,7.0829,7.0891,7.0552,6.9967,6.9905,6.9504,6.8674,6.8705,6.8366,6.7844,6.7814,6.7535,6.7014,6.6891,6.726,6.7875,6.8427,6.9012,6.9474,6.9628,6.969,6.9474,6.9043,6.8735,6.8581,6.8643,6.8705,6.8826,6.8858,6.8858,6.8797,6.8797,6.8181,6.695,6.7445,6.7045,6.5688,6.3892,6.2813,6.2641,6.0866,5.9566,5.8787,5.8399,5.7727,5.6792,5.751,5.748,5.6589,5.7676,5.7838,5.6583,5.7826,5.8681,5.8588,5.8561,5.8375,5.8501,5.8561,5.8741,5.8741,5.8721,5.9141,5.9691,5.9392,5.9013,5.8995,5.8996,5.9047,5.9237,5.965,6.0082,6.0185,6.0737,6.1185,6.1185,6.1358,6.1323,6.139,6.1318,6.1543,6.2,6.2032,6.205,6.2014,6.1518,6.1123,6.1155,6.121,6.1284,6.1143,6.0007,5.9963,6.051,5.8763,5.7944,5.8135,5.8024,5.7727,5.7837,5.8117,5.8392,5.8514,5.8626,5.8604,5.8552,5.8501,5.845,5.8427,5.839,5.8297,7.0581,7.0158,7.0523,7.1042,7.1533,7.1564,7.1015,7.0189,7.0158,6.9726,6.8951,6.8919,6.8951,6.9014,6.8674,6.8551,6.8674,6.8674,6.8797,6.9105,6.9351,6.9628,6.9874,6.9874,6.969,6.9351,6.9413,6.9259,6.898,6.8919,6.8919,6.8919,6.8919,6.8919,6.8919,6.8919,6.8612,6.8089,6.7966,6.7414,6.6457,6.4918,6.3841,6.3291,6.184,6.0671,6.0019,5.9568,5.8702,5.7425,5.7753,5.7484,5.6467,5.7367,5.7618,5.7013,5.7534,5.7931,5.7931,5.7503,5.7238,5.7216,5.8104,5.8647,5.8668,5.9062,5.9558,5.9799,5.9334,5.8945,5.8945,5.8927,5.933,6.0095,6.0224,6.0269,6.0805,6.1512,6.2013,6.2048,6.2393,6.238,6.1919,6.139,6.1253,6.1537,6.159,6.1616,6.1537,6.122,6.106,6.0973,6.1051,6.1074,6.1012,6.0609,6.0251,6.0071,5.9385,5.8766,5.7847,5.7777,5.7501,5.7419,5.7473,5.7592,5.769,5.7707,5.771,5.776,5.8108,5.8297,5.8297,5.8297,5.8297,7.0693,7.0455,7.0973,7.1522,7.1977,7.1795,7.1192,7.0312,7.0099,6.9517,6.8686,6.8808,6.9328,6.9909,6.9444,6.9443,6.9874,7.009,7.0182,7.0182,7.0367,7.0367,7.0213,7.0398,7.009,6.9566,6.9751,6.9536,6.898,6.8919,6.8919,6.8919,6.8919,6.8919,6.8919,6.8919,6.8797,6.8581,6.8304,6.7781,6.6919,6.5965,6.4949,6.3814,6.2517,6.1502,6.0824,6.0352,5.9537,5.8289,5.8062,5.7684,5.7105,5.7388,5.7591,5.7656,5.7656,5.7656,5.7656,5.7106,5.678,5.6857,5.7916,5.8494,5.8603,5.9058,5.9247,5.9037,5.892,5.8786,5.8858,5.8858,5.9359,6.0406,6.0125,6.0222,6.078,6.1593,6.1999,6.2123,6.2259,6.2649,6.1989,6.1306,6.0978,6.0957,6.0949,6.092,6.0837,6.072,6.0544,6.0522,6.0374,6.0384,6.0733,6.0295,6.0112,5.9748,5.9207,5.8083,5.7431,5.7292,5.7259,5.7091,5.6661,5.6834,5.7634,5.767,5.7507,5.7611,5.7895,5.8297,5.8297,5.8297,5.8297,7.1055,7.1347,7.1789,7.1915,7.1947,7.1309,7.0642,6.9943,6.9367,6.8668,6.8211,6.8668,6.9489,7.0343,6.9972,6.9874,7.0028,7.0582,7.0859,7.0921,7.1506,7.1505,7.0952,7.1567,7.1505,7.0644,7.0151,6.9597,6.8949,6.8919,6.8919,6.8919,6.8919,6.8919,6.8919,6.8919,6.8581,6.8181,6.852,6.8212,6.7075,6.6829,6.5783,6.3998,6.2548,6.1563,6.0886,6.0204,5.9597,5.9136,5.8503,5.8221,5.8314,5.8076,5.8024,5.824,5.8231,5.8263,5.8254,5.8154,5.8076,5.8162,5.8223,5.8318,5.8346,5.8428,5.8273,5.7444,5.8151,5.8477,5.8637,5.8621,5.8708,5.898,5.9477,5.9755,5.9936,6.0691,6.0965,6.1027,6.1122,6.1127,6.0982,6.0941,6.0712,6.0691,6.0795,6.0754,6.0544,6.0086,5.9718,5.9499,5.9199,5.9008,6.0309,5.9878,5.9296,5.9069,5.8267,5.6902,5.6819,5.6834,5.6938,5.7033,5.7137,5.7453,5.8013,5.8203,5.8139,5.8139,5.8108,5.8297,5.8297,5.8297,5.8424,7.0954,7.1113,7.1242,7.1275,7.1214,7.0615,7.0079,6.9572,6.8938,6.8455,6.8152,6.8638,6.9123,6.9519,7.0251,7.0802,7.1259,7.1505,7.1629,7.1629,7.1875,7.1844,7.169,7.1875,7.1598,7.0952,7.0644,6.9967,6.8982,6.8919,6.8919,6.8919,6.8919,6.8919,6.8919,6.8919,6.8795,6.8581,6.8797,6.8458,6.7568,6.7106,6.6306,6.5165,6.3352,6.2333,6.206,6.104,6.0168,5.9591,5.9494,5.9303,5.896,5.8669,5.8869,5.9388,5.8772,5.8487,5.8835,5.855,5.8297,5.8297,5.8297,5.8297,5.8297,5.8297,5.8171,5.7955,5.767,5.7872,5.8245,5.8096,5.8117,5.8652,5.8938,5.9273,5.9849,6.049,6.092,6.0816,6.0459,6.0086,5.9979,5.9587,5.9244,5.9222,5.9244,5.9288,5.9222,5.894,5.8805,5.8737,5.8518,5.8527,5.9008,5.887,5.8505,5.8523,5.8083,5.7856,5.7697,5.7634,5.7728,5.7665,5.7769,5.7832,5.8266,5.8266,5.8297,5.8297,5.8297,5.8297,5.8297,5.8582,5.878,7.0919,7.0919,7.0919,7.0919,7.0829,7.0231,6.9699,6.9258,6.8839,6.8421,6.8182,6.8877,6.9301,6.9575,7.0543,7.1404,7.1966,7.2121,7.2213,7.2337,7.2337,7.2183,7.206,7.2214,7.1937,7.129,7.0982,7.0305,6.9319,6.9011,6.8919,6.8919,6.8919,6.8919,6.8919,6.8919,6.8919,6.8919,6.8919,6.8643,6.8181,6.7596,6.6919,6.6088,6.4426,6.3229,6.2798,6.1717,6.0794,6.0234,6.011,5.9829,5.9272,5.9142,5.9417,5.9972,5.942,5.9151,5.9444,5.9025,5.8645,5.8614,5.8424,5.8297,5.8297,5.8297,5.8297,5.8171,5.7918,5.7737,5.7756,5.7592,5.7711,5.8416,5.8572,5.8733,5.9283,5.9771,5.9957,5.9914,5.9499,5.9222,5.9142,5.8678,5.8404,5.8297,5.8297,5.8297,5.8297,5.8297,5.8297,5.8297,5.8344,5.8321,5.8541,5.8446,5.8346,5.8309,5.8341,5.8312,5.8297,5.8297,5.8297,5.8297,5.8297,5.8297,5.8297,5.8297,5.8297,5.8297,5.8329,5.8361,5.8614,5.897,5.9222,7.0919,7.0889,7.0889,7.0859,7.0799,7.0141,6.9542,6.9125,6.9005,6.8649,6.8322,6.9366,7.0006,7.0499,7.0951,7.1567,7.1918,7.2203,7.2517,7.2829,7.286,7.2583,7.2152,7.2645,7.2491,7.1782,7.1167,7.049,6.972,6.9166,6.8919,6.8919,6.8919,6.8919,6.8919,6.8919,6.8919,6.8919,6.8919,6.8888,6.8797,6.812,6.7414,6.6796,6.5472,6.4149,6.2891,6.2148,6.1409,6.0763,6.0178,5.9653,5.947,5.9501,5.9715,6.0069,6.0153,6.021,6.0234,5.9633,5.9191,5.9096,5.8654,5.8297,5.8297,5.8297,5.8297,5.8266,5.8171,5.8013,5.743,5.7268,5.7444,5.8122,5.8155,5.8264,5.8314,5.8326,5.8344,5.8473,5.845,5.8344,5.8344,5.8344,5.8297,5.8297,5.8297,5.8297,5.8297,5.8297,5.8297,5.8297,5.8297,5.8297,5.8297,5.8297,5.8289,5.8289,5.8289,5.8297,5.8297,5.8297,5.8297,5.8297,5.8297,5.8297,5.8297,5.8297,5.8297,5.8297,5.8361,5.8456,5.8708,5.9064,5.9633,7.0919,7.0829,7.044,7.053,7.0739,6.9752,6.9393,6.9602,6.9213,6.8884,6.8854,6.9634,7.0055,7.0301,7.0781,7.1275,7.1564,7.1724,7.2073,7.2546,7.2671,7.2673,7.2706,7.286,7.2368,7.129,7.0521,6.9874,6.9351,6.9073,6.8919,6.8919,6.8949,6.8919,6.8919,6.8919,6.8919,6.8919,6.8919,6.8919,6.8766,6.7812,6.7106,6.6796,6.5626,6.4426,6.3506,6.2425,6.1502,6.0855,6.0609,6.0522,6.0504,6.0197,6.0416,6.1126,6.0463,6.0389,6.081,5.9957,5.9294,5.9191,5.8654,5.8329,5.8297,5.8297,5.8297,5.8234,5.7864,5.7579,5.78,5.7484,5.7231,5.6906,5.7231,5.7642,5.7737,5.8045,5.8266,5.8297,5.8297,5.8297,5.8297,5.8297,5.8297,5.8297,5.8297,5.8297,5.8297,5.8297,5.8297,5.8297,5.8297,5.8297,5.8297,5.8297,5.8297,5.8297,5.8297,5.8297,5.8297,5.8297,5.8297,5.8297,5.8297,5.8297,5.8297,5.8297,5.8297,5.8329,5.8361,5.8519,5.8677,5.9246,6.0012,7.0919,7.0859,7.05,7.053,7.0829,7.0021,6.9782,6.9961,6.9812,6.9572,6.9542,7.0051,7.032,7.0442,7.0739,7.1018,7.121,7.1212,7.1532,7.2073,7.2421,7.264,7.2827,7.2952,7.2645,7.1721,7.1013,7.0489,7.0028,6.9751,6.9536,6.932,6.9288,6.9135,6.8949,6.8919,6.8919,6.8919,6.8919,6.8919,6.8674,6.7843,6.7137,6.6798,6.5842,6.4798,6.3845,6.2952,6.2117,6.1317,6.0948,6.0897,6.0995,6.0752,6.0924,6.1333,6.1039,6.0749,6.0952,6.0016,5.9286,5.9026,5.8499,5.8159,5.8182,5.8228,5.8297,5.8203,5.795,5.78,5.8139,5.7927,5.7421,5.7064,5.739,5.7611,5.7706,5.799,5.8266,5.8297,5.8297,5.8297,5.8297,5.8297,5.8297,5.8297,5.8297,5.8297,5.8297,5.8297,5.8297,5.8297,5.8297,5.8297,5.8297,5.8297,5.8297,5.8297,5.8297,5.8297,5.8297,5.8297,5.8297,5.8297,5.8297,5.8297,5.8297,5.8297,5.8297,5.8329,5.8519,5.8961,5.9404,6.0131,6.0803,7.0919,7.0919,7.0859,7.0829,7.0889,7.0739,7.044,7.0201,7.059,7.044,7.0141,7.053,7.0799,7.0799,7.0829,7.0919,7.0919,7.0921,7.1083,7.1532,7.201,7.2389,7.2546,7.2736,7.2737,7.2614,7.2029,7.1752,7.1444,7.0828,7.0551,6.9997,6.9751,6.9566,6.9105,6.898,6.8919,6.8919,6.8919,6.8919,6.8858,6.8243,6.7537,6.6921,6.6211,6.5226,6.4122,6.3691,6.3075,6.1963,6.1286,6.0948,6.0938,6.1057,6.1124,6.1257,6.143,6.1177,6.0671,6.0152,5.9503,5.9051,5.8538,5.7997,5.8185,5.842,5.8514,5.8506,5.8363,5.8314,5.8378,5.8243,5.8203,5.8234,5.8139,5.8171,5.8266,5.8297,5.8297,5.8297,5.8297,5.8297,5.8297,5.8297,5.8297,5.8297,5.8297,5.8297,5.8297,5.8297,5.8297,5.8297,5.8297,5.8297,5.8297,5.8297,5.8297,5.8297,5.8297,5.8297,5.8297,5.8297,5.8297,5.8297,5.8297,5.8297,5.8297,5.8297,5.8424,5.8614,5.897,5.957,6.0044,6.0518,6.0803,7.0919,7.0859,7.041,7.05,7.0799,7.044,7.041,7.0649,7.0799,7.056,7.0263,7.062,7.0679,7.0352,7.0739,7.0919,7.0919,7.0919,7.0951,7.1051,7.1468,7.201,7.233,7.2336,7.2275,7.2214,7.1721,7.1198,7.1136,7.0705,7.0398,7.0582,6.972,6.9382,6.9505,6.9134,6.8949,6.8919,6.8919,6.8919,6.8797,6.8274,6.7568,6.6919,6.6273,6.5503,6.4641,6.406,6.3445,6.2583,6.1875,6.1532,6.1471,6.1149,6.1,6.1155,6.1231,6.1317,6.1189,6.0652,6.0216,6.0054,5.9298,5.909,5.9065,5.9138,5.9186,5.9116,5.8978,5.8688,5.8672,5.8466,5.8306,5.8297,5.8297,5.8297,5.8297,5.8297,5.8297,5.8297,5.8297,5.8297,5.8297,5.8297,5.8297,5.8297,5.8297,5.8297,5.8297,5.8297,5.8297,5.8297,5.8297,5.8297,5.8297,5.8297,5.8297,5.8297,5.8297,5.8297,5.8297,5.8297,5.8297,5.8297,5.8297,5.8297,5.8297,5.8297,5.855,5.8685,5.8875,5.9183,5.9696,6.017,6.0234,7.0919,7.0889,7.05,7.056,7.0859,7.053,7.056,7.0859,7.0889,7.0739,7.05,7.0709,7.0709,7.044,7.0739,7.0919,7.0919,7.0919,7.0919,7.0954,7.1275,7.1756,7.214,7.218,7.2213,7.2213,7.1937,7.1844,7.1783,7.1352,7.1136,7.0798,7.012,6.969,6.9351,6.9165,6.8919,6.8919,6.8919,6.8919,6.8888,6.8274,6.7568,6.6919,6.6273,6.5596,6.4918,6.4487,6.3814,6.2891,6.2183,6.1783,6.1748,6.1163,6.0902,6.1026,6.1026,6.101,6.0797,6.0476,6.0166,5.988,5.947,5.942,5.9376,5.9425,5.9468,5.9048,5.8857,5.8663,5.8491,5.8356,5.8464,5.8654,5.8487,5.8297,5.8297,5.8297,5.8297,5.8297,5.8297,5.8297,5.8297,5.8297,5.8297,5.8297,5.8297,5.8297,5.8297,5.8297,5.8297,5.8297,5.8297,5.8297,5.8297,5.8297,5.8297,5.8297,5.8297,5.8297,5.8297,5.8297,5.8297,5.8297,5.8297,5.8297,5.8297,5.8297,5.8392,5.8519,5.8582,5.893,5.9507,5.9728,5.9791,7.0919,7.0919,7.0919,7.0919,7.0919,7.0889,7.0859,7.0889,7.0919,7.0829,7.0739,7.0859,7.0799,7.0829,7.0799,7.0919,7.0919,7.0919,7.0919,7.0984,7.121,7.1532,7.1787,7.2296,7.2423,7.2486,7.2828,7.286,7.2675,7.2737,7.2214,7.1352,7.0952,7.0213,6.9505,6.9074,6.8919,6.8919,6.8919,6.8919,6.8766,6.8243,6.7568,6.6919,6.6057,6.5472,6.5042,6.4764,6.4334,6.3075,6.2394,6.2152,6.2025,6.1409,6.1071,6.1035,6.103,6.0661,6.0204,6.0193,5.9798,5.9448,5.9469,5.9384,5.9532,5.9694,5.9545,5.8985,5.864,5.8503,5.8217,5.8278,5.8781,5.912,5.8797,5.8456,5.8392,5.8329,5.8297,5.8297,5.8297,5.8297,5.8297,5.8297,5.8297,5.8297,5.8297,5.8297,5.8297,5.8297,5.8297,5.8297,5.8297,5.8297,5.8297,5.8297,5.8297,5.8297,5.8297,5.8297,5.8297,5.8297,5.8297,5.8297,5.8297,5.8297,5.8297,5.8297,5.8361,5.8519,5.8708,5.9033,5.9412,5.9404,5.9436,7.0919,7.0919,7.0919,7.0919,7.0919,7.0919,7.0919,7.0919,7.0919,7.0649,7.038,7.0679,7.0649,7.026,7.0709,7.0919,7.0919,7.0919,7.0919,7.0919,7.0951,7.1048,7.1339,7.201,7.2452,7.2546,7.2797,7.2983,7.2922,7.2614,7.2337,7.2337,7.0921,7.0213,7.0274,6.9319,6.8919,6.8919,6.8919,6.8919,6.8797,6.8304,6.7598,6.6888,6.578,6.5134,6.4949,6.4888,6.4734,6.4337,6.3752,6.3291,6.3045,6.2152,6.1809,6.1871,6.1286,6.0978,6.1163,6.0794,6.0517,6.0296,6.0255,6.0465,6.0465,6.0424,6.0141,5.961,5.926,5.886,5.8573,5.9094,5.9465,5.9576,5.9365,5.9041,5.897,5.859,5.8329,5.8297,5.8297,5.8297,5.8297,5.8297,5.8297,5.8297,5.8297,5.8297,5.8297,5.8297,5.8297,5.8297,5.8297,5.8297,5.8297,5.8297,5.8297,5.8297,5.8297,5.8297,5.8297,5.8297,5.8297,5.8297,5.8297,5.8297,5.8297,5.8329,5.8361,5.8614,5.8803,5.9056,5.9183,5.9119,5.9025,7.0739,7.053,7.0769,7.0739,7.056,7.0769,7.0919,7.0919,7.0919,7.0739,7.053,7.0799,7.0709,7.044,7.0739,7.0919,7.0919,7.0919,7.0919,7.0919,7.0919,7.0919,7.1016,7.1596,7.2042,7.2294,7.2765,7.2983,7.286,7.2676,7.2522,7.246,7.1044,7.0398,7.0305,6.9442,6.898,6.8919,6.8919,6.8919,6.8797,6.8581,6.7843,6.6858,6.5657,6.4888,6.4888,6.4888,6.4888,6.4795,6.4518,6.4122,6.3722,6.2829,6.2425,6.2148,6.1809,6.1225,6.1255,6.104,6.0763,6.0794,6.0794,6.0794,6.0794,6.0794,6.0455,5.9927,5.9591,5.9396,5.9333,5.936,5.9795,6.0087,5.9842,5.9483,5.9121,5.8615,5.8297,5.8297,5.8297,5.8297,5.8297,5.8297,5.8297,5.8297,5.8297,5.8297,5.8297,5.8297,5.8297,5.8297,5.8297,5.8297,5.8297,5.8297,5.8297,5.8297,5.8297,5.8297,5.8297,5.8297,5.8297,5.8297,5.8297,5.8297,5.8297,5.8329,5.8329,5.8424,5.8614,5.8835,5.8898,5.874,5.8645,7.044,7.0053,7.044,7.035,7.0111,7.053,7.0799,7.0919,7.0919,7.0889,7.0889,7.0919,7.0859,7.0859,7.0709,7.0769,7.0769,7.0919,7.0919,7.0919,7.0919,7.0919,7.1016,7.1307,7.1628,7.1977,7.2577,7.2859,7.289,7.2952,7.2737,7.2152,7.129,7.0675,7.0059,6.9289,6.8919,6.8919,6.8919,6.8919,6.8828,6.8674,6.7935,6.6704,6.5811,6.5165,6.5103,6.5011,6.4949,6.5042,6.4949,6.4552,6.3998,6.3322,6.2737,6.2152,6.1937,6.1563,6.1225,6.0948,6.0794,6.0794,6.0794,6.0794,6.0794,6.0732,6.0455,6.0055,5.9762,5.9812,6.0077,6.011,6.0179,6.0465,6.0288,5.9833,5.9301,5.8774,5.8527,5.8297,5.8297,5.8297,5.8297,5.8297,5.8297,5.8297,5.8297,5.8297,5.8297,5.8297,5.8297,5.8297,5.8297,5.8297,5.8297,5.8297,5.8297,5.8297,5.8297,5.8297,5.8297,5.8297,5.8297,5.8297,5.8297,5.8297,5.8297,5.8297,5.8297,5.8297,5.8361,5.855,5.8487,5.8329,5.8329,7.0113,6.9963,6.9482,6.9572,6.9961,7.0111,7.047,7.0859,7.0919,7.0919,7.0919,7.0919,7.0919,7.0799,7.032,7.0141,7.032,7.0649,7.0919,7.0919,7.0919,7.0919,7.0984,7.1148,7.1403,7.166,7.2168,7.2515,7.2671,7.2828,7.2767,7.2521,7.1506,7.0767,7.0305,6.9597,6.8919,6.8919,6.8919,6.8919,6.8797,6.8274,6.7537,6.6337,6.575,6.5565,6.5503,6.5195,6.5134,6.5596,6.5195,6.4888,6.4549,6.3995,6.3568,6.3195,6.2368,6.1809,6.1532,6.1071,6.0855,6.0794,6.0794,6.0794,6.0794,6.0763,6.0517,6.0116,5.987,5.989,5.9885,6.033,6.0859,6.1043,6.0827,6.0617,6.0289,5.9585,5.8742,5.8277,5.826,5.8274,5.8251,5.8251,5.8297,5.8297,5.8297,5.8297,5.8297,5.8297,5.8297,5.8297,5.8297,5.8297,5.8297,5.8297,5.8297,5.8297,5.8297,5.8297,5.8297,5.8297,5.8297,5.8297,5.8297,5.8297,5.8297,5.8297,5.8297,5.8297,5.8297,5.8297,5.8297,5.8297,5.8297,6.7347,6.6832,6.7513,6.8009,6.8525,6.9555,7.0352,7.0859,7.0919,7.0919,7.0919,7.0919,7.0919,7.0739,7.026,7.0023,7.0143,7.062,7.0889,7.0919,7.0919,7.0919,7.0919,7.1051,7.1145,7.1307,7.1692,7.2042,7.2262,7.2577,7.2519,7.2029,7.126,7.0736,7.0244,6.9413,6.898,6.8919,6.8919,6.8919,6.8797,6.7997,6.6983,6.6491,6.575,6.5411,6.5319,6.5134,6.5042,6.5226,6.5072,6.4949,6.4795,6.458,6.421,6.3722,6.286,6.2117,6.1779,6.1194,6.0824,6.0794,6.0794,6.0794,6.0794,6.0763,6.064,6.0424,6.0301,6.0301,6.0388,6.0738,6.0944,6.0928,6.0794,6.0497,6.0065,5.9391,5.879,5.8248,5.8253,5.8245,5.8112,5.8159,5.8274,5.8297,5.8297,5.8297,5.8297,5.8297,5.8297,5.8297,5.8297,5.8297,5.8297,5.8297,5.8297,5.8297,5.8297,5.8297,5.8297,5.8297,5.8297,5.8297,5.8297,5.8297,5.8297,5.8297,5.8297,5.8297,5.8297,5.8297,5.8297,5.8297,5.8297,6.464,6.384,6.5445,6.6256,6.6718,6.8605,6.9838,7.0441,7.0791,7.0919,7.0919,7.0919,7.0919,7.0769,7.044,7.0113,6.9931,7.05,7.0889,7.0919,7.0919,7.0919,7.0919,7.0919,7.0951,7.1016,7.121,7.15,7.1821,7.2017,7.1808,7.1382,7.0893,7.0369,6.9724,6.9229,6.8982,6.8919,6.8919,6.8919,6.8612,6.7904,6.7227,6.7014,6.5965,6.5411,6.5534,6.5072,6.5072,6.5103,6.5042,6.4888,6.4888,6.4888,6.4641,6.4029,6.3383,6.2645,6.1902,6.1409,6.104,6.0824,6.0794,6.0794,6.0794,6.0794,6.0763,6.0794,6.0763,6.0732,6.0701,6.0763,6.082,6.0779,6.0588,6.027,5.9967,5.9525,5.9048,5.8623,5.8405,5.8192,5.809,5.8159,5.8274,5.8297,5.8297,5.8297,5.8297,5.8297,5.8297,5.8297,5.8297,5.8297,5.8297,5.8297,5.8297,5.8297,5.8297,5.8297,5.8297,5.8297,5.8297,5.8297,5.8297,5.8297,5.8297,5.8297,5.8297,5.8297,5.8297,5.8297,5.8297,5.8297,5.8297,6.3852,6.3678,6.3891,6.4325,6.5159,6.7098,6.8369,6.9057,7.0173,7.0886,7.0694,7.0824,7.0791,7.0739,7.0709,7.0081,6.9722,7.026,7.0799,7.0769,7.0859,7.0919,7.0919,7.0919,7.0919,7.0919,7.0954,7.1178,7.1319,7.1276,7.116,7.0827,7.0129,6.9486,6.9362,6.9048,6.892,6.8919,6.8919,6.8919,6.8828,6.8612,6.8212,6.7689,6.6952,6.6396,6.615,6.5472,6.5103,6.5534,6.5165,6.4918,6.4888,6.4888,6.4888,6.4611,6.4029,6.3137,6.2152,6.1809,6.1502,6.1163,6.0978,6.0824,6.0886,6.0824,6.0794,6.0794,6.0794,6.0794,6.0794,6.0794,6.0794,6.081,6.0753,6.0788,6.0617,5.9563,5.9098,5.8823,5.8558,5.8256,5.8044,5.8184,5.8297,5.8297,5.8297,5.8297,5.8297,5.8297,5.8297,5.8297,5.8297,5.8297,5.8297,5.8297,5.8297,5.8297,5.8297,5.8297,5.8297,5.8297,5.8297,5.8297,5.8297,5.8297,5.8297,5.8297,5.8297,5.8297,5.8297,5.8297,5.8297,5.8297,5.8297,6.0974,6.1341,6.2103,6.2963,6.4033,6.5724,6.6794,6.7416,6.8043,6.8851,6.9549,6.9682,6.969,6.9737,6.9812,6.9303,6.8854,6.9782,7.038,7.053,7.0709,7.0889,7.0919,7.0919,7.0919,7.0919,7.0859,7.0684,7.0731,7.0653,7.0541,7.0029,6.9641,6.9211,6.8907,6.8896,6.8891,6.8919,6.8919,6.8919,6.8797,6.8551,6.8212,6.7904,6.6891,6.6488,6.6119,6.5503,6.5042,6.5288,6.498,6.4918,6.4888,6.4888,6.4888,6.4857,6.4641,6.3964,6.3106,6.261,6.221,6.1998,6.1871,6.1809,6.144,6.1009,6.0794,6.0794,6.0794,6.0794,6.0794,6.0794,6.0794,6.0784,6.0707,6.0578,6.0444,5.9846,5.9154,5.8944,5.867,5.8273,5.8005,5.8145,5.8205,5.8251,5.8274,5.8297,5.8297,5.8297,5.8297,5.8297,5.8297,5.8297,5.8297,5.8297,5.8297,5.8297,5.8297,5.8297,5.8297,5.8297,5.8297,5.8297,5.8297,5.8297,5.8297,5.8297,5.8297,5.8297,5.8297,5.8297,5.8297,5.8297,5.8297,5.8862,5.9503,6.0678,6.1701,6.2723,6.4425,6.5439,6.5864,6.6384,6.7088,6.7815,6.8012,6.8052,6.824,6.8345,6.8262,6.8167,6.9213,6.9784,7.0143,7.041,7.0709,7.0859,7.0919,7.0919,7.0919,7.0919,7.0622,7.0237,7.0006,6.9712,6.905,6.8819,6.8606,6.8421,6.8535,6.8772,6.8919,6.8919,6.8919,6.8828,6.8458,6.8152,6.7629,6.6888,6.6088,6.5842,6.5257,6.4949,6.4918,6.4949,6.4888,6.4888,6.4888,6.4888,6.4888,6.4795,6.4611,6.3964,6.3472,6.3045,6.2798,6.2579,6.2086,6.1779,6.1194,6.0794,6.0794,6.0794,6.0794,6.0794,6.0794,6.0794,6.064,6.0481,6.0178,5.9957,5.9633,5.9221,5.8863,5.8529,5.8069,5.7923,5.8036,5.8144,5.8182,5.8251,5.8297,5.8297,5.8297,5.8297,5.8297,5.8297,5.8297,5.8297,5.8297,5.8297,5.8297,5.8297,5.8297,5.8297,5.8297,5.8297,5.8297,5.8297,5.8297,5.8297,5.8297,5.8297,5.8297,5.8297,5.8297,5.8297,5.8297,5.8297,5.8836,5.9447,6.0079,6.0414,6.0733,6.3207,6.4292,6.4455,6.5715,6.6251,6.6391,6.6154,6.6122,6.6335,6.6912,6.7334,6.7986,6.8734,6.9273,6.9754,7.0113,7.041,7.0649,7.0829,7.0919,7.0889,7.0769,7.044,6.9931,6.9306,6.8799,6.8171,6.806,6.7729,6.7789,6.8209,6.8565,6.8742,6.8801,6.886,6.886,6.8705,6.8489,6.7906,6.7229,6.6581,6.5906,6.5288,6.4888,6.4888,6.4888,6.4888,6.4888,6.4888,6.4888,6.4888,6.4888,6.4795,6.4518,6.4118,6.3475,6.286,6.2456,6.2271,6.2148,6.1286,6.0886,6.0886,6.0886,6.0794,6.0794,6.0794,6.0794,6.0732,6.0547,6.0424,6.0178,5.9896,5.9484,5.8924,5.8418,5.7991,5.7766,5.7917,5.8209,5.8302,5.8481,5.8582,5.8329,5.8297,5.8297,5.8297,5.8297,5.8297,5.8297,5.8297,5.8297,5.8297,5.8297,5.8297,5.8297,5.8297,5.8297,5.8297,5.8297,5.8297,5.8297,5.8297,5.8297,5.8297,5.8297,5.8297,5.8297,5.8297,5.8297,5.8627,5.8915,5.983,6.0394,6.086,6.2249,6.2852,6.2927,6.3426,6.4029,6.4477,6.4839,6.5331,6.5691,6.5644,6.6314,6.7354,6.8076,6.8494,6.9035,6.9514,7.0083,7.041,7.0709,7.0919,7.0799,7.053,6.9961,6.9333,6.8824,6.8046,6.7571,6.7485,6.7517,6.7699,6.7879,6.8179,6.8358,6.8506,6.8595,6.8623,6.88,6.8766,6.852,6.7381,6.6888,6.6398,6.5442,6.5072,6.4888,6.4888,6.4888,6.4888,6.4888,6.4888,6.4888,6.4888,6.4888,6.4888,6.4641,6.4364,6.4087,6.3502,6.2983,6.2825,6.2025,6.1532,6.1317,6.1009,6.0794,6.0794,6.0794,6.0794,6.0794,6.0732,6.0635,6.0388,6.005,5.9557,5.8905,5.8467,5.8054,5.7861,5.7745,5.8081,5.8421,5.8656,5.8772,5.8487,5.8297,5.8297,5.8297,5.8297,5.8297,5.8297,5.8297,5.8297,5.8297,5.8297,5.8297,5.8297,5.8297,5.8297,5.8297,5.8297,5.8297,5.8297,5.8297,5.8297,5.8297,5.8297,5.8297,5.8297,5.8297,5.8297,5.8345,5.8449,5.9532,6.0326,6.089,6.1659,6.201,6.1984,6.1839,6.1769,6.2194,6.2835,6.3508,6.3957,6.3883,6.4332,6.5499,6.6483,6.7091,6.7844,6.8778,6.9658,7.0141,7.05,7.0799,7.062,7.041,6.9931,6.9064,6.8525,6.8046,6.763,6.7303,6.7304,6.7426,6.7669,6.788,6.806,6.8238,6.8386,6.8446,6.8713,6.8458,6.8243,6.7289,6.6581,6.6088,6.5288,6.498,6.4888,6.4888,6.4888,6.4888,6.4888,6.4888,6.4918,6.4918,6.4918,6.4888,6.4888,6.4888,6.4641,6.4087,6.3783,6.3506,6.2641,6.1752,6.166,6.1194,6.0794,6.0794,6.0794,6.0794,6.0794,6.0794,6.0671,6.0393,6.0055,5.947,5.8879,5.8535,5.8196,5.7733,5.7563,5.7954,5.8201,5.8256,5.8434,5.8424,5.8297,5.8297,5.8297,5.8297,5.8297,5.8297,5.8297,5.8297,5.8297,5.8297,5.8297,5.8297,5.8297,5.8297,5.8297,5.8297,5.8297,5.8297,5.8297,5.8297,5.8297,5.8297,5.8297,5.8297,5.8297,5.8297,5.7927,5.8041,5.9007,5.9725,6.0316,6.1476,6.1932,6.1711,6.1319,6.0645,5.9971,6.0011,6.0418,6.105,6.143,6.2281,6.3529,6.4615,6.542,6.6417,6.7796,6.908,6.9871,7.029,7.047,7.026,7.0111,6.9782,6.8884,6.8525,6.8196,6.7808,6.73,6.7091,6.703,6.7365,6.7669,6.7939,6.8209,6.8298,6.8327,6.8533,6.8007,6.751,6.6864,6.6188,6.5626,6.5165,6.4918,6.4888,6.4888,6.4949,6.5072,6.5042,6.5072,6.5134,6.5042,6.4949,6.4888,6.4888,6.4888,6.4857,6.4334,6.3968,6.3568,6.2706,6.184,6.1783,6.1194,6.0855,6.0794,6.0794,6.0794,6.0794,6.0794,6.0609,6.0301,6.0055,5.947,5.8726,5.8572,5.8412,5.7777,5.7452,5.782,5.7957,5.7927,5.8019,5.8182,5.8297,5.8274,5.8228,5.8228,5.8297,5.8297,5.8297,5.8297,5.8297,5.8297,5.8297,5.8297,5.8297,5.8297,5.8297,5.8297,5.8297,5.8297,5.8297,5.8297,5.8297,5.8297,5.8297,5.8297,5.8297,5.8297,5.7559,5.7647,5.8621,5.9103,5.9425,6.0347,6.0823,6.0771,6.0561,6.0091,5.9526,5.9395,5.9846,6.0369,6.0654,6.1267,6.2608,6.3037,6.4014,6.5257,6.6472,6.7593,6.8598,6.9502,6.9837,6.9542,6.9542,6.9333,6.8317,6.8106,6.7687,6.7238,6.7178,6.7029,6.7029,6.7152,6.7274,6.7365,6.7578,6.7789,6.7789,6.7693,6.7501,6.7095,6.6388,6.577,6.5358,6.5048,6.4891,6.4891,6.4891,6.5134,6.5442,6.5534,6.575,6.5903,6.5873,6.5319,6.5072,6.4888,6.4888,6.4795,6.4672,6.4272,6.3783,6.3014,6.2337,6.1809,6.1286,6.0948,6.0794,6.0794,6.0794,6.0794,6.0701,6.0424,6.0147,5.9932,5.947,5.8541,5.8048,5.7986,5.7543,5.7492,5.7783,5.7923,5.7895,5.7927,5.8059,5.8182,5.8251,5.8159,5.8136,5.8251,5.8297,5.8297,5.8297,5.8297,5.8297,5.8297,5.8297,5.8297,5.8297,5.8297,5.8297,5.8297,5.8297,5.8297,5.8297,5.8297,5.8297,5.8297,5.8297,5.8297,5.8297,5.7199,5.7286,5.7981,5.8363,5.8673,5.97,6.0117,5.996,5.9908,5.9594,5.915,5.9081,5.9298,5.9753,5.9985,6.02,6.1335,6.1908,6.2242,6.3582,6.4708,6.5935,6.7238,6.8375,6.8649,6.8665,6.8854,6.8675,6.8107,6.7598,6.7329,6.7119,6.6999,6.6999,6.6999,6.7029,6.7029,6.7182,6.7366,6.7397,6.7245,6.7062,6.6872,6.635,6.5796,6.5242,6.5136,6.4942,6.4749,6.478,6.5051,6.5383,6.5811,6.618,6.6304,6.6365,6.5934,6.5349,6.5011,6.4888,6.4888,6.4888,6.4888,6.4672,6.4152,6.3537,6.286,6.224,6.1471,6.1071,6.0824,6.0824,6.0794,6.0794,6.0701,6.0424,6.0363,6.0147,5.9865,5.8849,5.8479,5.8171,5.7703,5.7635,5.7788,5.7845,5.7899,5.7879,5.7911,5.8004,5.8112,5.8019,5.8066,5.8205,5.8274,5.8297,5.8297,5.8297,5.8274,5.8251,5.8297,5.8297,5.8297,5.8297,5.8297,5.8297,5.8297,5.8297,5.8297,5.8297,5.8297,5.8297,5.8297,5.8297,5.8297,5.675,5.6787,5.7174,5.7533,5.8073,5.9341,5.9767,5.9369,5.9369,5.9045,5.8549,5.8575,5.8691,5.8594,5.8594,5.8779,5.907,6.0096,6.0688,6.1512,6.3118,6.4569,6.5864,6.6879,6.768,6.8187,6.8407,6.8405,6.7987,6.7658,6.7358,6.7119,6.6999,6.6999,6.6999,6.6849,6.6819,6.6851,6.6973,6.6824,6.6462,6.6429,6.6001,6.5452,6.4934,6.4596,6.4464,6.4361,6.4412,6.4677,6.5185,6.5604,6.606,6.6521,6.6365,6.6027,6.5442,6.5165,6.4888,6.4888,6.4734,6.4641,6.4611,6.4734,6.4364,6.3568,6.2768,6.2245,6.1594,6.1225,6.0917,6.0855,6.0794,6.0794,6.0794,6.0701,6.0732,6.0547,6.0296,5.9927,5.9896,5.9526,5.8726,5.8442,5.7906,5.7596,5.7635,5.7738,5.7736,5.777,5.7856,5.7801,5.7871,5.8159,5.8205,5.8081,5.8058,5.7988,5.8182,5.8182,5.8251,5.8274,5.8297,5.8297,5.8297,5.8297,5.8297,5.8297,5.8297,5.8297,5.8297,5.8297,5.8297,5.8297,5.8297,5.5217,5.5339,5.6076,5.6443,5.675,5.8001,5.8638,5.8758,5.8758,5.8627,5.8523,5.8523,5.8497,5.8523,5.8523,5.8497,5.8638,5.9,5.9785,6.0797,6.1961,6.3687,6.5116,6.6329,6.7158,6.7531,6.7745,6.7863,6.7418,6.7298,6.7298,6.7029,6.6999,6.6999,6.6849,6.652,6.64,6.6311,6.6432,6.6042,6.5532,6.526,6.4865,6.459,6.4166,6.3949,6.4027,6.4049,6.416,6.4504,6.468,6.5067,6.5965,6.6491,6.6706,6.6614,6.6027,6.5472,6.4949,6.4398,6.4214,6.4152,6.3872,6.3441,6.3225,6.2952,6.2306,6.1902,6.1625,6.1225,6.0917,6.0824,6.0794,6.0794,6.0794,6.0794,6.0794,6.0701,6.0455,6.0209,6.0209,5.968,5.9033,5.8664,5.8073,5.7591,5.7362,5.7466,5.7525,5.758,5.773,5.773,5.766,5.7871,5.7801,5.7707,5.7707,5.7707,5.7871,5.8043,5.8011,5.8058,5.8228,5.8297,5.8274,5.8274,5.8297,5.8297,5.8297,5.8297,5.8297,5.8297,5.8297,5.8297,5.8297,5.4597,5.4683,5.5198,5.5528,5.5827,5.6807,5.7351,5.7509,5.8172,5.8523,5.8523,5.8523,5.8392,5.8157,5.8131,5.8131,5.8192,5.8236,5.8745,5.9638,6.0886,6.1767,6.3339,6.4623,6.5202,6.5901,6.6588,6.6737,6.6814,6.6968,6.6999,6.6999,6.6999,6.6999,6.6819,6.64,6.5892,6.5712,6.5533,6.5174,6.4695,6.4186,6.4123,6.3909,6.3487,6.357,6.3652,6.3738,6.3906,6.4223,6.431,6.5146,6.5897,6.6449,6.669,6.6504,6.5847,6.5321,6.4888,6.458,6.4334,6.4029,6.3564,6.3352,6.3075,6.286,6.2179,6.1594,6.1379,6.1163,6.0948,6.0794,6.0794,6.0794,6.0794,6.0794,6.0794,6.0794,6.0547,6.0209,5.9809,5.9311,5.891,5.8664,5.8264,5.7703,5.7265,5.7135,5.7225,5.7287,5.7593,5.781,5.7643,5.759,5.7495,5.7448,5.7495,5.7543,5.7637,5.7754,5.7778,5.7825,5.7918,5.8058,5.8251,5.8228,5.8228,5.8274,5.8297,5.8274,5.8274,5.8297,5.8297,5.8297,5.8297,5.4471,5.4446,5.4522,5.4784,5.5207,5.5905,5.6044,5.5905,5.7447,5.8234,5.8208,5.8269,5.7965,5.7634,5.7617,5.7721,5.78,5.7852,5.814,5.8577,5.949,6.0318,6.0797,6.1036,6.3468,6.4438,6.4973,6.5439,6.6506,6.6846,6.6999,6.6999,6.6999,6.6909,6.667,6.6101,6.5503,6.4934,6.4755,6.4455,6.4096,6.3827,6.3677,6.3286,6.3137,6.3165,6.3194,6.3309,6.3481,6.3891,6.4393,6.5228,6.577,6.5862,6.6038,6.6028,6.5399,6.5081,6.4829,6.4611,6.458,6.4395,6.4118,6.3414,6.286,6.2614,6.1963,6.1594,6.1409,6.1101,6.0886,6.0794,6.0794,6.0794,6.0794,6.0794,6.0794,6.0794,6.0701,6.0424,6.024,5.9742,5.9378,5.9162,5.8756,5.7986,5.7648,5.7371,5.7043,5.715,5.7267,5.7662,5.748,5.7258,5.7282,5.7258,5.733,5.7401,5.7448,5.7472,5.7495,5.7543,5.7613,5.7778,5.7941,5.8089,5.8136,5.8159,5.8182,5.8205,5.8228,5.8274,5.8297,5.8274,5.8297,5.3306,5.3356,5.3733,5.4345,5.5076,5.5312,5.5523,5.5723,5.6129,5.6554,5.679,5.6859,5.6912,5.6955,5.6938,5.7094,5.7503,5.7416,5.8,5.8622,5.9183,5.9211,6.0172,6.0816,6.2544,6.349,6.3958,6.4002,6.5088,6.6081,6.6878,6.6908,6.6819,6.664,6.6221,6.5562,6.4904,6.4395,6.3917,6.3737,6.3497,6.3347,6.3197,6.3108,6.3108,6.3108,6.3137,6.3165,6.3338,6.3599,6.3745,6.437,6.5147,6.4809,6.5011,6.5331,6.4958,6.4761,6.4657,6.447,6.4254,6.3787,6.326,6.2614,6.221,6.2117,6.1963,6.1686,6.1409,6.1071,6.0886,6.0824,6.0794,6.0794,6.0794,6.0794,6.0794,6.0794,6.0794,6.0701,6.0609,6.027,5.9901,5.947,5.9126,5.8787,5.8572,5.8202,5.7463,5.7221,5.6937,5.7153,5.7067,5.6954,5.7088,5.7074,5.7115,5.7115,5.7139,5.7163,5.718,5.7322,5.7472,5.7543,5.766,5.7778,5.7871,5.7895,5.7941,5.8019,5.8089,5.8112,5.8182,5.8182,5.8251,5.2544,5.2628,5.313,5.352,5.3819,5.4195,5.44,5.447,5.4643,5.4841,5.5202,5.5649,5.6012,5.6003,5.5951,5.6219,5.6686,5.6634,5.7025,5.7842,5.8426,5.8411,5.9196,5.9792,6.0397,6.1296,6.2026,6.2583,6.3399,6.4385,6.5068,6.5369,6.5585,6.5921,6.5443,6.4904,6.4425,6.4006,6.3348,6.3138,6.3108,6.3108,6.3108,6.3108,6.3108,6.3108,6.3108,6.3108,6.3194,6.3401,6.3638,6.4082,6.4617,6.4522,6.4577,6.472,6.4588,6.43,6.429,6.4159,6.3908,6.3595,6.319,6.2798,6.2798,6.2645,6.1686,6.1379,6.1132,6.0824,6.0824,6.0794,6.0794,6.0794,6.0794,6.0794,6.0794,6.0794,6.0794,6.0763,6.0517,6.0111,5.9619,5.8879,5.851,5.8202,5.8202,5.7986,5.7432,5.7217,5.697,5.6816,5.6847,5.7063,5.7382,5.719,5.6882,5.6882,5.6899,5.6923,5.7019,5.7187,5.733,5.7353,5.7424,5.7543,5.7613,5.7637,5.7684,5.7731,5.7801,5.7895,5.7965,5.7988,5.7965,5.2,5.2076,5.2569,5.2578,5.2285,5.307,5.3289,5.3083,5.3298,5.346,5.3655,5.478,5.4995,5.4919,5.48,5.5057,5.5332,5.5607,5.6046,5.6522,5.6756,5.6987,5.6996,5.7099,5.8112,5.9357,6.0436,6.0663,6.1015,6.2228,6.3103,6.3086,6.3792,6.4696,6.4487,6.4336,6.3977,6.3736,6.3347,6.3138,6.3108,6.3108,6.3108,6.3108,6.3108,6.3108,6.3108,6.3108,6.3108,6.3227,6.3496,6.3821,6.4057,6.4083,6.4049,6.4074,6.4063,6.3874,6.3895,6.3951,6.4036,6.4056,6.3623,6.3275,6.3159,6.2445,6.1463,6.1172,6.0926,6.0824,6.0824,6.0794,6.0794,6.0794,6.0794,6.0794,6.0794,6.0794,6.0794,6.0794,6.0455,6.0019,5.9495,5.8726,5.8202,5.7863,5.7432,5.7093,5.6902,5.7001,5.697,5.6909,5.6939,5.7247,5.7494,5.7278,5.6785,5.681,5.6858,5.681,5.6834,5.6971,5.7091,5.7115,5.7187,5.7282,5.7353,5.7377,5.7424,5.7472,5.7613,5.7707,5.7684,5.7707,5.7613,5.1481,5.1473,5.2026,5.2201,5.2176,5.2747,5.2964,5.2929,5.2964,5.2998,5.3117,5.3236,5.3612,5.4176,5.421,5.4432,5.4783,5.4903,5.5288,5.5855,5.5813,5.5762,5.5796,5.6011,5.665,5.779,5.9123,5.9991,5.9389,6.0438,6.1342,6.1352,6.2602,6.3074,6.2727,6.2853,6.3326,6.3117,6.3084,6.2904,6.3108,6.3108,6.3108,6.3108,6.3108,6.3108,6.3108,6.3108,6.3108,6.3168,6.3227,6.3405,6.3464,6.3522,6.3429,6.3454,6.3475,6.3498,6.3522,6.37,6.3874,6.3928,6.3318,6.2525,6.2174,6.1473,6.097,6.1177,6.1015,6.0926,6.0891,6.0824,6.0794,6.0794,6.0794,6.0794,6.0794,6.0794,6.0794,6.0794,6.0701,6.0455,6.027,5.9532,5.8879,5.8418,5.7709,5.734,5.6847,5.6878,5.6994,5.6994,5.697,5.6909,5.697,5.7063,5.6785,5.6785,5.6785,5.6785,5.6785,5.681,5.6882,5.6954,5.693,5.6954,5.7026,5.7139,5.7163,5.7234,5.7448,5.7543,5.7441,5.7362,5.726]},{"header":{"parameterUnit":"m.s-1","parameterCategory":1,"la1":31.0,"la2":29.5877,"lo1":-88.7671,"lo2":-86.6584,"dy":0.0162,"dx":0.0185,"nx":115,"ny":88,"refTime":"2023-04-22T00:00:00:Z","depth":0,"parameterNumber":3,"parameterNumberName":"V-component_of_WINDS"},"data":[0.0,0.0,0.0,0.0,0.0,0.0,0.0,0.0,0.0,0.0,0.0,0.0,0.0,0.0,0.0,0.0,0.0,0.0,0.0,0.0,0.0,0.0,0.0,0.0,0.0,0.0,0.0,0.0,0.0,0.0,0.0,0.0,0.0,0.0,0.0,0.0,0.0,0.0,0.0,0.0,0.0,0.0,0.0,0.0,0.0,0.0,0.0,0.0,0.0,0.0,0.0,0.0,0.0,0.0,0.0,0.0,0.0,0.0,0.0,0.0,0.0,0.0,0.0,0.0,0.0,0.0,0.0,0.0,0.0,0.0,0.0,0.0,0.0,0.0,0.0,0.0,0.0,0.0,0.0,0.0,0.0,0.0,0.0,0.0,0.0,0.0,0.0,0.0,0.0,0.0,0.0,0.0,0.0,0.0,0.0,0.0,0.0,0.0,0.0,0.0,0.0,0.0,0.0,0.0,0.0,0.0,0.0,0.0,0.0,0.0,0.0,0.0,0.0,0.0,0.0,0.0,0.0,0.0,0.0,0.0,0.0,0.0,0.0,0.0,0.0,0.0,0.0,0.0,0.0,0.0,0.0,0.0,0.0,0.0,0.0,0.0,0.0,0.0,0.0,0.0,0.0,0.0,0.0,0.0,0.0,0.0,0.0,0.0,0.0,0.0,0.0,0.0,0.0,0.0,0.0,0.0,0.0,0.0,0.0,0.0,0.0,0.0,0.0,0.0,0.0,0.0,0.0,0.0,0.0,0.0,0.0,0.0,0.0,0.0,0.0,0.0,0.0,0.0,0.0,0.0,0.0,0.0,0.0,0.0,0.0,0.0,0.0,0.0,0.0,0.0,0.0,0.0,0.0,0.0,0.0,0.0,0.0,0.0,0.0,0.0,0.0,0.0,0.0,0.0,0.0,0.0,0.0,0.0,0.0,0.0,0.0,0.0,0.0,0.0,0.0,0.0,0.0,0.0,0.0,0.0,0.0,0.0,0.0,0.0,0.0,0.0,0.0,0.0,0.0,0.0,0.0,0.0,0.0,0.0,0.0,0.0,0.0,0.0,0.0,0.0,0.0,0.0,0.0,0.0,0.0,0.0,0.0,0.0,0.0,0.0,0.0,0.0,0.0,0.0,0.0,0.0,0.0,0.0,0.0,0.0,0.0,0.0,0.0,0.0,0.0,0.0,0.0,0.0,0.0,0.0,0.0,0.0,0.0,0.0,0.0,0.0,0.0,0.0,0.0,0.0,0.0,0.0,0.0,0.0,0.0,0.0,0.0,0.0,0.0,0.0,0.0,0.0,0.0,0.0,0.0,0.0,0.0,0.0,0.0,0.0,0.0,0.0,0.0,0.0,0.0,0.0,0.0,0.0,0.0,0.0,0.0,0.0,0.0,0.0,0.0,0.0,0.0,0.0,0.0,0.0,0.0,0.0,0.0,0.0,0.0,0.0,0.0,0.0,0.0,0.0,0.0,0.0,0.0,0.0,0.0,0.0,0.0,0.0,0.0,0.0,0.0,0.0,0.0,0.0,0.0,0.0,0.0,0.0,0.0,0.0,0.0,0.0,0.0,0.0,0.0,0.0,0.0,0.0,0.0,0.0,0.0,0.0,0.0,0.0,0.0,0.0,0.0,0.0,0.0,0.0,0.0,0.0,0.0,0.0,0.0,0.0,0.0,0.0,0.0,0.0,0.0,0.0,0.0,0.0,0.0,0.0,0.0,0.0,0.0,0.0,0.0,0.0,0.0,0.0,0.0,0.0,0.0,0.0,0.0,0.0,0.0,0.0,0.0,0.0,0.0,0.0,0.0,0.0,0.0,0.0,0.0,0.0,0.0,0.0,0.0,0.0,0.0,0.0,0.0,0.0,0.0,0.0,0.0,0.0,0.0,0.0,0.0,0.0,0.0,0.0,0.0,0.0,0.0,0.0,0.0,0.0,0.0,0.0,0.0,0.0,0.0,0.0,0.0,0.0,0.0,0.0,0.0,0.0,0.0,0.0,0.0,0.0,0.0,0.0,0.0,0.0,0.0,0.0,0.0,0.0,0.0,0.0,0.0,0.0,0.0,0.0,0.0,0.0,0.0,0.0,0.0,0.0,0.0,0.0,0.0,0.0,0.0,0.0,0.0,0.0,0.0,0.0,0.0,0.0,0.0,0.0,0.0,0.0,0.0,0.0,0.0,0.0,0.0,0.0,0.0,0.0,0.0,0.0,0.0,0.0,0.0,0.0,0.0,0.0,0.0,0.0,0.0,0.0,0.0,0.0,0.0,0.0,0.0,0.0,0.0,0.0,0.0,0.0,0.0,0.0,0.0,0.0,0.0,0.0,0.0,0.0,0.0,0.0,0.0,0.0,0.0,0.0,0.0,0.0,0.0,0.0,0.0,0.0,0.0,0.0,0.0,0.0,0.0,0.0,0.0,0.0,0.0,0.0,0.0,0.0,0.0,0.0,0.0,0.0,0.0,0.0,0.0,0.0,0.0,0.0,0.0,0.0,0.0,0.0,0.0,0.0,0.0,0.0,0.0,0.0,0.0,0.0,0.0,0.0,0.0,0.0,0.0,0.0,0.0,0.0,0.0,0.0,0.0,0.0,0.0,0.0,0.0,0.0,0.0,0.0,0.0,0.0,0.0,0.0,0.0,0.0,0.0,0.0,0.0,0.0,0.0,0.0,0.0,0.0,0.0,0.0,0.0,0.0,0.0,0.0,0.0,0.0,0.0,0.0,0.0,0.0,0.0,0.0,0.0,0.0,0.0,0.0,0.0,0.0,0.0,0.0,0.0,0.0,0.0,0.0,0.0,0.0,0.0,0.0,0.0,0.0,0.0,0.0,0.0,0.0,0.0,0.0,0.0,0.0,0.0,0.0,0.0,0.0,0.0,0.0,0.0,0.0,0.0,0.0,0.0,0.0,0.0,0.0,0.0,0.0,0.0,0.0,0.0,0.0,0.0,0.0,0.0,0.0,0.0,0.0,0.0,0.0,0.0,0.0,0.0,0.0,0.0,0.0,0.0,0.0,0.0,0.0,0.0,0.0,0.0,0.0,0.0,0.0,0.0,0.0,0.0,0.0,0.0,0.0,0.0,0.0,0.0,0.0,0.0,0.0,0.0,0.0,0.0,0.0,0.0,0.0,0.0,0.0,0.0,0.0,0.0,0.0,0.0,0.0,0.0,0.0,0.0,0.0,0.0,0.0,0.0,0.0,0.0,0.0,0.0,0.0,0.0,0.0,0.0,0.0,0.0,0.0,0.0,0.0,0.0,0.0,0.0,0.0,0.0,0.0,0.0,0.0,0.0,0.0,0.0,0.0,0.0,0.0,0.0,0.0,0.0,0.0,0.0,0.0,0.0,0.0,0.0,0.0,0.0,0.0,0.0,0.0,0.0,0.0,0.0,0.0,0.0,0.0,0.0,0.0,0.0,0.0,0.0,0.0,0.0,0.0,0.0,0.0,0.0,0.0,0.0,0.0,0.0,0.0,0.0,0.0,0.0,0.0,0.0,0.0,0.0,0.0,0.0,0.0,0.0,0.0,0.0,0.0,0.0,0.0,0.0,0.0,0.0,0.0,0.0,0.0,0.0,0.0,0.0,0.0,0.0,0.0,0.0,0.0,0.0,0.0,0.0,0.0,0.0,0.0,0.0,0.0,0.0,0.0,0.0,0.0,0.0,0.0,0.0,0.0,0.0,0.0,0.0,0.0,0.0,0.0,0.0,0.0,0.0,0.0,0.0,0.0,0.0,0.0,0.0,0.0,0.0,0.0,0.0,0.0,0.0,0.0,0.0,0.0,0.0,0.0,0.0,0.0,0.0,0.0,0.0,0.0,0.0,0.0,0.0,0.0,0.0,0.0,0.0,0.0,0.0,0.0,0.0,0.0,0.0,0.0,0.0,0.0,0.0,0.0,0.0,0.0,0.0,0.0,0.0,0.0,0.0,0.0,0.0,0.0,0.0,0.0,0.0,0.0,0.0,0.0,0.0,0.0,0.0,0.0,0.0,0.0,0.0,0.0,0.0,0.0,0.0,0.0,0.0,0.0,0.0,0.0,0.0,0.0,0.0,0.0,0.0,0.0,0.0,0.0,0.0,0.0,0.0,0.0,0.0,0.0,0.0,0.0,0.0,0.0,0.0,0.0,0.0,0.0,0.0,0.0,0.0,0.0,0.0,0.0,0.0,0.0,0.0,0.0,0.0,0.0,0.0,0.0,0.0,0.0,0.0,0.0,0.0,0.0,0.0,0.0,0.0,0.0,0.0,0.0,0.0,0.0,0.0,0.0,0.0,0.0,1.4103,0.0,0.0,0.0,0.0,0.0,0.0,0.0,0.0,0.0,0.0,0.0,0.0,0.0,0.0,0.0,0.0,0.0,0.0,0.0,0.0,0.0,0.0,0.0,0.0,0.0,0.0,0.0,0.0,0.0,0.0,0.0,0.0,0.0,0.0,0.0,0.0,0.0,0.0,0.0,0.0,0.0,0.0,0.0,0.0,0.0,0.0,0.0,0.0,0.0,0.0,0.0,0.0,0.0,0.0,0.0,0.0,0.0,0.0,0.0,0.0,0.0,0.0,0.0,0.0,0.0,0.0,0.0,0.0,0.0,0.0,0.0,0.0,0.0,0.0,0.0,0.0,0.0,0.0,0.0,0.0,0.0,0.0,0.0,0.0,0.0,0.0,0.0,0.0,0.0,0.0,0.0,0.0,0.0,0.0,0.0,0.0,0.0,0.0,0.0,0.0,0.0,0.0,0.0,0.0,0.0,0.0,0.0,0.0,0.0,0.0,1.4103,1.4103,1.4103,1.4103,1.4103,0.0,0.0,0.0,0.0,0.0,0.0,0.0,0.0,0.0,0.0,0.0,0.0,0.0,0.0,0.0,0.0,0.0,0.0,0.0,0.0,0.0,0.0,0.0,0.0,0.0,0.0,0.0,0.0,0.0,0.0,0.0,0.0,0.0,0.0,0.0,0.0,0.0,0.0,0.0,0.0,0.0,0.0,0.0,0.0,0.0,0.0,0.0,0.0,0.0,0.0,0.0,0.0,0.0,0.0,0.0,0.0,0.0,0.0,0.0,0.0,0.0,0.0,0.0,0.0,0.0,0.0,0.0,0.0,0.0,0.0,0.0,0.0,0.0,0.0,0.0,0.0,0.0,0.0,0.0,0.0,0.0,0.0,0.0,0.0,0.0,0.0,0.0,0.0,0.0,0.0,0.0,0.0,0.0,0.0,0.0,0.0,0.0,0.0,0.0,0.0,0.0,0.0,0.0,0.0,0.0,0.0,0.0,0.0,0.0,0.0,0.0,0.0,1.4103,1.4124,1.4166,0.0,0.0,0.0,0.0,0.0,0.0,0.0,0.0,0.0,0.0,0.0,0.0,0.0,0.0,0.0,0.0,0.0,0.0,0.0,0.0,0.0,0.0,0.0,0.0,0.0,0.0,0.0,0.0,0.0,0.0,0.0,0.0,0.0,0.0,0.0,0.0,0.0,0.0,0.0,0.0,0.0,0.0,0.0,0.0,0.0,0.0,0.0,0.0,0.0,0.0,0.0,0.0,0.0,0.0,0.0,0.0,0.0,0.0,0.0,0.0,0.0,0.0,0.0,0.0,0.0,0.0,0.0,0.0,0.0,0.0,0.0,0.0,0.0,0.0,0.0,0.0,0.0,0.0,0.0,0.0,0.0,0.0,0.0,0.0,0.0,0.0,0.0,0.0,0.0,0.0,0.0,0.0,0.0,0.0,0.0,0.0,0.0,0.0,0.0,0.0,0.0,0.0,0.0,0.0,0.0,0.0,0.0,0.0,0.0,0.0,1.4103,1.4103,1.4103,0.0,1.4363,0.0,0.0,0.0,0.0,0.0,0.0,0.0,0.0,0.0,0.0,0.0,0.0,0.0,0.0,0.0,0.0,0.0,0.0,0.0,0.0,0.0,0.0,0.0,0.0,0.0,0.0,0.0,0.0,0.0,0.0,0.0,0.0,0.0,0.0,0.0,0.0,0.0,0.0,0.0,0.0,0.0,0.0,0.0,0.0,0.0,0.0,0.0,0.0,0.0,0.0,0.0,0.0,0.0,0.0,0.0,0.0,0.0,0.0,0.0,0.0,0.0,0.0,0.0,0.0,0.0,0.0,0.0,0.0,0.0,0.0,0.0,0.0,0.0,0.0,0.0,0.0,0.0,0.0,0.0,0.0,0.0,0.0,0.0,0.0,0.0,0.0,0.0,0.0,0.0,0.0,0.0,0.0,0.0,0.0,0.0,0.0,0.0,0.0,0.0,0.0,0.0,0.0,0.0,0.0,0.0,0.0,0.0,0.0,0.0,0.0,1.4103,1.4103,1.4229,1.4384,0.0,0.0,0.0,0.0,0.0,0.0,0.0,0.0,0.0,0.0,0.0,0.0,0.0,0.0,0.0,0.0,0.0,0.0,0.0,0.0,0.0,0.0,0.0,0.0,0.0,0.0,0.0,0.0,0.0,0.0,0.0,0.0,0.0,0.0,0.0,0.0,0.0,0.0,0.0,0.0,0.0,0.0,0.0,0.0,0.0,0.0,0.0,0.0,0.0,0.0,0.0,0.0,0.0,0.0,0.0,0.0,0.0,0.0,0.0,0.0,0.0,0.0,0.0,0.0,0.0,0.0,0.0,0.0,0.0,0.0,0.0,0.0,0.0,0.0,0.0,0.0,0.0,0.0,0.0,0.0,0.0,0.0,0.0,0.0,0.0,0.0,0.0,0.0,0.0,0.0,0.0,0.0,0.0,0.0,0.0,0.0,0.0,0.0,0.0,0.0,0.0,0.0,0.0,0.0,0.0,0.0,0.0,0.0,0.0,0.0,1.4271,1.4271,1.4271,1.4468,1.4664,1.4908,0.0,0.0,0.0,0.0,0.0,0.0,0.0,0.0,0.0,0.0,0.0,0.0,0.0,0.0,0.0,0.0,0.0,0.0,0.0,0.0,0.0,0.0,0.0,0.0,0.0,0.0,0.0,0.0,0.0,0.0,0.0,0.0,0.0,0.0,0.0,0.0,0.0,0.0,0.0,0.0,0.0,0.0,0.0,0.0,0.0,0.0,0.0,0.0,0.0,0.0,0.0,0.0,0.0,0.0,0.0,0.0,0.0,0.0,0.0,0.0,0.0,0.0,0.0,0.0,0.0,0.0,0.0,0.0,0.0,0.0,0.0,0.0,0.0,0.0,0.0,0.0,0.0,0.0,0.0,0.0,0.0,0.0,0.0,0.0,0.0,0.0,0.0,0.0,0.0,0.0,0.0,0.0,0.0,0.0,0.0,0.0,0.0,0.0,0.0,0.0,0.0,0.0,0.0,0.0,0.0,0.0,0.0,0.0,0.0,1.4678,1.4678,1.4678,1.4929,1.5173,0.0,0.0,0.0,0.0,0.0,0.0,0.0,0.0,0.0,0.0,0.0,0.0,0.0,0.0,0.0,0.0,0.0,0.0,0.0,0.0,0.0,0.0,0.0,0.0,0.0,0.0,0.0,0.0,0.0,0.0,0.0,0.0,0.0,0.0,0.0,0.0,0.0,0.0,0.0,0.0,0.0,0.0,0.0,0.0,0.0,0.0,0.0,0.0,0.0,0.0,0.0,0.0,0.0,0.0,0.0,0.0,0.0,0.0,0.0,0.0,0.0,0.0,0.0,0.0,0.0,0.0,0.0,0.0,0.0,0.0,0.0,0.0,0.0,0.0,0.0,0.0,0.0,0.0,0.0,0.0,0.0,0.0,0.0,0.0,0.0,0.0,0.0,0.0,0.0,0.0,0.0,0.0,0.0,0.0,0.0,0.0,0.0,0.0,0.0,0.0,0.0,0.0,0.0,0.0,0.0,0.0,0.0,0.0,0.0,1.5828,1.549,1.5226,1.5159,1.5228,1.5519,0.0,0.0,0.0,0.0,0.0,0.0,0.0,0.0,0.0,0.0,0.0,0.0,0.0,0.0,0.0,0.0,0.0,0.0,0.0,0.0,0.0,0.0,0.0,0.0,0.0,0.0,0.0,0.0,0.0,0.0,0.0,0.0,0.0,0.0,0.0,0.0,0.0,0.0,0.0,0.0,0.0,0.0,0.0,0.0,0.0,0.0,0.0,0.0,0.0,0.0,0.0,0.0,0.0,0.0,0.0,0.0,0.0,0.0,0.0,0.0,0.0,0.0,0.0,0.0,0.0,0.0,0.0,0.0,0.0,0.0,0.0,0.0,0.0,0.0,0.0,0.0,0.0,0.0,0.0,0.0,0.0,0.0,0.0,0.0,0.0,0.0,0.0,0.0,0.0,0.0,0.0,0.0,0.0,0.0,0.0,0.0,0.0,0.0,0.0,0.0,0.0,0.0,0.0,0.0,0.0,0.0,0.0,0.0,0.0,1.6815,0.0,1.6187,0.0,1.6034,1.6266,0.0,0.0,0.0,0.0,0.0,0.0,0.0,0.0,0.0,0.0,0.0,0.0,0.0,0.0,0.0,0.0,0.0,0.0,0.0,0.0,0.0,0.0,0.0,0.0,0.0,0.0,0.0,0.0,0.0,0.0,0.0,0.0,0.0,0.0,0.0,0.0,0.0,0.0,0.0,0.0,0.0,0.0,0.0,0.0,0.0,0.0,0.0,0.0,0.0,0.0,0.0,0.0,0.0,0.0,0.0,0.0,0.0,0.0,0.0,0.0,0.0,0.0,0.0,0.0,0.0,0.0,0.0,0.0,0.0,0.0,0.0,0.0,0.0,0.0,0.0,0.0,0.0,0.0,0.0,0.0,0.0,0.0,0.0,0.0,0.0,0.0,0.0,0.0,0.0,0.0,0.0,0.0,0.0,0.0,0.0,0.0,0.0,0.0,0.0,0.0,0.0,0.0,0.0,0.0,0.0,0.0,0.0,0.0,1.7826,1.7548,1.7526,1.7505,1.7511,1.7354,1.7413,0.0,0.0,0.0,0.0,0.0,0.0,0.0,0.0,0.0,0.0,0.0,0.0,0.0,0.0,0.0,0.0,0.0,0.0,0.0,0.0,0.0,0.0,0.0,0.0,0.0,0.0,0.0,0.0,0.0,0.0,0.0,0.0,0.0,0.0,0.0,0.0,0.0,0.0,0.0,0.0,0.0,0.0,0.0,0.0,0.0,0.0,0.0,0.0,0.0,0.0,0.0,0.0,0.0,0.0,0.0,0.0,0.0,0.0,0.0,0.0,0.0,0.0,0.0,0.0,0.0,0.0,0.0,0.0,0.0,0.0,0.0,0.0,0.0,0.0,0.0,0.0,0.0,0.0,0.0,0.0,0.0,0.0,0.0,0.0,0.0,0.0,0.0,0.0,0.0,0.0,0.0,0.0,0.0,0.0,0.0,0.0,0.0,0.0,0.0,0.0,0.0,0.0,0.0,0.0,0.0,0.0,0.0,0.0,0.0,1.8775,1.8736,1.8624,1.8427,1.8358,1.831,0.0,0.0,0.0,0.0,0.0,0.0,0.0,0.0,0.0,0.0,0.0,0.0,0.0,0.0,0.0,0.0,0.0,0.0,0.0,0.0,0.0,0.0,0.0,0.0,0.0,0.0,0.0,0.0,0.0,0.0,0.0,0.0,0.0,0.0,0.0,0.0,0.0,0.0,0.0,0.0,0.0,0.0,0.0,0.0,0.0,0.0,0.0,0.0,0.0,0.0,0.0,0.0,0.0,0.0,0.0,0.0,0.0,0.0,0.0,0.0,0.0,0.0,0.0,0.0,0.0,0.0,0.0,0.0,0.0,0.0,0.0,0.0,0.0,0.0,0.0,0.0,0.0,0.0,0.0,0.0,0.0,0.0,0.0,0.0,0.0,0.0,0.0,0.0,0.0,0.0,0.0,0.0,0.0,0.0,0.0,0.0,0.0,0.0,0.0,0.0,0.0,0.0,0.0,0.0,0.0,0.0,0.0,0.0,0.0,2.1732,2.1221,2.0762,2.0416,2.0123,1.9822,1.9527,0.0,0.0,0.0,0.0,0.0,0.0,0.0,0.0,0.0,0.0,0.0,0.0,0.0,0.0,0.0,0.0,0.0,0.0,0.0,0.0,0.0,0.0,0.0,0.0,0.0,0.0,0.0,0.0,0.0,0.0,0.0,0.0,0.0,0.0,0.0,0.0,0.0,0.0,0.0,0.0,0.0,0.0,0.0,0.0,0.0,0.0,0.0,0.0,0.0,0.0,0.0,0.0,0.0,0.0,0.0,0.0,0.0,0.0,0.0,0.0,0.0,0.0,0.0,0.0,0.0,0.0,0.0,0.0,0.0,0.0,0.0,0.0,0.0,0.0,0.0,0.0,0.0,0.0,0.0,0.0,0.0,0.0,0.0,0.0,0.0,0.0,0.0,0.0,0.0,0.0,0.0,0.0,0.0,0.0,0.0,0.0,0.0,0.0,0.0,0.0,0.0,0.0,0.0,0.0,0.0,0.0,0.0,0.0,2.5923,2.4712,2.3824,2.3246,2.2442,2.1755,0.0,0.0,0.0,0.0,0.0,0.0,0.0,0.0,0.0,0.0,0.0,0.0,0.0,0.0,0.0,0.0,0.0,0.0,0.0,0.0,0.0,0.0,0.0,0.0,0.0,0.0,0.0,0.0,0.0,0.0,0.0,0.0,0.0,0.0,0.0,0.0,0.0,0.0,0.0,0.0,0.0,0.0,0.0,0.0,0.0,0.0,0.0,0.0,0.0,0.0,0.0,0.0,0.0,0.0,0.0,0.0,0.0,0.0,0.0,0.0,0.0,0.0,0.0,0.0,0.0,0.0,0.0,0.0,0.0,0.0,0.0,0.0,0.0,0.0,0.0,0.0,0.0,0.0,0.0,0.0,0.0,0.0,0.0,0.0,0.0,0.0,0.0,0.0,0.0,0.0,0.0,0.0,0.0,0.0,0.0,0.0,0.0,0.0,0.0,0.0,0.0,0.0,0.0,0.0,0.0,0.0,0.0,0.0,0.0,2.7674,2.8519,2.7734,2.5209,2.4305,2.3217,0.0,0.0,0.0,0.0,0.0,0.0,0.0,0.0,0.0,0.0,0.0,0.0,0.0,0.0,0.0,0.0,0.0,0.0,0.0,0.0,0.0,0.0,0.0,0.0,0.0,0.0,0.0,0.0,0.0,0.0,0.0,0.0,0.0,0.0,0.0,0.0,0.0,0.0,0.0,0.0,0.0,0.0,0.0,0.0,0.0,0.0,0.0,0.0,0.0,0.0,0.0,0.0,0.0,0.0,0.0,0.0,0.0,0.0,0.0,0.0,0.0,0.0,0.0,0.0,0.0,0.0,0.0,0.0,0.0,0.0,0.0,0.0,0.0,0.0,0.0,0.0,0.0,0.0,0.0,0.0,0.0,0.0,0.0,0.0,0.0,0.0,0.0,0.0,0.0,0.0,0.0,0.0,0.0,0.0,0.0,0.0,0.0,0.0,0.0,0.0,0.0,0.0,0.0,0.0,0.0,0.0,0.0,0.0,2.8095,2.9617,3.0914,3.0646,2.8691,2.6903,2.5168,0.0,0.0,0.0,0.0,0.0,0.0,0.0,0.0,0.0,0.0,0.0,0.0,0.0,0.0,0.0,0.0,0.0,0.0,0.0,0.0,0.0,0.0,0.0,0.0,0.0,0.0,0.0,0.0,0.0,0.0,0.0,0.0,0.0,0.0,0.0,0.0,0.0,0.0,0.0,0.0,0.0,0.0,0.0,0.0,0.0,0.0,0.0,0.0,0.0,0.0,0.0,0.0,0.0,0.0,0.0,0.0,0.0,0.0,0.0,0.0,0.0,0.0,0.0,0.0,0.0,0.0,0.0,0.0,0.0,0.0,0.0,0.0,0.0,0.0,0.0,0.0,0.0,0.0,0.0,0.0,0.0,0.0,0.0,0.0,0.0,0.0,0.0,0.0,0.0,0.0,0.0,0.0,0.0,0.0,0.0,0.0,0.0,0.0,0.0,0.0,0.0,0.0,0.0,0.0,0.0,0.0,0.0,0.0,2.9544,3.1483,3.2383,3.2753,3.2643,2.9611,2.7169,0.0,0.0,0.0,0.0,0.0,0.0,0.0,0.0,0.0,0.0,0.0,0.0,0.0,0.0,0.0,0.0,0.0,0.0,0.0,0.0,0.0,0.0,0.0,0.0,0.0,0.0,0.0,0.0,0.0,0.0,0.0,0.0,0.0,0.0,0.0,0.0,0.0,0.0,0.0,0.0,0.0,0.0,0.0,0.0,0.0,0.0,0.0,0.0,0.0,0.0,0.0,0.0,0.0,0.0,0.0,0.0,0.0,0.0,0.0,0.0,0.0,0.0,0.0,0.0,0.0,0.0,0.0,0.0,0.0,0.0,0.0,0.0,0.0,0.0,0.0,0.0,0.0,0.0,0.0,0.0,0.0,0.0,0.0,0.0,0.0,0.0,0.0,0.0,0.0,0.0,0.0,0.0,0.0,0.0,0.0,0.0,0.0,0.0,0.0,0.0,0.0,0.0,0.0,0.0,0.0,0.0,0.0,0.0,3.0626,3.2294,3.3431,3.3872,3.3541,3.0437,2.7995,0.0,0.0,0.0,0.0,0.0,0.0,0.0,0.0,0.0,0.0,0.0,0.0,0.0,0.0,0.0,0.0,0.0,0.0,0.0,0.0,0.0,0.0,0.0,0.0,0.0,0.0,0.0,0.0,0.0,0.0,0.0,0.0,0.0,0.0,0.0,0.0,0.0,0.0,0.0,0.0,0.0,0.0,0.0,0.0,0.0,0.0,0.0,0.0,1.6127,0.0,0.0,0.0,0.0,0.0,0.0,0.0,0.0,0.0,0.0,0.0,0.0,0.0,0.0,0.0,0.0,0.0,0.0,0.0,0.0,0.0,0.0,0.0,0.0,0.0,0.0,0.0,0.0,0.0,0.0,0.0,0.0,0.0,0.0,0.0,0.0,0.0,0.0,0.0,0.0,0.0,0.0,0.0,0.0,0.0,0.0,0.0,0.0,0.0,0.0,0.0,0.0,0.0,0.0,0.0,0.0,0.0,0.0,0.0,3.1543,3.312,3.3963,3.4403,3.424,3.1616,2.9287,0.0,0.0,0.0,0.0,0.0,0.0,0.0,0.0,0.0,0.0,0.0,0.0,0.0,0.0,0.0,0.0,0.0,0.0,0.0,0.0,0.0,0.0,0.0,0.0,0.0,0.0,0.0,0.0,0.0,0.0,0.0,0.0,0.0,0.0,0.0,0.0,0.0,0.0,0.0,0.0,0.0,0.0,0.0,0.0,0.0,0.0,0.0,0.0,0.0,0.0,0.0,0.0,0.0,0.0,0.0,0.0,0.0,0.0,0.0,0.0,0.0,0.0,0.0,0.0,0.0,0.0,0.0,0.0,0.0,0.0,0.0,0.0,0.0,0.0,0.0,0.0,0.0,0.0,0.0,0.0,0.0,0.0,0.0,0.0,0.0,0.0,0.0,0.0,0.0,0.0,0.0,0.0,0.0,0.0,0.0,0.0,0.0,0.0,0.0,0.0,0.0,0.0,0.0,0.0,0.0,0.0,0.0,3.0437,3.2386,3.4018,3.4477,3.4807,3.4954,3.2735,3.0521,2.8535,0.0,0.0,0.0,0.0,0.0,0.0,0.0,0.0,0.0,0.0,0.0,0.0,0.0,0.0,0.0,0.0,0.0,0.0,0.0,0.0,0.0,0.0,0.0,0.0,0.0,0.0,0.0,0.0,0.0,0.0,0.0,0.0,0.0,0.0,0.0,0.0,0.0,0.0,1.549,1.6213,0.0,0.0,0.0,0.0,0.0,0.0,0.0,0.0,1.7312,0.0,0.0,0.0,0.0,0.0,0.0,0.0,0.0,0.0,0.0,0.0,0.0,0.0,0.0,0.0,0.0,0.0,0.0,0.0,0.0,0.0,0.0,0.0,0.0,0.0,0.0,0.0,0.0,0.0,0.0,0.0,0.0,0.0,0.0,0.0,0.0,0.0,0.0,0.0,0.0,0.0,0.0,0.0,0.0,0.0,0.0,0.0,0.0,0.0,0.0,0.0,0.0,0.0,0.0,0.0,0.0,2.9794,3.1524,3.334,3.5265,3.5705,3.5596,3.4973,3.301,3.0956,2.895,0.0,0.0,0.0,0.0,0.0,0.0,0.0,0.0,0.0,0.0,0.0,0.0,0.0,0.0,0.0,0.0,0.0,0.0,0.0,0.0,0.0,0.0,0.0,0.0,0.0,0.0,0.0,0.0,0.0,0.0,0.0,0.0,0.0,0.0,0.0,0.0,0.0,0.0,0.0,1.718,1.7576,0.0,0.0,0.0,0.0,0.0,0.0,0.0,0.0,1.8753,0.0,0.0,0.0,0.0,0.0,0.0,0.0,0.0,0.0,0.0,0.0,0.0,0.0,0.0,0.0,0.0,0.0,0.0,0.0,0.0,0.0,0.0,0.0,0.0,0.0,0.0,0.0,0.0,0.0,0.0,0.0,0.0,0.0,0.0,0.0,0.0,0.0,0.0,0.0,0.0,0.0,0.0,0.0,0.0,0.0,0.0,0.0,0.0,0.0,0.0,0.0,0.0,0.0,0.0,0.0,3.013,3.2001,3.3798,3.5504,3.576,3.5596,3.4991,3.3266,3.1267,0.0,0.0,0.0,0.0,0.0,0.0,0.0,0.0,0.0,0.0,0.0,0.0,0.0,0.0,0.0,0.0,0.0,0.0,0.0,0.0,0.0,0.0,0.0,0.0,0.0,0.0,0.0,0.0,0.0,0.0,0.0,0.0,0.0,0.0,0.0,0.0,0.0,0.0,0.0,0.0,1.8394,1.8968,1.9794,0.0,0.0,0.0,0.0,0.0,0.0,2.007,2.0169,0.0,0.0,0.0,0.0,0.0,0.0,0.0,0.0,0.0,0.0,0.0,0.0,0.0,0.0,0.0,0.0,0.0,0.0,0.0,0.0,0.0,0.0,0.0,0.0,0.0,0.0,0.0,0.0,0.0,0.0,0.0,0.0,0.0,0.0,0.0,0.0,0.0,0.0,0.0,0.0,0.0,0.0,0.0,0.0,0.0,0.0,0.0,0.0,0.0,0.0,0.0,0.0,0.0,0.0,0.0,3.0406,3.2408,3.4202,3.5614,3.5815,3.5595,3.5099,3.3484,3.1483,0.0,0.0,0.0,0.0,0.0,0.0,0.0,0.0,0.0,0.0,0.0,0.0,0.0,0.0,0.0,0.0,0.0,0.0,0.0,0.0,0.0,0.0,0.0,0.0,0.0,0.0,0.0,0.0,0.0,0.0,0.0,0.0,0.0,0.0,0.0,0.0,0.0,0.0,0.0,0.0,0.0,2.0322,2.1216,2.0452,0.0,0.0,0.0,0.0,2.0432,2.1368,0.0,0.0,0.0,0.0,0.0,0.0,0.0,0.0,0.0,0.0,0.0,0.0,0.0,0.0,0.0,0.0,0.0,0.0,0.0,0.0,0.0,0.0,0.0,0.0,0.0,0.0,0.0,0.0,0.0,0.0,0.0,0.0,0.0,0.0,0.0,0.0,0.0,0.0,0.0,0.0,0.0,0.0,0.0,0.0,0.0,0.0,0.0,0.0,0.0,0.0,0.0,0.0,0.0,0.0,0.0,0.0,3.1244,3.323,3.488,3.6072,3.6457,3.6312,3.553,3.3621,3.1612,0.0,0.0,0.0,0.0,0.0,0.0,0.0,0.0,0.0,0.0,0.0,0.0,0.0,0.0,0.0,0.0,0.0,0.0,0.0,0.0,0.0,0.0,0.0,0.0,0.0,0.0,0.0,0.0,0.0,0.0,0.0,0.0,0.0,0.0,0.0,0.0,0.0,0.0,0.0,0.0,0.0,2.0968,2.1801,2.1637,2.1273,0.0,0.0,0.0,2.2132,2.3487,0.0,0.0,0.0,0.0,0.0,0.0,0.0,0.0,0.0,0.0,0.0,0.0,0.0,0.0,0.0,0.0,0.0,0.0,0.0,0.0,0.0,0.0,0.0,0.0,0.0,0.0,0.0,0.0,0.0,0.0,0.0,0.0,0.0,0.0,0.0,0.0,0.0,0.0,0.0,0.0,0.0,0.0,0.0,0.0,0.0,0.0,0.0,0.0,0.0,0.0,0.0,0.0,0.0,0.0,0.0,2.9115,3.1671,3.3285,3.4752,3.6146,3.657,3.6312,3.5279,3.3758,3.1773,0.0,0.0,0.0,0.0,0.0,0.0,0.0,0.0,0.0,0.0,0.0,0.0,0.0,0.0,0.0,0.0,0.0,0.0,0.0,0.0,0.0,0.0,0.0,0.0,0.0,0.0,0.0,0.0,0.0,0.0,0.0,0.0,0.0,0.0,0.0,0.0,0.0,0.0,0.0,0.0,0.0,0.0,2.2236,2.2756,0.0,0.0,0.0,2.3435,2.3152,0.0,0.0,0.0,0.0,0.0,0.0,0.0,0.0,0.0,0.0,0.0,0.0,0.0,0.0,0.0,0.0,0.0,0.0,0.0,0.0,0.0,0.0,0.0,0.0,0.0,0.0,0.0,0.0,0.0,0.0,0.0,0.0,0.0,0.0,0.0,0.0,0.0,0.0,0.0,0.0,0.0,0.0,0.0,0.0,0.0,0.0,0.0,0.0,0.0,0.0,0.0,0.0,0.0,0.0,0.0,0.0,0.0,3.2095,3.3532,3.4967,3.646,3.6812,3.6457,3.5457,3.4066,0.0,0.0,0.0,0.0,0.0,0.0,0.0,0.0,0.0,0.0,0.0,0.0,0.0,0.0,0.0,0.0,0.0,0.0,0.0,0.0,0.0,0.0,0.0,0.0,0.0,0.0,0.0,1.7822,0.0,0.0,0.0,0.0,0.0,0.0,0.0,0.0,0.0,0.0,0.0,0.0,0.0,0.0,2.2792,2.3006,2.4018,2.4483,0.0,0.0,2.4686,2.4191,2.5513,2.5996,0.0,0.0,0.0,0.0,0.0,0.0,0.0,0.0,0.0,0.0,0.0,0.0,0.0,0.0,0.0,0.0,0.0,0.0,0.0,0.0,0.0,0.0,0.0,0.0,0.0,0.0,0.0,0.0,0.0,0.0,0.0,0.0,0.0,0.0,0.0,0.0,0.0,0.0,0.0,0.0,0.0,0.0,0.0,0.0,0.0,0.0,0.0,0.0,0.0,0.0,0.0,0.0,0.0,0.0,0.0,3.2525,3.4482,3.6043,3.7273,3.7329,3.7114,3.6578,3.4693,3.2796,0.0,0.0,0.0,0.0,0.0,0.0,0.0,0.0,0.0,0.0,0.0,0.0,0.0,0.0,0.0,0.0,0.0,0.0,0.0,0.0,0.0,0.0,0.0,0.0,0.0,0.0,0.0,0.0,0.0,0.0,0.0,0.0,0.0,0.0,0.0,0.0,0.0,0.0,0.0,0.0,0.0,2.4008,2.4471,2.5423,2.6045,0.0,0.0,2.6362,2.5585,2.7029,2.7306,2.4617,0.0,0.0,0.0,0.0,0.0,0.0,0.0,0.0,0.0,0.0,0.0,0.0,0.0,0.0,0.0,0.0,0.0,0.0,0.0,0.0,0.0,0.0,0.0,0.0,0.0,0.0,0.0,0.0,0.0,0.0,0.0,0.0,0.0,0.0,0.0,0.0,0.0,0.0,0.0,0.0,0.0,0.0,0.0,0.0,0.0,0.0,0.0,0.0,0.0,0.0,0.0,0.0,0.0,3.0692,3.2945,3.4703,3.6197,3.7364,3.7642,3.7351,3.642,3.4882,3.304,0.0,0.0,0.0,0.0,0.0,0.0,0.0,0.0,0.0,0.0,0.0,0.0,0.0,0.0,0.0,0.0,0.0,0.0,0.0,0.0,0.0,0.0,0.0,0.0,0.0,0.0,0.0,0.0,2.0285,2.0467,2.0354,0.0,0.0,0.0,0.0,0.0,0.0,0.0,0.0,0.0,0.0,2.4596,2.4968,2.6077,0.0,0.0,2.6488,2.6542,2.5973,2.6673,2.6738,2.5186,2.4654,0.0,0.0,0.0,0.0,0.0,0.0,0.0,0.0,0.0,0.0,0.0,0.0,0.0,0.0,0.0,0.0,0.0,0.0,0.0,0.0,0.0,0.0,0.0,0.0,0.0,0.0,0.0,0.0,0.0,0.0,0.0,0.0,0.0,0.0,0.0,0.0,0.0,0.0,0.0,0.0,0.0,0.0,0.0,0.0,0.0,0.0,0.0,0.0,0.0,0.0,0.0,0.0,3.1396,3.3878,3.5385,3.6742,3.7905,3.8103,3.7677,3.6543,3.5288,3.3579,0.0,0.0,0.0,0.0,0.0,0.0,0.0,0.0,0.0,0.0,0.0,0.0,0.0,0.0,0.0,0.0,0.0,0.0,0.0,0.0,0.0,0.0,0.0,0.0,0.0,0.0,0.0,0.0,2.1031,2.1189,2.0909,0.0,0.0,0.0,0.0,0.0,0.0,0.0,0.0,0.0,0.0,2.5511,2.5772,2.6757,2.7223,2.6708,2.6744,2.6708,2.6299,2.6436,2.6343,2.5535,0.0,0.0,0.0,0.0,0.0,0.0,0.0,0.0,0.0,0.0,0.0,0.0,0.0,0.0,0.0,0.0,0.0,0.0,0.0,0.0,0.0,0.0,0.0,0.0,0.0,0.0,0.0,0.0,0.0,0.0,0.0,0.0,0.0,0.0,0.0,0.0,0.0,0.0,0.0,0.0,0.0,0.0,0.0,0.0,0.0,0.0,0.0,0.0,0.0,0.0,0.0,0.0,0.0,0.0,3.5427,3.6698,3.7921,3.9104,3.8789,3.8164,3.7269,3.6055,3.4551,3.2742,0.0,0.0,0.0,0.0,0.0,0.0,0.0,0.0,0.0,0.0,0.0,0.0,0.0,0.0,0.0,0.0,0.0,0.0,0.0,0.0,0.0,0.0,0.0,0.0,0.0,0.0,2.1108,2.1453,2.1526,0.0,0.0,0.0,0.0,0.0,0.0,0.0,0.0,0.0,0.0,2.5638,2.6867,2.7171,2.7547,2.7775,2.7738,2.7416,2.7031,2.6664,2.6591,2.6343,0.0,0.0,0.0,0.0,0.0,0.0,0.0,0.0,0.0,0.0,0.0,0.0,0.0,0.0,0.0,0.0,0.0,0.0,0.0,0.0,0.0,0.0,0.0,0.0,0.0,0.0,0.0,0.0,2.5866,0.0,0.0,0.0,0.0,0.0,0.0,0.0,0.0,0.0,0.0,0.0,2.9105,2.9551,0.0,0.0,0.0,0.0,0.0,0.0,0.0,0.0,0.0,0.0,0.0,0.0,3.3558,3.548,3.7274,3.8523,3.918,3.9062,3.8457,3.7324,3.6328,3.4726,3.2472,0.0,0.0,0.0,0.0,0.0,0.0,0.0,0.0,0.0,0.0,0.0,0.0,0.0,0.0,0.0,0.0,0.0,0.0,0.0,0.0,0.0,0.0,0.0,0.0,0.0,2.1617,0.0,0.0,0.0,0.0,0.0,0.0,0.0,0.0,0.0,0.0,0.0,2.348,2.4585,2.5703,2.6617,2.7156,2.7323,2.75,0.0,0.0,0.0,0.0,0.0,0.0,0.0,0.0,0.0,0.0,0.0,0.0,0.0,0.0,2.4562,2.3901,2.3749,2.3773,2.3791,0.0,0.0,0.0,0.0,0.0,0.0,0.0,0.0,0.0,0.0,0.0,0.0,0.0,0.0,0.0,0.0,2.7246,0.0,0.0,0.0,0.0,0.0,0.0,0.0,0.0,2.9989,3.0791,3.0918,3.1484,3.1836,0.0,3.1543,3.0548,0.0,0.0,0.0,0.0,0.0,0.0,0.0,0.0,3.4276,3.6096,3.778,3.8826,3.918,3.9062,3.8457,3.7324,3.6035,3.4414,3.2492,3.0742,2.9348,0.0,0.0,0.0,0.0,0.0,0.0,0.0,0.0,0.0,0.0,0.0,0.0,0.0,0.0,0.0,0.0,0.0,0.0,0.0,0.0,0.0,0.0,0.0,2.2442,0.0,0.0,0.0,0.0,0.0,0.0,0.0,0.0,0.0,2.2913,2.359,2.4458,2.5429,2.6254,2.6865,2.716,0.0,0.0,0.0,0.0,0.0,0.0,0.0,2.6416,2.6398,2.6196,2.6104,2.6361,2.6306,2.6251,2.638,0.0,0.0,2.5212,2.5047,2.5047,2.5021,2.5462,2.5866,2.5994,2.6453,2.6894,0.0,0.0,0.0,0.0,0.0,0.0,0.0,0.0,2.9015,2.9015,0.0,2.8613,0.0,0.0,0.0,0.0,0.0,0.0,0.0,0.0,3.1816,3.2637,3.2374,3.3105,3.3281,3.291,3.257,3.2335,3.2257,3.1426,0.0,0.0,0.0,0.0,0.0,0.0,3.5209,3.7246,3.8239,3.8884,3.9219,3.8848,3.8239,3.7285,3.5268,3.373,3.2891,3.1973,3.0655,2.887,2.8349,0.0,0.0,0.0,0.0,0.0,0.0,0.0,0.0,0.0,0.0,0.0,0.0,0.0,0.0,0.0,0.0,0.0,0.0,0.0,0.0,2.3303,0.0,0.0,0.0,0.0,0.0,0.0,0.0,0.0,0.0,0.0,2.4324,2.4948,2.5719,2.6499,0.0,0.0,0.0,0.0,2.8113,2.7408,2.7591,2.7701,2.7371,2.7279,2.7243,2.7243,0.0,0.0,2.7243,2.6967,2.6848,2.7187,2.7279,2.7151,2.6784,2.6628,2.6591,2.6628,2.6692,2.6839,2.7187,2.7389,2.7628,3.4606,0.0,0.0,0.0,0.0,3.0605,3.0957,3.126,3.126,3.126,3.1211,3.0781,0.0,0.0,0.0,0.0,0.0,0.0,3.1573,3.1534,3.3039,3.4016,3.4473,3.4707,3.5078,3.5547,3.5117,3.4922,3.4883,3.4375,3.3105,3.1142,0.0,0.0,0.0,0.0,3.6211,3.7734,3.9219,3.9883,3.9707,3.959,3.8809,3.7344,3.5508,3.4394,3.4141,3.2461,3.117,3.0458,2.9222,0.0,0.0,0.0,0.0,0.0,0.0,0.0,0.0,0.0,0.0,0.0,0.0,0.0,0.0,0.0,0.0,0.0,0.0,0.0,2.3791,2.3938,2.3859,0.0,0.0,0.0,0.0,0.0,0.0,0.0,0.0,0.0,2.6215,2.6058,2.6123,0.0,0.0,2.7426,2.761,2.8087,2.8407,2.8462,0.0,0.0,0.0,2.8425,2.804,2.804,2.8307,2.8399,2.8124,2.8436,2.8693,2.8498,2.8491,2.8546,2.8674,2.8014,2.761,2.783,2.8095,2.8436,2.8821,2.9104,2.9397,3.8701,3.4974,3.4416,3.4056,3.3923,3.4521,3.4954,3.5201,3.5005,3.4902,3.4831,3.3968,3.3608,3.3534,3.3246,0.0,0.0,0.0,3.4677,3.4913,3.6043,3.6934,3.7632,3.7837,3.8206,3.8699,3.8234,3.7726,3.7151,3.673,3.5434,3.334,0.0,0.0,3.4082,3.5703,3.7148,3.8418,3.9611,4.0059,3.9629,3.9297,3.8535,3.7324,3.5781,3.4805,3.4453,3.3016,3.1849,3.0926,2.9974,2.8813,0.0,0.0,0.0,0.0,0.0,0.0,0.0,0.0,0.0,0.0,0.0,2.2968,0.0,0.0,0.0,0.0,2.4292,2.4666,2.5113,2.5003,0.0,0.0,0.0,0.0,0.0,0.0,0.0,2.4845,2.548,2.627,2.7279,2.7169,2.7206,2.783,2.7922,2.8014,2.8252,0.0,2.8968,2.9207,2.936,2.9544,2.9782,2.9415,2.9122,2.9104,2.9335,2.9397,2.9177,2.9507,2.9758,2.9525,2.947,2.9544,2.9813,2.9214,2.8821,2.9067,2.9287,2.9611,2.9984,3.0387,3.0681,4.226,4.1749,4.0501,3.9441,3.8662,3.9513,3.9888,3.9866,3.9318,3.912,3.8979,3.7616,3.7264,3.7734,3.7786,0.0,0.0,3.7669,3.8653,3.9208,4.0025,4.0694,4.1221,4.1593,4.1868,4.1878,4.1495,4.0631,3.9338,3.8887,3.7975,3.664,3.585,3.5677,3.6133,3.6992,3.8047,3.9238,3.9746,3.9766,3.9258,3.8418,3.7754,3.7305,3.6055,3.5,3.4192,3.3633,3.2552,3.0857,3.0683,2.9828,2.8026,0.0,0.0,0.0,0.0,0.0,0.0,0.0,0.0,0.0,0.0,0.0,0.0,0.0,0.0,0.0,2.5627,0.0,2.6591,2.6306,0.0,0.0,0.0,2.4948,2.4948,2.4959,2.5278,2.6021,0.0,0.0,0.0,0.0,2.8663,2.9122,2.9133,2.9048,2.9115,2.9445,2.9702,2.9721,3.007,3.0296,3.0314,3.0241,3.0149,3.0094,3.0222,3.0204,3.0149,3.0204,3.0241,3.0149,3.0185,3.0204,3.0241,3.0204,3.0259,3.0259,3.0241,3.0351,3.0736,3.1084,3.1322,4.7457,4.6654,4.6721,4.4144,4.0076,4.0561,4.0771,4.0749,4.0233,4.0003,3.9916,3.8841,3.8706,3.9176,3.9208,3.9238,3.9345,4.006,4.0474,4.0606,4.1166,4.168,4.2085,4.2216,4.2423,4.2717,4.3014,4.3006,4.2635,4.2653,4.2448,4.2099,4.1898,4.0195,3.7175,3.8164,3.9062,3.9726,4.0488,4.0508,3.9746,3.8867,3.8066,3.7305,3.6074,3.5137,3.4551,3.3516,3.2626,3.1915,3.1375,3.0464,2.9159,2.7991,0.0,0.0,0.0,0.0,0.0,0.0,0.0,0.0,0.0,2.439,2.4482,0.0,2.5617,0.0,2.6435,2.6949,2.7059,2.6967,0.0,0.0,2.6224,2.6151,2.6196,2.6426,2.671,2.6894,2.7279,2.794,2.9042,2.9262,2.9702,3.0657,3.0033,2.9574,2.9855,3.0241,3.0497,3.0516,3.0841,3.1084,3.1047,3.0846,3.0552,3.0259,3.0442,3.0552,3.0259,3.0442,3.0552,3.0277,3.0204,3.0314,3.0589,3.0644,3.0804,3.1024,3.0896,3.0772,3.1157,3.1355,3.1428,5.0239,4.971,4.9782,4.7961,4.5024,4.4773,4.4647,4.4601,4.3857,4.3503,4.3435,4.2459,4.1697,4.1287,4.2066,4.2275,4.2028,4.2854,4.3366,4.3595,4.387,4.4193,4.4673,4.4902,4.5153,4.5359,4.5896,4.5811,4.5214,4.5249,4.4967,4.4294,4.4477,4.3336,4.0976,4.0837,4.0733,4.0507,4.0742,4.0566,3.9902,3.9023,3.8194,3.7241,3.6194,3.5231,3.4334,3.3481,3.2586,3.1604,3.1142,3.0423,2.932,2.8349,2.7408,0.0,0.0,0.0,0.0,0.0,0.0,0.0,0.0,0.0,0.0,0.0,2.66,0.0,2.7206,0.0,2.7463,2.7463,2.7371,2.7169,2.7132,2.7151,2.7151,2.7334,2.761,2.7977,2.8197,2.8785,2.9959,3.0143,3.0455,3.13,3.0841,3.0492,3.0662,3.0791,3.0846,3.1029,3.1263,3.141,3.141,3.1226,3.0974,3.0822,3.0932,3.0974,3.0772,3.0932,3.1006,3.0772,3.0749,3.0791,3.1043,3.1047,3.1171,3.13,3.1244,3.1263,3.1579,3.1832,3.1942,5.1622,5.1537,5.1081,5.0912,5.084,4.9806,4.9335,4.9143,4.805,4.7569,4.7449,4.6511,4.5243,4.3887,4.5458,4.5575,4.4582,4.5672,4.6463,4.692,4.692,4.7161,4.7617,4.8147,4.8387,4.8411,4.895,4.8513,4.7306,4.7341,4.6707,4.5461,4.5797,4.591,4.5632,4.4294,4.2895,4.1521,4.1127,4.0638,3.9958,3.9171,3.8311,3.7366,3.6441,3.5388,3.4203,3.3627,3.2594,3.0967,3.0751,3.0231,2.926,2.8465,2.783,0.0,2.6664,0.0,0.0,0.0,0.0,0.0,0.0,0.0,0.0,2.7059,2.7444,2.7848,2.7885,2.7885,2.794,2.7958,2.7958,2.7958,2.7969,2.7958,2.8014,2.8032,2.8326,2.9078,2.917,2.958,3.0589,3.0791,3.0937,3.1286,3.1355,3.13,3.1355,3.1084,3.1043,3.1373,3.141,3.141,3.141,3.1391,3.1391,3.1391,3.1373,3.141,3.1373,3.1373,3.1391,3.1373,3.1355,3.1373,3.141,3.1391,3.1428,3.1469,3.1469,3.1561,3.1891,3.2203,3.2533,5.2175,5.2115,5.2018,5.197,5.1959,5.1333,5.0563,4.9672,4.8603,4.7906,4.7497,4.7305,4.7245,4.7332,4.7686,4.794,4.8096,4.7926,4.7906,4.8002,4.7978,4.805,4.8171,4.8676,4.895,4.8998,4.9469,4.9606,4.9362,4.9781,4.983,4.9582,4.9641,4.9022,4.7786,0.0,0.0,0.0,4.3356,4.247,4.0389,3.9775,3.9073,3.8181,3.6883,0.0,3.5425,3.434,3.33,3.2435,3.1566,0.0,0.0,0.0,0.0,0.0,0.0,0.0,0.0,0.0,0.0,0.0,2.7911,2.7628,2.7151,2.7444,2.7848,2.8223,2.8307,2.8407,2.8748,2.8785,2.8785,2.8785,2.8785,2.8895,2.9207,2.9262,2.9464,2.9892,2.9965,3.0167,3.0681,3.0791,3.0969,3.1336,3.141,3.141,3.141,3.1355,3.1336,3.1377,3.1428,3.141,3.141,3.141,3.141,3.141,3.141,3.141,3.141,3.141,3.141,3.1428,3.141,3.1428,3.1428,3.141,3.1557,3.1836,3.1924,3.1909,3.1983,3.2074,3.2203,5.3029,0.0,5.3029,5.3053,0.0,5.2499,5.2007,5.1381,4.9793,4.8772,4.8291,4.8291,4.8435,4.8676,4.8676,4.882,4.9095,4.883,4.871,4.8676,4.8676,4.8676,4.8734,4.9493,4.9734,4.9528,5.0287,5.0551,5.0346,5.0576,5.084,5.1105,5.1105,5.0807,5.0297,5.0002,4.8136,4.4741,4.4929,4.4183,4.2444,4.1249,4.0404,3.9913,0.0,0.0,0.0,0.0,0.0,0.0,0.0,0.0,0.0,0.0,0.0,2.9071,2.8803,2.8601,2.8417,2.8399,2.8656,2.9232,2.9287,2.903,2.8436,2.8766,2.9048,2.925,2.9287,2.936,2.9562,2.958,2.958,2.958,2.958,2.9672,2.9837,2.9904,3.0039,3.0406,3.0529,3.0644,3.1061,3.1116,3.1189,3.1373,3.141,3.141,3.1428,3.1561,3.1689,3.1671,3.152,3.141,3.141,3.141,3.141,3.141,3.141,3.141,3.141,3.141,3.1433,3.1667,3.1689,3.1726,3.1928,3.1983,3.2056,3.2339,3.287,3.3406,3.3558,3.3648,3.3747,5.3894,5.3785,5.3785,5.3785,5.3798,5.3269,5.3041,5.2849,0.0,0.0,0.0,4.9672,4.9624,4.9493,4.9493,4.948,4.9408,4.9311,4.9277,4.9408,4.9373,4.9421,4.96,5.0527,5.0744,5.0394,5.1237,5.1393,5.0984,5.0984,5.1201,5.1586,5.1634,5.1826,5.2211,5.185,5.0071,4.7054,4.6588,4.5904,4.4734,4.307,4.215,4.2016,4.0179,3.9196,3.9179,3.782,3.6286,3.4635,3.4014,3.2936,3.1224,3.1646,3.1535,3.0622,3.0057,2.9867,3.0037,2.9824,2.9886,3.0277,3.0369,3.0204,2.9758,3.0002,3.0204,3.0204,3.0204,3.0204,3.0204,3.0204,3.0204,3.0204,3.0204,3.0222,3.0296,3.0296,3.0461,3.0841,3.0901,3.1011,3.1336,3.1391,3.1414,3.1501,3.1557,3.1524,3.163,3.1744,3.1818,3.1799,3.1543,3.141,3.141,3.141,3.1428,3.1538,3.1483,3.1428,3.1501,3.1488,3.1598,3.1763,3.1928,3.2243,3.2718,3.2883,3.3032,3.3377,3.4357,3.531,3.5706,3.6004,3.6203,5.4231,5.3785,5.3785,5.3785,5.3774,5.3306,5.2849,5.2392,5.2103,5.1898,5.1826,5.1862,5.1586,5.1153,5.1153,5.0912,5.0455,4.9974,5.0057,0.0,5.0479,5.072,5.1177,5.1778,5.2018,5.1983,5.2127,5.2175,5.2103,5.2079,5.2091,5.2163,5.2163,5.2247,5.2259,5.2247,5.1717,5.0697,4.9251,4.7599,4.5747,4.4932,4.4308,4.3847,4.2298,4.1309,4.0976,3.9352,3.7994,3.6993,3.4717,3.374,3.4399,3.2316,3.1875,3.368,3.188,3.0972,3.1728,3.0752,3.0277,3.0681,3.1043,3.0932,3.0185,3.0167,3.0204,3.0204,3.0241,3.0204,3.0204,3.0222,3.0259,3.0241,3.0222,3.0332,3.0662,3.0717,3.0882,3.1281,3.1318,3.1355,3.1465,3.1465,3.1612,3.1836,3.1909,3.2019,3.2184,3.1905,3.1538,3.1501,3.1446,3.141,3.1501,3.1428,3.1543,3.1873,3.1648,3.1589,3.1925,3.1962,3.199,3.1672,3.2092,3.2674,3.3681,3.3895,3.4635,3.6,3.6771,3.7217,3.7608,3.8516,3.9039,5.4303,5.387,5.4135,5.4255,5.4255,5.4303,5.4039,5.3558,5.3534,5.3053,5.2344,5.232,5.2175,5.1959,5.1922,5.1802,5.1537,5.1297,5.1357,5.1537,5.1562,5.1682,5.1946,5.2451,5.2608,5.2344,5.2608,5.2608,5.2344,5.232,5.2464,5.2753,5.298,5.298,5.2753,5.2753,5.2488,5.1922,5.0866,4.9568,4.8108,4.6711,4.6047,4.6012,4.4272,4.3332,4.3377,4.1701,4.0347,3.947,3.7576,3.6379,3.5921,3.4264,3.3503,3.3906,3.2175,3.1613,3.2781,3.2979,3.3088,3.3273,3.2988,3.265,3.2321,3.1399,3.0846,3.0877,3.0859,3.0827,3.0846,3.0859,3.0846,3.0846,3.0827,3.0919,3.1116,3.1341,3.1524,3.1708,3.1909,3.2071,3.2071,3.2038,3.2093,3.2294,3.2331,3.2404,3.2588,3.2328,3.2071,3.2038,3.2038,3.2038,3.2038,3.2038,3.2038,3.2038,3.1854,3.2032,3.2582,3.2783,3.3168,3.4036,3.4243,3.4638,3.5654,3.5848,3.6375,3.6991,3.8385,3.8944,3.9366,4.0376,4.1013,5.4893,5.4382,5.4768,5.4861,5.4808,5.5217,5.5097,5.4616,5.4592,5.387,5.2716,5.262,5.2572,5.2451,5.2488,5.2403,5.232,5.232,5.2368,5.2488,5.2572,5.2729,5.2836,5.3258,5.3197,5.286,5.3138,5.3029,5.2668,5.262,5.2873,5.3245,5.363,5.363,5.3245,5.3258,5.2932,5.2344,5.2031,5.1357,5.0263,4.8403,4.7534,4.7681,4.6006,4.5085,4.5191,4.3805,4.2482,4.1465,4.0128,3.881,3.7594,3.6383,3.5531,3.4947,3.3544,3.3066,3.4116,3.5156,3.5749,3.5718,3.5082,3.4655,3.4539,3.345,3.2257,3.1686,3.1396,3.1391,3.1373,3.1373,3.141,3.141,3.1501,3.1506,3.1561,3.1891,3.2148,3.2166,3.2404,3.257,3.2606,3.2606,3.2625,3.2698,3.2735,3.2735,3.2735,3.2917,3.3219,3.3133,3.2895,3.2551,3.2621,3.2807,3.2865,3.2697,3.2832,3.3341,3.3965,3.4128,3.4504,3.5895,3.619,3.6535,3.7457,3.7786,3.8023,3.8646,3.9822,4.0613,4.071,4.1431,4.2212,5.6689,5.5967,5.5929,5.5723,5.54,5.5448,5.5183,5.4664,5.4616,5.4241,5.3654,5.3678,5.3413,5.3066,5.3041,5.2764,5.2416,5.232,5.2608,5.309,5.3461,5.3918,5.4279,5.4399,5.4447,5.4279,5.3942,5.3702,5.3582,5.363,5.3678,5.3712,5.3798,5.3798,5.375,5.375,5.3269,5.2307,5.2753,5.244,5.1321,4.975,4.891,4.894,4.734,4.6277,4.5878,4.4912,4.3797,4.2506,4.0927,4.0155,4.0132,3.813,3.774,3.9666,3.7687,3.649,3.6566,3.6682,3.6832,3.6778,3.6682,3.6616,3.6616,3.6426,3.5055,3.2832,3.1746,3.1543,3.141,3.1492,3.1561,3.1538,3.1842,3.1946,3.2001,3.2294,3.2533,3.2533,3.2625,3.2606,3.2814,3.2947,3.3025,3.3576,3.3681,3.3647,3.3714,3.4452,3.5068,3.4776,3.3799,3.2929,3.3025,3.3391,3.4185,3.4803,3.5004,3.5378,3.5888,3.5994,3.6028,3.7024,3.6802,3.7604,3.8775,3.9451,3.9902,4.0666,4.1488,4.2029,4.2061,4.218,4.2307,5.7092,5.6497,5.6791,5.7018,5.7092,5.7116,5.6488,5.5519,5.5495,5.4844,5.387,5.3785,5.387,5.398,5.3654,5.3558,5.3654,5.3654,5.375,5.3991,5.4183,5.4399,5.4592,5.4592,5.4447,5.4183,5.4231,5.4111,5.3833,5.3785,5.3785,5.3785,5.3785,5.3785,5.3785,5.3785,5.3606,5.3197,5.3101,5.2729,5.1922,5.072,4.9878,4.9504,4.8315,4.7401,4.6839,4.6019,4.5095,4.4064,4.2589,4.1765,4.1831,3.9427,3.8499,3.9459,3.8625,3.8027,3.8027,3.8741,3.9201,3.9232,3.8686,3.8359,3.8327,3.7717,3.6631,3.54,3.3869,3.2969,3.2969,3.3001,3.276,3.2417,3.2997,3.3322,3.2416,3.275,3.2973,3.2991,3.3175,3.3694,3.4455,3.531,3.5856,3.6068,3.6054,3.5933,3.6068,3.6603,3.687,3.6863,3.6276,3.593,3.5805,3.6103,3.6471,3.6542,3.6614,3.6944,3.7656,3.7835,3.7969,3.9004,3.8994,3.9305,4.0536,4.0783,4.1117,4.1917,4.2169,4.2307,4.2307,4.2307,4.2307,5.7759,5.7372,5.7601,5.7917,5.8286,5.8138,5.7393,5.6305,5.6072,5.5297,5.4208,5.4305,5.4592,5.4865,5.4317,5.4255,5.4592,5.476,5.4832,5.4832,5.4977,5.4977,5.4856,5.5001,5.476,5.4351,5.4496,5.4327,5.3833,5.3785,5.3785,5.3785,5.3785,5.3785,5.3785,5.3785,5.375,5.3582,5.3365,5.2956,5.2283,5.1537,5.0744,4.9913,4.8844,4.805,4.7521,4.6729,4.5995,4.5183,4.4002,4.3271,4.2934,4.1029,3.9859,3.9765,3.9765,3.9765,3.9765,4.0686,4.1206,4.1167,4.0554,4.0201,4.0042,3.9368,3.8798,3.8477,3.6772,3.5497,3.4843,3.4843,3.453,3.3959,3.4844,3.4988,3.4169,3.4317,3.4632,3.4569,3.5046,3.531,3.6378,3.7293,3.7826,3.786,3.7947,3.8067,3.82,3.8312,3.8663,3.8696,3.8927,3.884,3.8366,3.8181,3.825,3.8385,3.8358,3.8718,3.9333,3.9467,3.9583,4.0301,4.0837,4.1198,4.1491,4.1708,4.1733,4.1857,4.2063,4.2307,4.2307,4.2307,4.2307,5.9162,5.8749,5.8393,5.83,5.8261,5.7745,5.7141,5.6576,5.6047,5.5482,5.499,5.5482,5.5833,5.5828,5.5037,5.4592,5.4712,5.5145,5.5361,5.5409,5.5866,5.5803,5.5433,5.5851,5.5803,5.5193,5.4808,5.4375,5.3809,5.3785,5.3785,5.3785,5.3785,5.3785,5.3785,5.3785,5.3582,5.3269,5.3534,5.3293,5.2464,5.2271,5.1453,5.0057,4.8868,4.8098,4.7569,4.6983,4.6301,4.5428,4.484,4.4373,4.3992,4.3072,4.2351,4.212,4.2065,4.2088,4.2034,4.2106,4.2146,4.2161,4.2011,4.2079,4.1906,4.1724,4.147,4.1354,3.9873,3.8476,3.7221,3.6808,3.6596,3.6453,3.6985,3.7204,3.7135,3.7101,3.7773,3.7673,3.7593,3.7734,3.7967,3.8034,3.8399,3.8432,3.8266,3.8333,3.8663,3.9441,3.9997,4.0322,4.0829,4.1174,3.8885,3.9118,3.9714,3.9842,4.0186,4.0635,4.0951,4.1198,4.132,4.1389,4.1512,4.1742,4.2101,4.2238,4.2192,4.2192,4.2169,4.2307,4.2307,4.2307,4.2399,5.9405,5.9276,5.912,5.9081,5.9032,5.847,5.7769,5.7033,5.645,5.5744,5.5188,5.5644,5.5913,5.592,5.6319,5.6129,5.5674,5.5803,5.5899,5.5963,5.6092,5.6131,5.5947,5.6092,5.5938,5.5433,5.5193,5.4664,5.3894,5.3785,5.3785,5.3785,5.3785,5.3785,5.3785,5.3785,5.3688,5.3582,5.375,5.3485,5.2849,5.2488,5.1862,5.0912,4.9552,4.87,4.8541,4.769,4.6903,4.6244,4.5858,4.5402,4.4885,4.391,4.3313,4.3198,4.2651,4.2445,4.2697,4.2491,4.2307,4.2307,4.2307,4.2307,4.2307,4.2307,4.2215,4.1914,4.1374,4.0617,4.0218,3.9048,3.7742,3.7051,3.791,3.84,3.7716,3.7798,3.8067,3.8233,3.8795,3.9441,3.9605,4.0192,4.0765,4.0797,4.0765,4.07,4.0797,4.1271,4.1463,4.1559,4.1934,4.1988,4.1174,4.103,4.1347,4.1456,4.167,4.1651,4.1871,4.1825,4.1894,4.1848,4.1971,4.2017,4.2284,4.2284,4.2307,4.2307,4.2307,4.2307,4.2307,4.2514,4.2706,5.9508,5.9508,5.9508,5.9508,5.9433,5.893,5.8226,5.7474,5.7062,5.6402,5.5893,5.6463,5.6747,5.6782,5.7572,5.7565,5.6924,5.6728,5.661,5.6452,5.6452,5.6395,5.6236,5.6356,5.6203,5.5698,5.5458,5.4928,5.4097,5.3857,5.3785,5.3785,5.3785,5.3785,5.3785,5.3785,5.3785,5.3785,5.3785,5.363,5.3269,5.2812,5.2283,5.1634,5.0335,4.9456,4.9119,4.8219,4.7497,4.7007,4.6595,4.6064,4.5378,4.4516,4.4017,4.3923,4.3221,4.2926,4.3188,4.2835,4.2559,4.2536,4.2399,4.2307,4.2307,4.2307,4.2307,4.2215,4.2032,4.1948,4.1722,4.0608,3.934,3.871,3.9601,3.999,3.9099,3.9281,3.9497,3.9703,4.0322,4.0797,4.0981,4.171,4.2093,4.2307,4.2307,4.2307,4.2307,4.2307,4.2307,4.2307,4.2243,4.2275,4.1902,4.1834,4.1906,4.2025,4.2047,4.222,4.2307,4.2307,4.2307,4.2307,4.2307,4.2307,4.2307,4.2307,4.2307,4.2307,4.233,4.2353,4.2536,4.2844,4.3028,5.9508,5.9483,5.9483,5.9458,5.9408,5.8855,5.8353,5.7939,5.7838,5.7412,5.7012,5.8076,5.8224,5.818,5.8553,5.8603,5.8173,5.7755,5.7361,5.7028,5.6988,5.6708,5.6308,5.6692,5.6572,5.602,5.5602,5.5073,5.4471,5.4039,5.3785,5.3785,5.3785,5.3785,5.3785,5.3785,5.3785,5.3785,5.3785,5.3761,5.375,5.3221,5.2729,5.2187,5.1153,5.0119,4.9191,4.8555,4.7978,4.7473,4.7016,4.6292,4.5633,4.5143,4.4794,4.4449,4.4005,4.3795,4.3762,4.3326,4.3005,4.2936,4.2614,4.2307,4.2307,4.2307,4.2307,4.2284,4.2215,4.2101,4.1773,4.1465,4.1354,4.2083,4.177,4.1752,4.1884,4.2134,4.2243,4.1998,4.2029,4.2243,4.2243,4.2243,4.2307,4.2307,4.2307,4.2307,4.2307,4.2307,4.2307,4.2307,4.2307,4.2307,4.2307,4.2307,4.2252,4.2252,4.2252,4.2307,4.2307,4.2307,4.2307,4.2307,4.2307,4.2307,4.2307,4.2307,4.2307,4.2307,4.2353,4.2422,4.2605,4.2913,4.3326,5.9508,5.9433,5.9106,5.9182,5.9357,5.8529,5.8227,5.8403,5.8077,5.7801,5.7775,5.8365,5.8653,5.8664,5.9064,5.9081,5.8731,5.8535,5.8104,5.7512,5.7418,5.7163,5.6868,5.6925,5.654,5.5698,5.5097,5.4592,5.4183,5.3905,5.3785,5.3785,5.3809,5.3785,5.3785,5.3785,5.3785,5.3785,5.3785,5.3785,5.3726,5.298,5.2488,5.2187,5.1273,5.0335,4.9672,4.8772,4.805,4.7545,4.7353,4.702,4.6532,4.6034,4.5682,4.5386,4.4639,4.4279,4.4232,4.3611,4.3129,4.3005,4.2614,4.233,4.2307,4.2307,4.2307,4.2261,4.204,4.1834,4.1994,4.1765,4.1581,4.1298,4.1581,4.188,4.1948,4.2123,4.2284,4.2307,4.2307,4.2307,4.2307,4.2307,4.2307,4.2307,4.2307,4.2307,4.2307,4.2307,4.2307,4.2307,4.2307,4.2307,4.2307,4.2307,4.2307,4.2307,4.2307,4.2307,4.2307,4.2307,4.2307,4.2307,4.2307,4.2307,4.2307,4.2307,4.2307,4.233,4.2353,4.2468,4.2582,4.2995,4.3602,5.9508,5.9458,5.9156,5.9182,5.9433,5.8755,5.8554,5.8704,5.8579,5.8378,5.8353,5.878,5.9006,5.9043,5.9357,5.9328,5.9159,5.9095,5.877,5.8104,5.7671,5.7458,5.722,5.7061,5.6692,5.6035,5.5482,5.501,5.4712,5.4496,5.4327,5.4159,5.4073,5.4015,5.3809,5.3785,5.3785,5.3785,5.3785,5.3785,5.3654,5.3004,5.2512,5.2247,5.1441,5.0683,4.9937,4.9239,4.8531,4.7906,4.7617,4.7364,4.7174,4.6722,4.6433,4.6217,4.5632,4.5106,4.4897,4.4258,4.3669,4.3428,4.2893,4.2498,4.2466,4.2402,4.2307,4.2238,4.2055,4.1994,4.2192,4.2086,4.1719,4.1412,4.1696,4.1857,4.1926,4.2132,4.2284,4.2307,4.2307,4.2307,4.2307,4.2307,4.2307,4.2307,4.2307,4.2307,4.2307,4.2307,4.2307,4.2307,4.2307,4.2307,4.2307,4.2307,4.2307,4.2307,4.2307,4.2307,4.2307,4.2307,4.2307,4.2307,4.2307,4.2307,4.2307,4.2307,4.2307,4.233,4.2468,4.2789,4.311,4.3638,4.4176,5.9508,5.9508,5.9458,5.9433,5.9483,5.9357,5.9106,5.8905,5.9232,5.9106,5.8855,5.9182,5.9408,5.9408,5.9433,5.9508,5.9508,5.9444,5.9251,5.877,5.8183,5.771,5.7512,5.7083,5.6765,5.6668,5.6212,5.5996,5.5755,5.5337,5.5121,5.4688,5.4496,5.4351,5.3991,5.3833,5.3785,5.3785,5.3785,5.3785,5.3798,5.3317,5.2825,5.2344,5.173,5.096,5.0154,4.9817,4.9335,4.8411,4.7882,4.7617,4.7503,4.7222,4.7008,4.6898,4.6607,4.61,4.5667,4.5122,4.4686,4.4246,4.3563,4.2915,4.3055,4.2934,4.2806,4.2751,4.2549,4.2417,4.2462,4.2316,4.2238,4.2261,4.2192,4.2215,4.2284,4.2307,4.2307,4.2307,4.2307,4.2307,4.2307,4.2307,4.2307,4.2307,4.2307,4.2307,4.2307,4.2307,4.2307,4.2307,4.2307,4.2307,4.2307,4.2307,4.2307,4.2307,4.2307,4.2307,4.2307,4.2307,4.2307,4.2307,4.2307,4.2307,4.2307,4.2307,4.2399,4.2536,4.2844,4.328,4.3625,4.3969,4.4176,5.9508,5.9458,5.9081,5.9156,5.9408,5.9106,5.9081,5.9282,5.9408,5.9207,5.8892,5.9257,5.9307,5.8967,5.9357,5.9508,5.9508,5.9508,5.9469,5.9289,5.8848,5.8183,5.7534,5.6833,5.6468,5.6419,5.6035,5.5626,5.5578,5.5241,5.5001,5.5145,5.4471,5.4207,5.4303,5.3953,5.3809,5.3785,5.3785,5.3785,5.375,5.3341,5.2849,5.2283,5.1778,5.1177,5.0503,5.0105,4.9624,4.895,4.8397,4.8074,4.8026,4.7614,4.7232,4.7032,4.6931,4.6626,4.6214,4.5757,4.5427,4.5254,4.4634,4.4325,4.4358,4.4261,4.4196,4.4094,4.3691,4.3229,4.3119,4.2673,4.2362,4.2307,4.2307,4.2307,4.2307,4.2307,4.2307,4.2307,4.2307,4.2307,4.2307,4.2307,4.2307,4.2307,4.2307,4.2307,4.2307,4.2307,4.2307,4.2307,4.2307,4.2307,4.2307,4.2307,4.2307,4.2307,4.2307,4.2307,4.2307,4.2307,4.2307,4.2307,4.2307,4.2307,4.2307,4.2307,4.2491,4.2637,4.2775,4.2949,4.3372,4.3716,4.3762,5.9508,5.9483,5.9156,5.9207,5.9458,5.9182,5.9207,5.9458,5.9483,5.9357,5.9156,5.9332,5.9332,5.9106,5.9357,5.9508,5.9508,5.9508,5.9508,5.9405,5.9081,5.8496,5.7834,5.7094,5.68,5.6737,5.6266,5.6131,5.6083,5.5746,5.5578,5.5313,5.4784,5.4447,5.4183,5.3977,5.3785,5.3785,5.3785,5.3785,5.3761,5.3341,5.2849,5.2283,5.1778,5.1249,5.072,5.0383,4.9913,4.9191,4.8637,4.8325,4.8243,4.7786,4.7422,4.7198,4.7198,4.7027,4.6599,4.6248,4.601,4.574,4.5376,4.5184,4.5048,4.4984,4.4863,4.4446,4.405,4.3656,4.3232,4.2691,4.2477,4.2614,4.2445,4.2307,4.2307,4.2307,4.2307,4.2307,4.2307,4.2307,4.2307,4.2307,4.2307,4.2307,4.2307,4.2307,4.2307,4.2307,4.2307,4.2307,4.2307,4.2307,4.2307,4.2307,4.2307,4.2307,4.2307,4.2307,4.2307,4.2307,4.2307,4.2307,4.2307,4.2307,4.2307,4.2307,4.2376,4.2468,4.2514,4.2766,4.3234,4.3395,4.3441,5.9508,5.9508,5.9508,5.9508,5.9508,5.9483,5.9458,5.9483,5.9508,5.9433,5.9357,5.9458,5.9408,5.9433,5.9408,5.9508,5.9508,5.9508,5.9508,5.9431,5.9159,5.877,5.8457,5.7765,5.7479,5.74,5.7156,5.6925,5.678,5.6828,5.6419,5.5746,5.5433,5.4856,5.4303,5.3966,5.3785,5.3785,5.3785,5.3785,5.3726,5.3317,5.2849,5.2283,5.161,5.1153,5.0816,5.06,5.0263,4.9335,4.8748,4.8613,4.8459,4.7978,4.7714,4.7632,4.7575,4.7287,4.6983,4.687,4.6614,4.6237,4.5891,4.5618,4.5681,4.5598,4.5279,4.4853,4.4339,4.3935,4.3275,4.2731,4.2903,4.3101,4.2816,4.2422,4.2376,4.233,4.2307,4.2307,4.2307,4.2307,4.2307,4.2307,4.2307,4.2307,4.2307,4.2307,4.2307,4.2307,4.2307,4.2307,4.2307,4.2307,4.2307,4.2307,4.2307,4.2307,4.2307,4.2307,4.2307,4.2307,4.2307,4.2307,4.2307,4.2307,4.2307,4.2307,4.2353,4.2468,4.2605,4.289,4.3165,4.311,4.3133,5.9508,5.9508,5.9508,5.9508,5.9508,5.9508,5.9508,5.9508,5.9508,5.9282,5.9056,5.9307,5.9282,5.8956,5.9332,5.9508,5.9508,5.9508,5.9508,5.9508,5.9469,5.9353,5.9004,5.8183,5.7631,5.7512,5.7195,5.7021,5.6973,5.6668,5.6516,5.6516,5.5409,5.4856,5.4904,5.4097,5.3785,5.3785,5.3785,5.3785,5.375,5.3365,5.2873,5.2259,5.1393,5.0888,5.0744,5.0696,5.0576,5.0322,4.9865,4.9504,4.9311,4.8613,4.8291,4.8339,4.7882,4.7642,4.7786,4.7497,4.7281,4.7055,4.6918,4.7029,4.7029,4.6891,4.6619,4.6155,4.5523,4.4759,4.4038,4.3927,4.3952,4.3933,4.3429,4.2945,4.2844,4.2568,4.233,4.2307,4.2307,4.2307,4.2307,4.2307,4.2307,4.2307,4.2307,4.2307,4.2307,4.2307,4.2307,4.2307,4.2307,4.2307,4.2307,4.2307,4.2307,4.2307,4.2307,4.2307,4.2307,4.2307,4.2307,4.2307,4.2307,4.2307,4.2307,4.233,4.2353,4.2536,4.2674,4.2858,4.2949,4.2904,4.2835,5.9357,5.9182,5.9382,5.9357,5.9207,5.9382,5.9508,5.9508,5.9508,5.9357,5.9182,5.9408,5.9332,5.9106,5.9357,5.9508,5.9508,5.9508,5.9508,5.9508,5.9508,5.9508,5.9392,5.8692,5.8143,5.7892,5.7299,5.7021,5.6925,5.6717,5.6596,5.6548,5.5506,5.5001,5.4928,5.4193,5.3833,5.3785,5.3785,5.3785,5.375,5.3582,5.3004,5.2235,5.1297,5.0696,5.0696,5.0696,5.0696,5.0624,5.0407,5.0154,4.9841,4.9143,4.8772,4.8555,4.8291,4.7834,4.7858,4.769,4.7473,4.7497,4.7497,4.7497,4.7497,4.7497,4.7233,4.6767,4.6244,4.573,4.5169,4.4681,4.4753,4.4818,4.423,4.3665,4.33,4.2733,4.2307,4.2307,4.2307,4.2307,4.2307,4.2307,4.2307,4.2307,4.2307,4.2307,4.2307,4.2307,4.2307,4.2307,4.2307,4.2307,4.2307,4.2307,4.2307,4.2307,4.2307,4.2307,4.2307,4.2307,4.2307,4.2307,4.2307,4.2307,4.2307,4.233,4.233,4.2399,4.2536,4.2697,4.2743,4.2628,4.2559,5.9106,5.8716,5.9106,5.9031,5.883,5.9182,5.9408,5.9508,5.9508,5.9483,5.9483,5.9508,5.9458,5.9458,5.9332,5.9382,5.9382,5.9508,5.9508,5.9508,5.9508,5.9508,5.9392,5.9043,5.8653,5.8286,5.7537,5.718,5.714,5.6997,5.6765,5.6308,5.5698,5.5217,5.4736,5.4135,5.3785,5.3785,5.3785,5.3785,5.3774,5.3654,5.3077,5.2115,5.1417,5.0912,5.0864,5.0792,5.0744,5.0816,5.0744,5.049,5.0057,4.9528,4.9071,4.8613,4.8445,4.8098,4.7834,4.7617,4.7497,4.7497,4.7497,4.7497,4.7497,4.7449,4.7233,4.692,4.6534,4.6469,4.6255,4.5761,4.5606,4.5616,4.5071,4.4375,4.378,4.3046,4.2522,4.2307,4.2307,4.2307,4.2307,4.2307,4.2307,4.2307,4.2307,4.2307,4.2307,4.2307,4.2307,4.2307,4.2307,4.2307,4.2307,4.2307,4.2307,4.2307,4.2307,4.2307,4.2307,4.2307,4.2307,4.2307,4.2307,4.2307,4.2307,4.2307,4.2307,4.2307,4.2353,4.2491,4.2445,4.233,4.233,5.8767,5.8641,5.8303,5.8378,5.8704,5.883,5.9131,5.9458,5.9508,5.9508,5.9508,5.9508,5.9508,5.9408,5.9006,5.8855,5.9006,5.9282,5.9508,5.9508,5.9508,5.9508,5.9431,5.9173,5.8926,5.8614,5.7986,5.7552,5.7418,5.7156,5.698,5.666,5.5866,5.5289,5.4928,5.4375,5.3785,5.3785,5.3785,5.3785,5.375,5.3341,5.2825,5.1886,5.1369,5.1225,5.1177,5.0936,5.0888,5.1249,5.0936,5.0696,5.0431,4.9998,4.972,4.9373,4.8782,4.8291,4.8074,4.7714,4.7545,4.7497,4.7497,4.7497,4.7497,4.7473,4.7281,4.6968,4.6776,4.6686,4.663,4.6502,4.6646,4.6471,4.5785,4.4957,4.4612,4.379,4.2825,4.2535,4.2425,4.2339,4.2371,4.2371,4.2307,4.2307,4.2307,4.2307,4.2307,4.2307,4.2307,4.2307,4.2307,4.2307,4.2307,4.2307,4.2307,4.2307,4.2307,4.2307,4.2307,4.2307,4.2307,4.2307,4.2307,4.2307,4.2307,4.2307,4.2307,4.2307,4.2307,4.2307,4.2307,4.2307,4.2307,6.064,6.0044,5.9337,5.9185,5.9306,5.8883,5.8967,5.9458,5.9508,5.9508,5.9508,5.9508,5.9508,5.9357,5.8956,5.8691,5.8792,5.9257,5.9483,5.9508,5.9508,5.9508,5.9508,5.9289,5.9237,5.9043,5.8575,5.8143,5.7932,5.7537,5.7169,5.6655,5.5863,5.5265,5.488,5.4231,5.3833,5.3785,5.3785,5.3785,5.375,5.3125,5.2392,5.2007,5.1369,5.1105,5.1032,5.0888,5.0816,5.096,5.084,5.0744,5.0624,5.0455,5.0167,4.9841,4.9167,4.8531,4.8267,4.781,4.7521,4.7497,4.7497,4.7497,4.7497,4.7473,4.7377,4.7209,4.7112,4.7112,4.7128,4.7187,4.7241,4.7069,4.6281,4.5639,4.5108,4.4249,4.3552,4.2905,4.2567,4.2512,4.2561,4.2498,4.2339,4.2307,4.2307,4.2307,4.2307,4.2307,4.2307,4.2307,4.2307,4.2307,4.2307,4.2307,4.2307,4.2307,4.2307,4.2307,4.2307,4.2307,4.2307,4.2307,4.2307,4.2307,4.2307,4.2307,4.2307,4.2307,4.2307,4.2307,4.2307,4.2307,4.2307,6.2286,6.1314,6.0695,6.0447,6.0404,5.9572,5.9516,5.9831,5.9599,5.9508,5.9508,5.9508,5.9508,5.9382,5.9106,5.8767,5.8679,5.9156,5.9483,5.9508,5.9508,5.9508,5.9508,5.9508,5.9469,5.9392,5.9159,5.8809,5.8354,5.78,5.7311,5.678,5.595,5.5164,5.472,5.4149,5.3894,5.3785,5.3785,5.3785,5.3606,5.3053,5.2524,5.2416,5.1537,5.1105,5.1201,5.084,5.084,5.0864,5.0816,5.0696,5.0696,5.0696,5.0503,5.0081,4.9576,4.8998,4.8363,4.7978,4.769,4.7521,4.7497,4.7497,4.7497,4.7497,4.7473,4.7497,4.7473,4.7449,4.7425,4.7473,4.7464,4.7326,4.6807,4.6195,4.5755,4.511,4.4446,4.3776,4.302,4.2717,4.2789,4.2498,4.2339,4.2307,4.2307,4.2307,4.2307,4.2307,4.2307,4.2307,4.2307,4.2307,4.2307,4.2307,4.2307,4.2307,4.2307,4.2307,4.2307,4.2307,4.2307,4.2307,4.2307,4.2307,4.2307,4.2307,4.2307,4.2307,4.2307,4.2307,4.2307,4.2307,4.2307,6.1527,6.1426,6.143,6.1712,6.1969,6.1148,6.1022,6.1365,6.0265,5.9547,5.9714,5.956,5.9599,5.9357,5.9332,5.8805,5.8504,5.8956,5.9408,5.9382,5.9458,5.9508,5.9508,5.9508,5.9508,5.9508,5.9405,5.9198,5.866,5.7847,5.7432,5.7036,5.5971,5.5148,5.4865,5.4189,5.3846,5.3785,5.3785,5.3785,5.3774,5.3606,5.3293,5.2884,5.2368,5.1874,5.1682,5.1153,5.0864,5.1201,5.0912,5.072,5.0696,5.0696,5.0696,5.0479,5.0081,4.9383,4.8613,4.8291,4.805,4.7786,4.7642,4.7521,4.7569,4.7521,4.7497,4.7497,4.7497,4.7497,4.7497,4.7497,4.7497,4.735,4.704,4.6803,4.6513,4.5705,4.5092,4.4679,4.3927,4.3353,4.3048,4.2662,4.2307,4.2307,4.2307,4.2307,4.2307,4.2307,4.2307,4.2307,4.2307,4.2307,4.2307,4.2307,4.2307,4.2307,4.2307,4.2307,4.2307,4.2307,4.2307,4.2307,4.2307,4.2307,4.2307,4.2307,4.2307,4.2307,4.2307,4.2307,4.2307,4.2307,4.2307,6.3625,6.3868,6.3128,6.3376,6.3964,6.2848,6.2628,6.2935,6.2487,6.1655,6.0926,6.0774,6.0049,5.8971,5.8579,5.8152,5.7775,5.8554,5.9056,5.9182,5.9332,5.9483,5.9508,5.9508,5.9508,5.9508,5.9458,5.918,5.8696,5.8177,5.7699,5.7152,5.5955,5.4991,5.4872,5.413,5.3884,5.3785,5.3785,5.3785,5.375,5.3558,5.3293,5.3053,5.232,5.1946,5.1658,5.1177,5.0816,5.1008,5.0768,5.072,5.0696,5.0696,5.0696,5.0672,5.0503,4.9974,4.9359,4.8916,4.8603,4.8493,4.8339,4.8291,4.8002,4.7666,4.7497,4.7497,4.7497,4.7497,4.7497,4.7497,4.7497,4.7383,4.7163,4.7011,4.6801,4.6234,4.5596,4.5229,4.4816,4.4111,4.3363,4.278,4.2434,4.2371,4.2339,4.2307,4.2307,4.2307,4.2307,4.2307,4.2307,4.2307,4.2307,4.2307,4.2307,4.2307,4.2307,4.2307,4.2307,4.2307,4.2307,4.2307,4.2307,4.2307,4.2307,4.2307,4.2307,4.2307,4.2307,4.2307,4.2307,4.2307,4.2307,6.5373,6.5795,6.4927,6.5091,6.5736,6.4566,6.4377,6.4724,6.4247,6.3455,6.2619,6.2117,6.0672,5.8799,5.8437,5.8173,5.7136,5.8077,5.8491,5.8792,5.9081,5.9332,5.9458,5.9508,5.9508,5.9508,5.9508,5.9193,5.874,5.8224,5.7722,5.7174,5.5978,5.5247,5.473,5.4272,5.3972,5.3785,5.3785,5.3785,5.3774,5.3485,5.3306,5.2897,5.2259,5.1634,5.1441,5.0984,5.0744,5.072,5.0744,5.0696,5.0696,5.0696,5.0696,5.0696,5.0624,5.0479,4.9974,4.9589,4.9311,4.9119,4.8892,4.8507,4.8267,4.781,4.7497,4.7497,4.7497,4.7497,4.7497,4.7497,4.7497,4.7377,4.72,4.7016,4.6791,4.6381,4.5957,4.5525,4.5063,4.4508,4.3797,4.2994,4.2584,4.2466,4.2371,4.2307,4.2307,4.2307,4.2307,4.2307,4.2307,4.2307,4.2307,4.2307,4.2307,4.2307,4.2307,4.2307,4.2307,4.2307,4.2307,4.2307,4.2307,4.2307,4.2307,4.2307,4.2307,4.2307,4.2307,4.2307,4.2307,4.2307,4.2307,6.5344,6.5951,6.6433,6.6657,6.6789,6.6461,6.6286,6.6237,6.4931,6.4328,6.3903,6.319,6.1458,5.9663,5.9133,5.8533,5.7047,5.7675,5.8127,5.8466,5.8767,5.9081,5.9282,5.9433,5.9508,5.9483,5.9382,5.9106,5.8679,5.8026,5.7537,5.6949,5.598,5.5645,5.5263,5.4682,5.4234,5.401,5.3935,5.386,5.386,5.3678,5.351,5.3114,5.2584,5.2018,5.1549,5.1008,5.0696,5.0696,5.0696,5.0696,5.0696,5.0696,5.0696,5.0696,5.0696,5.0624,5.0407,5.0095,4.9648,4.9167,4.8796,4.8652,4.8555,4.7882,4.7569,4.7569,4.7569,4.7497,4.7497,4.7497,4.7497,4.7449,4.7305,4.7209,4.7016,4.6743,4.6318,4.583,4.5334,4.4801,4.4325,4.3545,4.3023,4.2896,4.2586,4.2514,4.233,4.2307,4.2307,4.2307,4.2307,4.2307,4.2307,4.2307,4.2307,4.2307,4.2307,4.2307,4.2307,4.2307,4.2307,4.2307,4.2307,4.2307,4.2307,4.2307,4.2307,4.2307,4.2307,4.2307,4.2307,4.2307,4.2307,6.5112,6.5431,6.6447,6.7148,6.7517,6.7785,6.7919,6.785,6.7277,6.616,6.49,6.3371,6.139,5.9735,5.8912,5.8156,5.6768,5.7123,5.7537,5.7863,5.8265,5.8742,5.9081,5.9332,5.9508,5.9408,5.9182,5.8704,5.8177,5.775,5.7097,5.6448,5.594,5.5718,5.5374,5.509,5.4719,5.4496,5.4309,5.4197,5.4098,5.3873,5.3726,5.3534,5.2644,5.2259,5.1934,5.1129,5.084,5.0696,5.0696,5.0696,5.0696,5.0696,5.0696,5.0696,5.0696,5.0696,5.0696,5.0503,5.0287,5.007,4.9614,4.9263,4.9084,4.8459,4.8074,4.7906,4.7666,4.7497,4.7497,4.7497,4.7497,4.7497,4.7449,4.732,4.7128,4.6863,4.6479,4.5918,4.5526,4.5102,4.465,4.416,4.3717,4.3328,4.3008,4.2651,4.2445,4.2307,4.2307,4.2307,4.2307,4.2307,4.2307,4.2307,4.2307,4.2307,4.2307,4.2307,4.2307,4.2307,4.2307,4.2307,4.2307,4.2307,4.2307,4.2307,4.2307,4.2307,4.2307,4.2307,4.2307,4.2307,4.2307,6.5155,6.5272,6.619,6.6999,6.77,6.8479,6.8794,6.8765,6.8528,6.7483,6.5539,6.3942,6.2273,6.0626,5.9964,5.9079,5.8076,5.7666,5.7619,5.788,5.829,5.858,5.8855,5.9156,5.9408,5.9257,5.9081,5.8679,5.7951,5.7499,5.7097,5.656,5.6037,5.5852,5.5705,5.5411,5.5152,5.493,5.4645,5.4397,5.4322,5.4047,5.3485,5.3317,5.2572,5.2018,5.1634,5.1008,5.0768,5.0696,5.0696,5.0696,5.0696,5.0696,5.0696,5.072,5.072,5.072,5.0696,5.0696,5.0696,5.0503,5.007,4.9889,4.9672,4.894,4.83,4.8228,4.781,4.7497,4.7497,4.7497,4.7497,4.7497,4.7497,4.7401,4.7185,4.692,4.6463,4.595,4.563,4.5366,4.4752,4.4269,4.382,4.3362,4.296,4.265,4.2399,4.2307,4.2307,4.2307,4.2307,4.2307,4.2307,4.2307,4.2307,4.2307,4.2307,4.2307,4.2307,4.2307,4.2307,4.2307,4.2307,4.2307,4.2307,4.2307,4.2307,4.2307,4.2307,4.2307,4.2307,4.2307,4.2307,6.5475,6.5531,6.5822,6.6331,6.7061,6.8276,6.8707,6.8538,6.8102,6.7132,6.5951,6.5491,6.4367,6.2738,6.2036,6.107,5.9827,5.8885,5.8518,5.8631,5.8417,5.8416,5.8629,5.8981,5.9131,5.8956,5.883,5.8554,5.7801,5.7499,5.7223,5.6835,5.6284,5.6109,5.612,5.5779,5.5411,5.5016,5.4682,5.457,5.4472,5.4149,5.3492,5.2923,5.2417,5.1886,5.1273,5.0912,5.072,5.0696,5.0696,5.0744,5.084,5.0816,5.084,5.0888,5.0816,5.0744,5.0696,5.0696,5.0696,5.0672,5.0263,5.0033,4.972,4.9047,4.8315,4.8325,4.781,4.7545,4.7497,4.7497,4.7497,4.7497,4.7497,4.7353,4.7112,4.692,4.6463,4.583,4.571,4.5534,4.4887,4.4284,4.3868,4.3427,4.301,4.2688,4.2466,4.2307,4.2339,4.2402,4.2402,4.2307,4.2307,4.2307,4.2307,4.2307,4.2307,4.2307,4.2307,4.2307,4.2307,4.2307,4.2307,4.2307,4.2307,4.2307,4.2307,4.2307,4.2307,4.2307,4.2307,4.2307,4.2307,6.5851,6.5878,6.6113,6.6364,6.6653,6.7243,6.7551,6.7492,6.726,6.6738,6.6038,6.5893,6.4741,6.3339,6.274,6.2142,6.0791,6.0345,5.9825,5.8758,5.8745,5.8114,5.8201,5.8643,5.873,5.8353,5.8353,5.8177,5.7261,5.7148,5.6796,5.642,5.6369,5.6244,5.6182,5.6036,5.5889,5.5779,5.546,5.5201,5.5078,5.4451,5.3753,5.3071,5.2453,5.1849,5.1236,5.0935,5.0755,5.0755,5.0755,5.0888,5.1129,5.1201,5.1369,5.1489,5.1465,5.1032,5.084,5.0696,5.0696,5.0624,5.0527,5.0215,4.9889,4.9287,4.8758,4.8291,4.7882,4.7617,4.7497,4.7497,4.7497,4.7497,4.7425,4.7209,4.6992,4.6824,4.6463,4.5686,4.5301,4.5253,4.4806,4.4616,4.4239,4.3797,4.338,4.301,4.2766,4.2466,4.2371,4.2498,4.2529,4.2371,4.2307,4.2307,4.2307,4.2307,4.2307,4.2307,4.2307,4.2307,4.2307,4.2307,4.2307,4.2307,4.2307,4.2307,4.2307,4.2307,4.2307,4.2307,4.2307,4.2307,4.2307,6.6164,6.6192,6.626,6.6185,6.6172,6.6669,6.6767,6.6593,6.6535,6.6186,6.5693,6.5544,6.4926,6.3867,6.3488,6.323,6.2075,6.1504,6.1165,5.9942,5.9881,5.9173,5.8643,5.8462,5.8502,5.8,5.7775,5.7625,5.7085,5.6659,5.6433,5.6319,5.6219,5.6219,5.6219,5.6182,5.6182,5.5999,5.5717,5.5373,5.5064,5.4548,5.3851,5.3192,5.2571,5.2012,5.158,5.1196,5.0873,5.0897,5.0995,5.114,5.1417,5.1706,5.1802,5.185,5.1513,5.1056,5.0792,5.0696,5.0696,5.0696,5.0696,5.0527,5.0178,4.9696,4.9167,4.8628,4.8026,4.7714,4.7521,4.7521,4.7497,4.7497,4.7425,4.7209,4.7161,4.6992,4.6719,4.5926,4.5638,4.5397,4.4981,4.4878,4.4744,4.4286,4.3828,4.3466,4.3097,4.2774,4.2561,4.2688,4.2624,4.2434,4.2339,4.2307,4.2307,4.2307,4.2339,4.2371,4.2307,4.2307,4.2307,4.2307,4.2307,4.2307,4.2307,4.2307,4.2307,4.2307,4.2307,4.2307,4.2307,4.2307,4.2307,6.6446,6.6415,6.6134,6.5821,6.5711,6.6413,6.6451,6.5864,6.5864,6.5577,6.5025,6.5054,6.4897,6.4932,6.4932,6.4711,6.4393,6.3328,6.2707,6.2119,6.1219,6.0146,5.9369,5.917,5.8252,5.7597,5.7336,5.7399,5.6985,5.6709,5.652,5.6319,5.6219,5.6219,5.6219,5.6093,5.6068,5.5908,5.5763,5.5331,5.4909,5.4396,5.3685,5.3061,5.2583,5.2193,5.1796,5.1425,5.1236,5.1216,5.133,5.1428,5.167,5.2031,5.185,5.1586,5.1129,5.0912,5.0696,5.0696,5.0576,5.0503,5.0479,5.0576,5.0287,4.972,4.9095,4.8686,4.8122,4.7834,4.7593,4.7545,4.7497,4.7497,4.7497,4.7425,4.7449,4.7305,4.7055,4.6767,4.6743,4.6455,4.583,4.5558,4.5038,4.4546,4.4175,4.4104,4.3655,4.309,4.2909,4.2917,4.2822,4.2498,4.2434,4.2538,4.257,4.2665,4.2466,4.2466,4.2371,4.2339,4.2307,4.2307,4.2307,4.2307,4.2307,4.2307,4.2307,4.2307,4.2307,4.2307,4.2307,4.2307,4.2307,6.5442,6.5441,6.5584,6.5578,6.5571,6.5775,6.5627,6.5257,6.5257,6.5112,6.4996,6.4996,6.4967,6.4996,6.4996,6.4967,6.4839,6.4457,6.3623,6.282,6.1893,6.0173,5.9147,5.8554,5.7421,5.7043,5.6971,5.7133,5.657,5.647,5.647,5.6244,5.6219,5.6219,5.6093,5.5817,5.5717,5.558,5.5496,5.511,5.4624,5.4156,5.353,5.3066,5.2659,5.2307,5.1964,5.1751,5.1551,5.1309,5.1276,5.1352,5.1537,5.2007,5.2175,5.2103,5.1586,5.1153,5.0744,5.037,5.0226,5.0178,4.9902,4.9565,4.9397,4.9239,4.8734,4.8363,4.8147,4.7834,4.7593,4.7521,4.7497,4.7497,4.7497,4.7497,4.7497,4.7425,4.7233,4.704,4.704,4.6575,4.607,4.5782,4.5269,4.4743,4.4465,4.4395,4.419,4.3538,4.3404,4.3404,4.3106,4.2822,4.2917,4.3043,4.3043,4.3043,4.2822,4.2656,4.2633,4.257,4.2402,4.2307,4.2339,4.2339,4.2307,4.2307,4.2307,4.2307,4.2307,4.2307,4.2307,4.2307,4.2307,6.4994,6.5024,6.5203,6.523,6.5077,6.4848,6.4681,6.4645,6.4891,6.4996,6.4996,6.4996,6.4851,6.459,6.4561,6.4561,6.4558,6.4465,6.4108,6.3814,6.257,6.17,6.0369,5.9281,5.8644,5.7857,5.7186,5.7251,5.6499,5.6255,5.6219,5.6219,5.6219,5.6219,5.6068,5.5717,5.529,5.52,5.4988,5.4748,5.4285,5.3858,5.3508,5.3093,5.2684,5.2461,5.2238,5.2134,5.1866,5.166,5.1614,5.1819,5.2066,5.2502,5.2574,5.2369,5.1561,5.1092,5.0696,5.0455,5.0263,5.0081,4.9662,4.9552,4.9335,4.9167,4.8579,4.8122,4.7954,4.7786,4.7617,4.7497,4.7497,4.7497,4.7497,4.7497,4.7497,4.7497,4.7305,4.704,4.6728,4.6286,4.5974,4.5782,4.5469,4.4981,4.459,4.4439,4.4259,4.3859,4.3844,4.401,4.3585,4.32,4.3326,4.3389,4.3326,4.3263,4.3137,4.298,4.2949,4.2886,4.2759,4.257,4.2371,4.2402,4.2402,4.2339,4.2307,4.2339,4.2339,4.2307,4.2307,4.2307,4.2307,6.4845,6.4815,6.4904,6.4785,6.4425,6.4028,6.3906,6.4028,6.4648,6.4888,6.4859,6.4856,6.4447,6.4009,6.392,6.4036,6.4123,6.4181,6.45,6.4842,6.4005,6.3009,6.2274,6.2314,5.9835,5.8789,5.8373,5.8086,5.6801,5.634,5.6219,5.6219,5.6219,5.6143,5.5942,5.5465,5.4963,5.4547,5.4336,5.4084,5.3783,5.3557,5.3432,5.2986,5.2861,5.2826,5.2792,5.2654,5.2446,5.2317,5.2319,5.2468,5.2727,5.2801,5.2706,5.2404,5.1499,5.1019,5.0707,5.0479,5.0455,5.0311,5.0095,4.96,4.9167,4.8974,4.8411,4.8122,4.7978,4.7738,4.7569,4.7497,4.7497,4.7497,4.7497,4.7497,4.7497,4.7497,4.7425,4.7209,4.7064,4.6623,4.6391,4.6223,4.5854,4.5253,4.4989,4.4772,4.4367,4.4101,4.4141,4.4396,4.4056,4.3639,4.3608,4.3639,4.3545,4.3451,4.3389,4.3357,4.3326,4.3263,4.3169,4.2949,4.2728,4.2593,4.2529,4.2498,4.2466,4.2434,4.2402,4.2339,4.2307,4.2339,4.2307,6.3528,6.3588,6.4036,6.4338,6.4486,6.4335,6.4154,6.4031,6.4144,6.4134,6.3978,6.3916,6.3764,6.3464,6.3374,6.3549,6.3864,6.3837,6.4415,6.4326,6.4024,6.3357,6.2174,6.1819,6.0069,5.9011,5.8735,5.9033,5.7775,5.6876,5.6241,5.6205,5.613,5.5917,5.5566,5.5074,5.4522,5.4034,5.3632,5.3482,5.3221,5.3096,5.297,5.2895,5.2895,5.2895,5.2861,5.2826,5.2619,5.2427,5.2372,5.2534,5.2755,5.2364,5.2176,5.2025,5.1554,5.111,5.08,5.0596,5.0427,4.9948,4.948,4.8974,4.8603,4.8531,4.8411,4.8195,4.7978,4.7714,4.7569,4.7521,4.7497,4.7497,4.7497,4.7497,4.7497,4.7497,4.7497,4.7425,4.7353,4.7088,4.68,4.6463,4.6142,4.5878,4.571,4.5421,4.4845,4.4455,4.4185,4.4352,4.4336,4.4099,4.4053,4.3943,4.3826,4.3826,4.3795,4.3764,4.3678,4.349,4.3357,4.3263,4.3106,4.2949,4.2822,4.2791,4.2728,4.2688,4.2593,4.2561,4.2466,4.2466,4.2371,6.2689,6.272,6.3318,6.3501,6.3504,6.3594,6.3624,6.3565,6.3416,6.3297,6.3293,6.3525,6.3519,6.3161,6.3103,6.3126,6.3442,6.3384,6.3611,6.361,6.3552,6.2982,6.2244,6.1781,6.086,5.9842,5.9312,5.9066,5.8477,5.7214,5.6376,5.6326,5.6015,5.5437,5.5035,5.4522,5.4059,5.3708,5.3155,5.292,5.2895,5.2895,5.2895,5.2895,5.2895,5.2895,5.2895,5.2895,5.2792,5.2788,5.2869,5.2884,5.2971,5.2717,5.2527,5.2351,5.1954,5.1376,5.1138,5.0863,5.0551,5.0191,4.9759,4.9562,4.9119,4.8998,4.8195,4.7954,4.7762,4.7521,4.7521,4.7497,4.7497,4.7497,4.7497,4.7497,4.7497,4.7497,4.7497,4.7473,4.7281,4.6911,4.6527,4.595,4.5662,4.5421,4.5421,4.5253,4.482,4.4652,4.446,4.434,4.4364,4.4532,4.4631,4.4431,4.4192,4.4192,4.4106,4.4075,4.395,4.3732,4.3545,4.3514,4.342,4.3263,4.3169,4.3137,4.3075,4.3012,4.2917,4.2791,4.2696,4.2665,4.2696,6.1972,6.2061,6.2718,6.266,6.2242,6.2551,6.2878,6.3052,6.2819,6.2732,6.2822,6.3505,6.3474,6.3177,6.2971,6.285,6.2816,6.299,6.3071,6.3327,6.338,6.3014,6.2954,6.2861,6.1978,6.0733,5.9715,5.9484,5.9179,5.7902,5.7005,5.6616,5.576,5.483,5.4592,5.4104,5.3683,5.3422,5.3096,5.292,5.2895,5.2895,5.2895,5.2895,5.2895,5.2895,5.2895,5.2895,5.2895,5.2995,5.3161,5.3138,5.3098,5.2944,5.274,5.2525,5.2167,5.1782,5.1569,5.1499,5.1394,5.1181,5.0722,5.0218,4.9735,4.9063,4.829,4.7901,4.7708,4.7521,4.7521,4.7497,4.7497,4.7497,4.7497,4.7497,4.7497,4.7497,4.7497,4.7497,4.7233,4.6839,4.6431,4.583,4.5421,4.5157,4.482,4.4556,4.4357,4.4484,4.446,4.4412,4.4436,4.4676,4.4869,4.47,4.4316,4.4285,4.4223,4.4285,4.4254,4.4013,4.3857,4.3826,4.3732,4.3608,4.3514,4.3483,4.342,4.3357,4.3169,4.3043,4.3075,4.3043,4.3169,6.1285,6.1343,6.2002,6.2211,6.2181,6.2722,6.305,6.3079,6.305,6.3021,6.3023,6.3025,6.2911,6.2322,6.2293,6.241,6.2882,6.2881,6.3322,6.376,6.3433,6.3166,6.2927,6.2893,6.3055,6.1905,6.0361,5.9664,5.9714,5.8876,5.8275,5.8094,5.6802,5.5926,5.5374,5.4697,5.3847,5.3551,5.3287,5.3076,5.2895,5.2895,5.2895,5.2895,5.2895,5.2895,5.2895,5.2895,5.2895,5.2945,5.2995,5.3027,5.3017,5.2948,5.2754,5.254,5.2208,5.1995,5.1842,5.1871,5.1782,5.1652,5.1102,5.0406,4.9844,4.9282,4.8661,4.8337,4.8101,4.7708,4.7627,4.7521,4.7497,4.7497,4.7497,4.7497,4.7497,4.7497,4.7497,4.7497,4.7425,4.7233,4.7088,4.6511,4.595,4.559,4.5037,4.4748,4.4364,4.4388,4.4429,4.4429,4.446,4.4412,4.446,4.4532,4.4316,4.4316,4.4316,4.4316,4.4316,4.4285,4.4192,4.4099,4.413,4.4099,4.4005,4.3795,4.3764,4.367,4.3389,4.3263,4.3334,4.3373,4.3443]}]]